Wetterdaten: Mittwoch, 14.08.2019
Datum Zeit Temp. A. Pool Temp. Temp. 5cm Feuchte A. Luftdruck Regen Wind Richtung Richtung Sonnenschein ET UV Solar Taupunkt Windchill Windben Empfang
14.08.2019 00:00 13,6 C 22,2 C 13,9 C 95 % 1018,2 hPa 0,2 l/m 9,9 km/h (2 Bft) SW 236 0 min 0,000 mm 0,0 UV-I 0 W/m 12,8 C 11,6 C 14,5 km/h (3 Bft) 97,87 %
14.08.2019 00:02 13,6 C 22,2 C 13,9 C 95 % 1018,2 hPa 0,0 l/m 10,0 km/h (2 Bft) S-SW 200 0 min 0,000 mm 0,0 UV-I 0 W/m 12,8 C 11,6 C 14,5 km/h (3 Bft) 5,00 %
14.08.2019 00:04 13,6 C 22,2 C 13,9 C 96 % 1018,2 hPa 0,0 l/m 9,1 km/h (2 Bft) S-SW 211 0 min 0,000 mm 0,0 UV-I 0 W/m 13,0 C 12,0 C 14,5 km/h (3 Bft) 89,74 %
14.08.2019 00:06 13,6 C 22,2 C 13,9 C 96 % 1018,1 hPa 0,0 l/m 10,2 km/h (2 Bft) W-SW 240 0 min 0,000 mm 0,0 UV-I 0 W/m 13,0 C 11,5 C 14,5 km/h (3 Bft) 97,22 %
14.08.2019 00:08 13,6 C 22,2 C 13,9 C 96 % 1018,0 hPa 0,0 l/m 7,5 km/h (2 Bft) S-SW 200 0 min 0,000 mm 0,0 UV-I 0 W/m 13,0 C 12,9 C 12,9 km/h (3 Bft) 96,00 %
14.08.2019 00:10 13,6 C 22,2 C 13,9 C 96 % 1018,0 hPa 0,0 l/m 10,6 km/h (2 Bft) SW 222 0 min 0,000 mm 0,0 UV-I 0 W/m 13,0 C 11,3 C 17,7 km/h (3 Bft) 97,87 %
14.08.2019 00:12 13,6 C 22,2 C 13,9 C 96 % 1018,0 hPa 0,0 l/m 7,1 km/h (2 Bft) SW 234 0 min 0,000 mm 0,0 UV-I 0 W/m 13,0 C 13,2 C 14,5 km/h (3 Bft) 97,87 %
14.08.2019 00:14 13,6 C 22,2 C 13,9 C 96 % 1018,0 hPa 0,0 l/m 8,4 km/h (2 Bft) S-SW 209 0 min 0,000 mm 0,0 UV-I 0 W/m 13,0 C 12,4 C 17,7 km/h (3 Bft) 98,00 %
14.08.2019 00:16 13,6 C 22,2 C 13,9 C 96 % 1018,0 hPa 0,0 l/m 7,4 km/h (2 Bft) W-SW 241 0 min 0,000 mm 0,0 UV-I 0 W/m 13,0 C 13,0 C 14,5 km/h (3 Bft) 97,87 %
14.08.2019 00:18 13,6 C 22,2 C 13,9 C 96 % 1018,0 hPa 0,0 l/m 8,0 km/h (2 Bft) W-SW 237 0 min 0,000 mm 0,0 UV-I 0 W/m 13,0 C 12,6 C 11,3 km/h (2 Bft) 97,87 %
14.08.2019 00:20 13,6 C 22,2 C 13,9 C 96 % 1018,0 hPa 0,0 l/m 9,2 km/h (2 Bft) S 185 0 min 0,000 mm 0,0 UV-I 0 W/m 13,0 C 12,0 C 16,1 km/h (3 Bft) 95,74 %
14.08.2019 00:22 13,6 C 22,2 C 13,9 C 96 % 1018,0 hPa 0,0 l/m 8,2 km/h (2 Bft) SW 215 0 min 0,000 mm 0,0 UV-I 0 W/m 13,0 C 12,5 C 14,5 km/h (3 Bft) 95,74 %
14.08.2019 00:24 13,6 C 22,2 C 13,9 C 96 % 1018,0 hPa 0,0 l/m 10,0 km/h (2 Bft) SW 235 0 min 0,000 mm 0,0 UV-I 0 W/m 13,0 C 11,6 C 16,1 km/h (3 Bft) 97,87 %
14.08.2019 00:26 13,6 C 22,2 C 13,9 C 95 % 1017,9 hPa 0,0 l/m 8,4 km/h (2 Bft) SW 228 0 min 0,000 mm 0,0 UV-I 0 W/m 12,8 C 12,4 C 14,5 km/h (3 Bft) 97,87 %
14.08.2019 00:28 13,6 C 22,2 C 13,9 C 95 % 1017,9 hPa 0,0 l/m 9,3 km/h (2 Bft) SW 223 0 min 0,000 mm 0,0 UV-I 0 W/m 12,8 C 11,9 C 16,1 km/h (3 Bft) 95,74 %
14.08.2019 00:30 13,6 C 22,2 C 13,9 C 95 % 1017,8 hPa 0,0 l/m 7,8 km/h (2 Bft) W-SW 239 0 min 0,000 mm 0,0 UV-I 0 W/m 12,8 C 12,7 C 14,5 km/h (3 Bft) 97,56 %
14.08.2019 00:32 13,6 C 22,2 C 13,9 C 95 % 1017,8 hPa 0,0 l/m 7,2 km/h (2 Bft) SW 234 0 min 0,000 mm 0,0 UV-I 0 W/m 12,8 C 13,1 C 12,9 km/h (3 Bft) 95,74 %
14.08.2019 00:34 13,6 C 22,2 C 13,9 C 95 % 1017,8 hPa 0,0 l/m 7,4 km/h (2 Bft) SW 235 0 min 0,000 mm 0,0 UV-I 0 W/m 12,8 C 13,0 C 11,3 km/h (2 Bft) 97,87 %
14.08.2019 00:36 13,5 C 22,2 C 13,9 C 95 % 1017,7 hPa 0,0 l/m 9,9 km/h (2 Bft) SW 226 0 min 0,000 mm 0,0 UV-I 0 W/m 12,7 C 11,5 C 14,5 km/h (3 Bft) 97,87 %
14.08.2019 00:38 13,5 C 22,2 C 13,9 C 95 % 1017,6 hPa 0,0 l/m 8,2 km/h (2 Bft) SW 234 0 min 0,000 mm 0,0 UV-I 0 W/m 12,7 C 12,4 C 14,5 km/h (3 Bft) 96,00 %
14.08.2019 00:40 13,5 C 22,2 C 13,9 C 95 % 1017,7 hPa 0,0 l/m 8,0 km/h (2 Bft) W-SW 246 0 min 0,000 mm 0,0 UV-I 0 W/m 12,7 C 12,5 C 14,5 km/h (3 Bft) 97,87 %
14.08.2019 00:42 13,6 C 22,2 C 13,9 C 95 % 1017,6 hPa 0,0 l/m 7,6 km/h (2 Bft) SW 217 0 min 0,000 mm 0,0 UV-I 0 W/m 12,8 C 12,9 C 11,3 km/h (2 Bft) 96,00 %
14.08.2019 00:44 13,6 C 22,2 C 13,9 C 95 % 1017,6 hPa 0,0 l/m 7,1 km/h (2 Bft) W-SW 240 0 min 0,000 mm 0,0 UV-I 0 W/m 12,8 C 13,2 C 12,9 km/h (3 Bft) 97,87 %
14.08.2019 00:46 13,6 C 22,2 C 13,9 C 95 % 1017,6 hPa 0,0 l/m 4,8 km/h (1 Bft) SW 235 0 min 0,000 mm 0,0 UV-I 0 W/m 12,8 C 13,6 C 11,3 km/h (2 Bft) 95,74 %
14.08.2019 00:48 13,5 C 22,2 C 13,9 C 95 % 1017,6 hPa 0,0 l/m 4,9 km/h (1 Bft) SW 221 0 min 0,000 mm 0,0 UV-I 0 W/m 12,7 C 13,5 C 8,0 km/h (2 Bft) 96,08 %
14.08.2019 00:50 13,5 C 22,2 C 13,9 C 95 % 1017,6 hPa 0,0 l/m 5,1 km/h (1 Bft) S-SW 212 0 min 0,000 mm 0,0 UV-I 0 W/m 12,7 C 13,5 C 9,7 km/h (2 Bft) 93,62 %
14.08.2019 00:52 13,4 C 22,2 C 13,9 C 95 % 1017,6 hPa 0,0 l/m 7,4 km/h (2 Bft) S-SW 209 0 min 0,000 mm 0,0 UV-I 0 W/m 12,6 C 12,8 C 9,7 km/h (2 Bft) 97,14 %
14.08.2019 00:54 13,4 C 22,2 C 13,9 C 95 % 1017,5 hPa 0,2 l/m 7,2 km/h (2 Bft) S-SW 197 0 min 0,000 mm 0,0 UV-I 0 W/m 12,6 C 12,9 C 11,3 km/h (2 Bft) 96,00 %
14.08.2019 00:56 13,4 C 22,2 C 13,9 C 95 % 1017,5 hPa 0,0 l/m 7,2 km/h (2 Bft) W-SW 240 0 min 0,000 mm 0,0 UV-I 0 W/m 12,6 C 12,9 C 9,7 km/h (2 Bft) 95,74 %
14.08.2019 00:58 13,4 C 22,2 C 13,9 C 95 % 1017,5 hPa 0,0 l/m 5,9 km/h (2 Bft) SW 234 0 min 0,000 mm 0,0 UV-I 0 W/m 12,6 C 13,4 C 9,7 km/h (2 Bft) 95,74 %
14.08.2019 01:00 13,4 C 22,2 C 13,9 C 95 % 1017,5 hPa 0,0 l/m 6,1 km/h (2 Bft) S-SW 213 0 min 0,000 mm 0,0 UV-I 0 W/m 12,6 C 13,4 C 8,0 km/h (2 Bft) 98,00 %
14.08.2019 01:02 13,4 C 22,2 C 13,9 C 95 % 1017,4 hPa 0,0 l/m 5,3 km/h (1 Bft) SW 232 0 min 0,000 mm 0,0 UV-I 0 W/m 12,6 C 13,4 C 8,0 km/h (2 Bft) 94,00 %
14.08.2019 01:04 13,4 C 22,2 C 13,9 C 95 % 1017,4 hPa 0,0 l/m 6,5 km/h (2 Bft) SW 220 0 min 0,000 mm 0,0 UV-I 0 W/m 12,6 C 13,4 C 8,0 km/h (2 Bft) 100,00 %
14.08.2019 01:06 13,5 C 22,2 C 13,9 C 95 % 1017,4 hPa 0,0 l/m 6,9 km/h (2 Bft) SW 232 0 min 0,000 mm 0,0 UV-I 0 W/m 12,7 C 13,2 C 11,3 km/h (2 Bft) 97,37 %
14.08.2019 01:08 13,5 C 22,2 C 13,9 C 95 % 1017,4 hPa 0,0 l/m 6,5 km/h (2 Bft) W-SW 238 0 min 0,000 mm 0,0 UV-I 0 W/m 12,7 C 13,5 C 8,0 km/h (2 Bft) 95,74 %
14.08.2019 01:10 13,5 C 22,2 C 13,9 C 95 % 1017,4 hPa 0,0 l/m 4,0 km/h (1 Bft) W-SW 237 0 min 0,000 mm 0,0 UV-I 0 W/m 12,7 C 13,5 C 6,4 km/h (2 Bft) 95,74 %
14.08.2019 01:12 13,5 C 22,2 C 13,9 C 95 % 1017,4 hPa 0,0 l/m 4,0 km/h (1 Bft) SW 228 0 min 0,000 mm 0,0 UV-I 0 W/m 12,7 C 13,5 C 6,4 km/h (2 Bft) 100,00 %
14.08.2019 01:14 13,6 C 22,2 C 13,9 C 95 % 1017,4 hPa 0,0 l/m 3,5 km/h (1 Bft) SW 228 0 min 0,000 mm 0,0 UV-I 0 W/m 12,8 C 13,6 C 4,8 km/h (1 Bft) 98,00 %
14.08.2019 01:16 13,6 C 22,2 C 13,9 C 95 % 1017,4 hPa 0,0 l/m 3,1 km/h (1 Bft) SW 229 0 min 0,000 mm 0,0 UV-I 0 W/m 12,8 C 13,6 C 4,8 km/h (1 Bft) 95,74 %
14.08.2019 01:18 13,6 C 22,2 C 13,9 C 95 % 1017,5 hPa 0,0 l/m 3,5 km/h (1 Bft) SW 223 0 min 0,000 mm 0,0 UV-I 0 W/m 12,8 C 13,6 C 4,8 km/h (1 Bft) 98,11 %
14.08.2019 01:20 13,6 C 22,2 C 13,9 C 95 % 1017,5 hPa 0,0 l/m 4,4 km/h (1 Bft) W-SW 242 0 min 0,000 mm 0,0 UV-I 0 W/m 12,8 C 13,6 C 6,4 km/h (2 Bft) 94,44 %
14.08.2019 01:22 13,6 C 22,2 C 13,9 C 95 % 1017,5 hPa 0,0 l/m 3,2 km/h (1 Bft) W 259 0 min 0,000 mm 0,0 UV-I 0 W/m 12,8 C 13,6 C 6,4 km/h (2 Bft) 97,87 %
14.08.2019 01:24 13,6 C 22,2 C 13,9 C 95 % 1017,5 hPa 0,0 l/m 3,6 km/h (1 Bft) W 259 0 min 0,000 mm 0,0 UV-I 0 W/m 12,8 C 13,6 C 6,4 km/h (2 Bft) 97,87 %
14.08.2019 01:26 13,6 C 22,2 C 13,9 C 95 % 1017,5 hPa 0,0 l/m 2,6 km/h (1 Bft) W 281 0 min 0,000 mm 0,0 UV-I 0 W/m 12,8 C 13,6 C 4,8 km/h (1 Bft) 94,34 %
14.08.2019 01:28 13,6 C 22,2 C 13,9 C 95 % 1017,5 hPa 0,0 l/m 3,1 km/h (1 Bft) W 269 0 min 0,000 mm 0,0 UV-I 0 W/m 12,8 C 13,6 C 6,4 km/h (2 Bft) 97,87 %
14.08.2019 01:30 13,5 C 22,2 C 13,9 C 95 % 1017,5 hPa 0,0 l/m 3,0 km/h (1 Bft) W 281 0 min 0,000 mm 0,0 UV-I 0 W/m 12,7 C 13,5 C 4,8 km/h (1 Bft) 98,00 %
14.08.2019 01:32 13,4 C 22,2 C 13,9 C 95 % 1017,5 hPa 0,0 l/m 3,0 km/h (1 Bft) W-NW 292 0 min 0,000 mm 0,0 UV-I 0 W/m 12,6 C 13,4 C 6,4 km/h (2 Bft) 97,87 %
14.08.2019 01:34 13,4 C 22,2 C 13,9 C 95 % 1017,4 hPa 0,0 l/m 3,2 km/h (1 Bft) W 281 0 min 0,000 mm 0,0 UV-I 0 W/m 12,6 C 13,4 C 6,4 km/h (2 Bft) 93,62 %
14.08.2019 01:36 13,4 C 22,2 C 13,9 C 96 % 1017,4 hPa 0,0 l/m 2,6 km/h (1 Bft) W 281 0 min 0,000 mm 0,0 UV-I 0 W/m 12,8 C 13,4 C 4,8 km/h (1 Bft) 95,74 %
14.08.2019 01:38 13,4 C 22,2 C 13,9 C 96 % 1017,4 hPa 0,0 l/m 3,8 km/h (1 Bft) W 281 0 min 0,000 mm 0,0 UV-I 0 W/m 12,8 C 13,4 C 6,4 km/h (2 Bft) 95,74 %
14.08.2019 01:40 13,4 C 22,2 C 13,9 C 96 % 1017,4 hPa 0,0 l/m 4,5 km/h (1 Bft) W 280 0 min 0,000 mm 0,0 UV-I 0 W/m 12,8 C 13,4 C 9,7 km/h (2 Bft) 93,62 %
14.08.2019 01:42 13,4 C 22,2 C 13,9 C 96 % 1017,4 hPa 0,0 l/m 3,4 km/h (1 Bft) W 280 0 min 0,000 mm 0,0 UV-I 0 W/m 12,8 C 13,4 C 4,8 km/h (1 Bft) 97,87 %
14.08.2019 01:44 13,4 C 22,2 C 13,9 C 96 % 1017,4 hPa 0,0 l/m 5,3 km/h (1 Bft) W 272 0 min 0,000 mm 0,0 UV-I 0 W/m 12,8 C 13,4 C 9,7 km/h (2 Bft) 93,62 %
14.08.2019 01:46 13,5 C 22,2 C 13,9 C 96 % 1017,4 hPa 0,0 l/m 4,3 km/h (1 Bft) W-NW 287 0 min 0,000 mm 0,0 UV-I 0 W/m 12,9 C 13,5 C 6,4 km/h (2 Bft) 93,62 %
14.08.2019 01:48 13,4 C 22,2 C 13,9 C 96 % 1017,4 hPa 0,0 l/m 4,0 km/h (1 Bft) W 270 0 min 0,000 mm 0,0 UV-I 0 W/m 12,8 C 13,4 C 6,4 km/h (2 Bft) 100,00 %
14.08.2019 01:50 13,4 C 22,2 C 13,9 C 96 % 1017,6 hPa 0,0 l/m 4,3 km/h (1 Bft) W 269 0 min 0,000 mm 0,0 UV-I 0 W/m 12,8 C 13,4 C 6,4 km/h (2 Bft) 97,87 %
14.08.2019 01:52 13,4 C 22,2 C 13,9 C 96 % 1017,6 hPa 0,0 l/m 3,6 km/h (1 Bft) W 269 0 min 0,000 mm 0,0 UV-I 0 W/m 12,8 C 13,4 C 4,8 km/h (1 Bft) 97,87 %
14.08.2019 01:54 13,4 C 22,2 C 13,9 C 96 % 1017,6 hPa 0,0 l/m 3,7 km/h (1 Bft) W 269 0 min 0,000 mm 0,0 UV-I 0 W/m 12,8 C 13,4 C 4,8 km/h (1 Bft) 97,87 %
14.08.2019 01:56 13,4 C 22,2 C 13,9 C 96 % 1017,6 hPa 0,0 l/m 5,0 km/h (1 Bft) W 261 0 min 0,000 mm 0,0 UV-I 0 W/m 12,8 C 13,4 C 6,4 km/h (2 Bft) 97,87 %
14.08.2019 01:58 13,4 C 22,2 C 13,9 C 96 % 1017,5 hPa 0,0 l/m 4,5 km/h (1 Bft) W 261 0 min 0,000 mm 0,0 UV-I 0 W/m 12,8 C 13,4 C 6,4 km/h (2 Bft) 100,00 %
14.08.2019 02:00 13,5 C 22,2 C 13,9 C 96 % 1017,5 hPa 0,0 l/m 4,3 km/h (1 Bft) W 265 0 min 0,000 mm 0,0 UV-I 0 W/m 12,9 C 13,5 C 9,7 km/h (2 Bft) 100,00 %
14.08.2019 02:02 13,4 C 22,2 C 13,9 C 96 % 1017,4 hPa 0,0 l/m 3,6 km/h (1 Bft) W 265 0 min 0,000 mm 0,0 UV-I 0 W/m 12,8 C 13,4 C 4,8 km/h (1 Bft) 100,00 %
14.08.2019 02:04 13,4 C 22,2 C 13,9 C 96 % 1017,4 hPa 0,0 l/m 4,3 km/h (1 Bft) W 265 0 min 0,000 mm 0,0 UV-I 0 W/m 12,8 C 13,4 C 6,4 km/h (2 Bft) 100,00 %
14.08.2019 02:06 13,4 C 22,2 C 13,9 C 96 % 1017,3 hPa 0,0 l/m 3,4 km/h (1 Bft) W 261 0 min 0,000 mm 0,0 UV-I 0 W/m 12,8 C 13,4 C 4,8 km/h (1 Bft) 95,74 %
14.08.2019 02:08 13,4 C 22,2 C 13,9 C 96 % 1017,3 hPa 0,0 l/m 2,2 km/h (1 Bft) W 261 0 min 0,000 mm 0,0 UV-I 0 W/m 12,8 C 13,4 C 4,8 km/h (1 Bft) 100,00 %
14.08.2019 02:10 13,4 C 22,2 C 13,9 C 96 % 1017,3 hPa 0,0 l/m 2,5 km/h (1 Bft) W 261 0 min 0,000 mm 0,0 UV-I 0 W/m 12,8 C 13,4 C 3,2 km/h (1 Bft) 97,87 %
14.08.2019 02:12 13,4 C 22,2 C 13,9 C 96 % 1017,4 hPa 0,0 l/m 2,9 km/h (1 Bft) W 261 0 min 0,000 mm 0,0 UV-I 0 W/m 12,8 C 13,4 C 4,8 km/h (1 Bft) 98,00 %
14.08.2019 02:14 13,4 C 22,2 C 13,9 C 96 % 1017,4 hPa 0,0 l/m 3,0 km/h (1 Bft) W 261 0 min 0,000 mm 0,0 UV-I 0 W/m 12,8 C 13,4 C 4,8 km/h (1 Bft) 95,83 %
14.08.2019 02:16 13,4 C 22,2 C 13,9 C 96 % 1017,4 hPa 0,0 l/m 2,0 km/h (1 Bft) W 261 0 min 0,000 mm 0,0 UV-I 0 W/m 12,8 C 13,4 C 3,2 km/h (1 Bft) 97,87 %
14.08.2019 02:18 13,4 C 22,2 C 13,9 C 96 % 1017,4 hPa 0,0 l/m 1,3 km/h (1 Bft) W 261 0 min 0,000 mm 0,0 UV-I 0 W/m 12,8 C 13,4 C 3,2 km/h (1 Bft) 95,74 %
14.08.2019 02:20 13,4 C 22,2 C 13,9 C 96 % 1017,4 hPa 0,0 l/m 2,4 km/h (1 Bft) W 261 0 min 0,000 mm 0,0 UV-I 0 W/m 12,8 C 13,4 C 3,2 km/h (1 Bft) 97,87 %
14.08.2019 02:22 13,4 C 22,2 C 13,9 C 96 % 1017,5 hPa 0,0 l/m 2,4 km/h (1 Bft) W 261 0 min 0,000 mm 0,0 UV-I 0 W/m 12,8 C 13,4 C 3,2 km/h (1 Bft) 94,29 %
14.08.2019 02:24 13,4 C 22,2 C 13,9 C 96 % 1017,5 hPa 0,0 l/m 2,1 km/h (1 Bft) W 261 0 min 0,000 mm 0,0 UV-I 0 W/m 12,8 C 13,4 C 3,2 km/h (1 Bft) 93,75 %
14.08.2019 02:26 13,4 C 22,2 C 13,9 C 96 % 1017,5 hPa 0,0 l/m 2,2 km/h (1 Bft) W 261 0 min 0,000 mm 0,0 UV-I 0 W/m 12,8 C 13,4 C 4,8 km/h (1 Bft) 96,00 %
14.08.2019 02:28 13,4 C 22,2 C 13,9 C 96 % 1017,5 hPa 0,0 l/m 1,1 km/h (1 Bft) W 261 0 min 0,000 mm 0,0 UV-I 0 W/m 12,8 C 13,4 C 1,6 km/h (1 Bft) 98,00 %
14.08.2019 02:30 13,4 C 22,2 C 13,9 C 96 % 1017,5 hPa 0,0 l/m 1,2 km/h (1 Bft) W 261 0 min 0,000 mm 0,0 UV-I 0 W/m 12,8 C 13,4 C 1,6 km/h (1 Bft) 97,87 %
14.08.2019 02:32 13,3 C 22,2 C 13,9 C 96 % 1017,5 hPa 0,0 l/m 1,8 km/h (1 Bft) W 261 0 min 0,000 mm 0,0 UV-I 0 W/m 12,7 C 13,3 C 3,2 km/h (1 Bft) 95,74 %
14.08.2019 02:34 13,3 C 22,2 C 13,9 C 96 % 1017,6 hPa 0,0 l/m 1,1 km/h (1 Bft) W 261 0 min 0,000 mm 0,0 UV-I 0 W/m 12,7 C 13,3 C 1,6 km/h (1 Bft) 100,00 %
14.08.2019 02:36 13,3 C 22,2 C 13,9 C 96 % 1017,6 hPa 0,0 l/m 1,2 km/h (1 Bft) W 261 0 min 0,000 mm 0,0 UV-I 0 W/m 12,7 C 13,3 C 1,6 km/h (1 Bft) 100,00 %
14.08.2019 02:38 13,3 C 22,2 C 13,9 C 96 % 1017,6 hPa 0,0 l/m 3,4 km/h (1 Bft) W-NW 286 0 min 0,000 mm 0,0 UV-I 0 W/m 12,7 C 13,3 C 6,4 km/h (2 Bft) 100,00 %
14.08.2019 02:40 13,3 C 22,2 C 13,9 C 96 % 1017,5 hPa 0,0 l/m 2,8 km/h (1 Bft) W 281 0 min 0,000 mm 0,0 UV-I 0 W/m 12,7 C 13,3 C 4,8 km/h (1 Bft) 100,00 %
14.08.2019 02:42 13,3 C 22,2 C 13,9 C 96 % 1017,5 hPa 0,0 l/m 0,9 km/h (0 Bft) W 281 0 min 0,000 mm 0,0 UV-I 0 W/m 12,7 C 13,3 C 3,2 km/h (1 Bft) 100,00 %
14.08.2019 02:44 13,3 C 22,2 C 13,9 C 96 % 1017,5 hPa 0,0 l/m 1,4 km/h (1 Bft) W 281 0 min 0,000 mm 0,0 UV-I 0 W/m 12,7 C 13,3 C 3,2 km/h (1 Bft) 100,00 %
14.08.2019 02:46 13,3 C 22,2 C 13,9 C 96 % 1017,6 hPa 0,0 l/m 2,3 km/h (1 Bft) W 281 0 min 0,000 mm 0,0 UV-I 0 W/m 12,7 C 13,3 C 3,2 km/h (1 Bft) 100,00 %
14.08.2019 02:48 13,3 C 22,2 C 13,9 C 96 % 1017,5 hPa 0,0 l/m 2,9 km/h (1 Bft) W 281 0 min 0,000 mm 0,0 UV-I 0 W/m 12,7 C 13,3 C 4,8 km/h (1 Bft) 100,00 %
14.08.2019 02:50 13,4 C 22,2 C 13,9 C 96 % 1017,6 hPa 0,0 l/m 2,6 km/h (1 Bft) W 281 0 min 0,000 mm 0,0 UV-I 0 W/m 12,8 C 13,4 C 4,8 km/h (1 Bft) 95,74 %
14.08.2019 02:52 13,3 C 22,2 C 13,9 C 96 % 1017,6 hPa 0,0 l/m 2,7 km/h (1 Bft) W 281 0 min 0,000 mm 0,0 UV-I 0 W/m 12,7 C 13,3 C 4,8 km/h (1 Bft) 100,00 %
14.08.2019 02:54 13,3 C 22,2 C 13,9 C 96 % 1017,5 hPa 0,0 l/m 3,6 km/h (1 Bft) W-SW 242 0 min 0,000 mm 0,0 UV-I 0 W/m 12,7 C 13,3 C 6,4 km/h (2 Bft) 97,87 %
14.08.2019 02:56 13,3 C 22,2 C 13,9 C 96 % 1017,5 hPa 0,0 l/m 4,1 km/h (1 Bft) W-SW 244 0 min 0,000 mm 0,0 UV-I 0 W/m 12,7 C 13,3 C 6,4 km/h (2 Bft) 100,00 %
14.08.2019 02:58 13,3 C 22,2 C 13,9 C 96 % 1017,5 hPa 0,0 l/m 4,3 km/h (1 Bft) W-SW 239 0 min 0,000 mm 0,0 UV-I 0 W/m 12,7 C 13,3 C 6,4 km/h (2 Bft) 100,00 %
14.08.2019 03:00 13,3 C 22,2 C 13,9 C 96 % 1017,4 hPa 0,0 l/m 4,2 km/h (1 Bft) SW 225 0 min 0,000 mm 0,0 UV-I 0 W/m 12,7 C 13,3 C 6,4 km/h (2 Bft) 100,00 %
14.08.2019 03:02 13,3 C 21,7 C 13,9 C 96 % 1017,4 hPa 0,0 l/m 3,6 km/h (1 Bft) W-SW 252 0 min 0,000 mm 0,0 UV-I 0 W/m 12,7 C 13,3 C 4,8 km/h (1 Bft) 97,87 %
14.08.2019 03:04 13,3 C 21,7 C 13,9 C 96 % 1017,5 hPa 0,0 l/m 2,8 km/h (1 Bft) W-SW 252 0 min 0,000 mm 0,0 UV-I 0 W/m 12,7 C 13,3 C 6,4 km/h (2 Bft) 100,00 %
14.08.2019 03:06 13,3 C 21,7 C 13,9 C 96 % 1017,4 hPa 0,0 l/m 3,7 km/h (1 Bft) W 265 0 min 0,000 mm 0,0 UV-I 0 W/m 12,7 C 13,3 C 6,4 km/h (2 Bft) 97,87 %
14.08.2019 03:08 13,3 C 21,7 C 13,9 C 96 % 1017,4 hPa 0,0 l/m 4,0 km/h (1 Bft) W 265 0 min 0,000 mm 0,0 UV-I 0 W/m 12,7 C 13,3 C 6,4 km/h (2 Bft) 98,00 %
14.08.2019 03:10 13,3 C 21,7 C 13,9 C 96 % 1017,4 hPa 0,0 l/m 2,4 km/h (1 Bft) W 265 0 min 0,000 mm 0,0 UV-I 0 W/m 12,7 C 13,3 C 4,8 km/h (1 Bft) 100,00 %
14.08.2019 03:12 13,4 C 21,7 C 13,9 C 97 % 1017,4 hPa 0,0 l/m 3,2 km/h (1 Bft) W 265 0 min 0,000 mm 0,0 UV-I 0 W/m 12,9 C 13,4 C 4,8 km/h (1 Bft) 95,74 %
14.08.2019 03:14 13,4 C 21,7 C 13,9 C 97 % 1017,5 hPa 0,0 l/m 2,7 km/h (1 Bft) W 265 0 min 0,000 mm 0,0 UV-I 0 W/m 12,9 C 13,4 C 4,8 km/h (1 Bft) 97,87 %
14.08.2019 03:16 13,4 C 21,7 C 13,9 C 97 % 1017,5 hPa 0,0 l/m 3,4 km/h (1 Bft) W 265 0 min 0,000 mm 0,0 UV-I 0 W/m 12,9 C 13,4 C 4,8 km/h (1 Bft) 95,74 %
14.08.2019 03:18 13,3 C 21,7 C 13,9 C 96 % 1017,5 hPa 0,0 l/m 4,6 km/h (1 Bft) W 261 0 min 0,000 mm 0,0 UV-I 0 W/m 12,7 C 13,3 C 9,7 km/h (2 Bft) 95,83 %
14.08.2019 03:20 13,3 C 21,7 C 13,9 C 96 % 1017,5 hPa 0,0 l/m 2,8 km/h (1 Bft) W 263 0 min 0,000 mm 0,0 UV-I 0 W/m 12,7 C 13,3 C 4,8 km/h (1 Bft) 97,87 %
14.08.2019 03:22 13,3 C 21,7 C 13,3 C 96 % 1017,5 hPa 0,0 l/m 3,1 km/h (1 Bft) W 273 0 min 0,000 mm 0,0 UV-I 0 W/m 12,7 C 13,3 C 4,8 km/h (1 Bft) 95,74 %
14.08.2019 03:24 13,3 C 21,7 C 13,9 C 96 % 1017,5 hPa 0,0 l/m 2,4 km/h (1 Bft) W 273 0 min 0,000 mm 0,0 UV-I 0 W/m 12,7 C 13,3 C 4,8 km/h (1 Bft) 95,74 %
14.08.2019 03:26 13,3 C 21,7 C 13,3 C 96 % 1017,4 hPa 0,0 l/m 2,5 km/h (1 Bft) W 273 0 min 0,000 mm 0,0 UV-I 0 W/m 12,7 C 13,3 C 4,8 km/h (1 Bft) 95,74 %
14.08.2019 03:28 13,3 C 21,7 C 13,9 C 96 % 1017,5 hPa 0,0 l/m 3,1 km/h (1 Bft) W 273 0 min 0,000 mm 0,0 UV-I 0 W/m 12,7 C 13,3 C 4,8 km/h (1 Bft) 94,74 %
14.08.2019 03:30 13,3 C 21,7 C 13,3 C 96 % 1017,5 hPa 0,0 l/m 3,1 km/h (1 Bft) W 273 0 min 0,000 mm 0,0 UV-I 0 W/m 12,7 C 13,3 C 4,8 km/h (1 Bft) 94,00 %
14.08.2019 03:32 13,3 C 21,7 C 13,3 C 96 % 1017,6 hPa 0,0 l/m 4,4 km/h (1 Bft) W 272 0 min 0,000 mm 0,0 UV-I 0 W/m 12,7 C 13,3 C 6,4 km/h (2 Bft) 97,87 %
14.08.2019 03:34 13,3 C 21,7 C 13,3 C 96 % 1017,5 hPa 0,0 l/m 4,9 km/h (1 Bft) W 270 0 min 0,000 mm 0,0 UV-I 0 W/m 12,7 C 13,3 C 6,4 km/h (2 Bft) 95,74 %
14.08.2019 03:36 13,3 C 21,7 C 13,3 C 96 % 1017,5 hPa 0,0 l/m 3,4 km/h (1 Bft) W 270 0 min 0,000 mm 0,0 UV-I 0 W/m 12,7 C 13,3 C 4,8 km/h (1 Bft) 93,62 %
14.08.2019 03:38 13,3 C 21,7 C 13,3 C 96 % 1017,5 hPa 0,0 l/m 3,2 km/h (1 Bft) W 270 0 min 0,000 mm 0,0 UV-I 0 W/m 12,7 C 13,3 C 4,8 km/h (1 Bft) 93,62 %
14.08.2019 03:40 13,3 C 21,7 C 13,3 C 96 % 1017,6 hPa 0,0 l/m 3,2 km/h (1 Bft) W 270 0 min 0,000 mm 0,0 UV-I 0 W/m 12,7 C 13,3 C 4,8 km/h (1 Bft) 95,74 %
14.08.2019 03:42 13,3 C 21,7 C 13,3 C 96 % 1017,5 hPa 0,0 l/m 3,6 km/h (1 Bft) W 270 0 min 0,000 mm 0,0 UV-I 0 W/m 12,7 C 13,3 C 6,4 km/h (2 Bft) 91,49 %
14.08.2019 03:44 13,3 C 21,7 C 13,3 C 96 % 1017,6 hPa 0,0 l/m 4,3 km/h (1 Bft) W 270 0 min 0,000 mm 0,0 UV-I 0 W/m 12,7 C 13,3 C 6,4 km/h (2 Bft) 91,49 %
14.08.2019 03:46 13,3 C 21,7 C 13,3 C 96 % 1017,6 hPa 0,0 l/m 4,2 km/h (1 Bft) W 270 0 min 0,000 mm 0,0 UV-I 0 W/m 12,7 C 13,3 C 6,4 km/h (2 Bft) 93,62 %
14.08.2019 03:48 13,3 C 21,7 C 13,3 C 96 % 1017,6 hPa 0,0 l/m 4,0 km/h (1 Bft) W 269 0 min 0,000 mm 0,0 UV-I 0 W/m 12,7 C 13,3 C 6,4 km/h (2 Bft) 93,62 %
14.08.2019 03:50 13,3 C 21,7 C 13,3 C 96 % 1017,6 hPa 0,0 l/m 3,8 km/h (1 Bft) W 269 0 min 0,000 mm 0,0 UV-I 0 W/m 12,7 C 13,3 C 6,4 km/h (2 Bft) 97,87 %
14.08.2019 03:52 13,3 C 21,7 C 13,3 C 96 % 1017,6 hPa 0,0 l/m 3,7 km/h (1 Bft) W 269 0 min 0,000 mm 0,0 UV-I 0 W/m 12,7 C 13,3 C 6,4 km/h (2 Bft) 95,74 %
14.08.2019 03:54 13,3 C 21,7 C 13,3 C 96 % 1017,6 hPa 0,0 l/m 4,3 km/h (1 Bft) W 269 0 min 0,000 mm 0,0 UV-I 0 W/m 12,7 C 13,3 C 6,4 km/h (2 Bft) 91,67 %
14.08.2019 03:56 13,3 C 21,7 C 13,3 C 96 % 1017,6 hPa 0,0 l/m 3,3 km/h (1 Bft) W 269 0 min 0,000 mm 0,0 UV-I 0 W/m 12,7 C 13,3 C 4,8 km/h (1 Bft) 93,62 %
14.08.2019 03:58 13,3 C 21,7 C 13,3 C 96 % 1017,6 hPa 0,0 l/m 4,0 km/h (1 Bft) W 277 0 min 0,000 mm 0,0 UV-I 0 W/m 12,7 C 13,3 C 6,4 km/h (2 Bft) 93,62 %
14.08.2019 04:00 13,3 C 21,7 C 13,3 C 96 % 1017,7 hPa 0,0 l/m 4,3 km/h (1 Bft) W 276 0 min 0,000 mm 0,0 UV-I 0 W/m 12,7 C 13,3 C 6,4 km/h (2 Bft) 95,74 %
14.08.2019 04:02 13,3 C 21,7 C 13,9 C 96 % 1017,7 hPa 0,0 l/m 4,3 km/h (1 Bft) W 275 0 min 0,000 mm 0,0 UV-I 0 W/m 12,7 C 13,3 C 6,4 km/h (2 Bft) 94,87 %
14.08.2019 04:04 13,3 C 21,7 C 13,9 C 96 % 1017,7 hPa 0,0 l/m 3,3 km/h (1 Bft) W 275 0 min 0,000 mm 0,0 UV-I 0 W/m 12,7 C 13,3 C 4,8 km/h (1 Bft) 97,37 %
14.08.2019 04:06 13,3 C 21,7 C 13,9 C 96 % 1017,7 hPa 0,0 l/m 3,6 km/h (1 Bft) W 275 0 min 0,000 mm 0,0 UV-I 0 W/m 12,7 C 13,3 C 4,8 km/h (1 Bft) 95,74 %
14.08.2019 04:08 13,3 C 21,7 C 13,9 C 96 % 1017,6 hPa 0,0 l/m 3,4 km/h (1 Bft) W 275 0 min 0,000 mm 0,0 UV-I 0 W/m 12,7 C 13,3 C 4,8 km/h (1 Bft) 98,00 %
14.08.2019 04:10 13,3 C 21,7 C 13,9 C 96 % 1017,6 hPa 0,0 l/m 3,3 km/h (1 Bft) W 275 0 min 0,000 mm 0,0 UV-I 0 W/m 12,7 C 13,3 C 4,8 km/h (1 Bft) 96,00 %
14.08.2019 04:12 13,3 C 21,7 C 13,9 C 96 % 1017,6 hPa 0,0 l/m 2,9 km/h (1 Bft) W 275 0 min 0,000 mm 0,0 UV-I 0 W/m 12,7 C 13,3 C 4,8 km/h (1 Bft) 96,00 %
14.08.2019 04:14 13,3 C 21,7 C 13,9 C 96 % 1017,5 hPa 0,0 l/m 2,0 km/h (1 Bft) W 275 0 min 0,000 mm 0,0 UV-I 0 W/m 12,7 C 13,3 C 3,2 km/h (1 Bft) 95,74 %
14.08.2019 04:16 13,3 C 21,7 C 13,9 C 96 % 1017,5 hPa 0,0 l/m 2,0 km/h (1 Bft) W 275 0 min 0,000 mm 0,0 UV-I 0 W/m 12,7 C 13,3 C 3,2 km/h (1 Bft) 97,14 %
14.08.2019 04:18 13,3 C 21,7 C 13,9 C 96 % 1017,5 hPa 0,0 l/m 1,8 km/h (1 Bft) W 275 0 min 0,000 mm 0,0 UV-I 0 W/m 12,7 C 13,3 C 3,2 km/h (1 Bft) 96,00 %
14.08.2019 04:20 13,3 C 21,7 C 13,9 C 96 % 1017,5 hPa 0,0 l/m 2,7 km/h (1 Bft) W 275 0 min 0,000 mm 0,0 UV-I 0 W/m 12,7 C 13,3 C 4,8 km/h (1 Bft) 95,74 %
14.08.2019 04:22 13,3 C 21,7 C 13,9 C 97 % 1017,6 hPa 0,0 l/m 3,9 km/h (1 Bft) W 275 0 min 0,000 mm 0,0 UV-I 0 W/m 12,8 C 13,3 C 4,8 km/h (1 Bft) 95,74 %
14.08.2019 04:24 13,3 C 21,7 C 13,9 C 97 % 1017,6 hPa 0,0 l/m 5,0 km/h (1 Bft) W-SW 257 0 min 0,000 mm 0,0 UV-I 0 W/m 12,8 C 13,3 C 6,4 km/h (2 Bft) 97,87 %
14.08.2019 04:26 13,3 C 21,7 C 13,9 C 97 % 1017,6 hPa 0,0 l/m 4,5 km/h (1 Bft) W-SW 257 0 min 0,000 mm 0,0 UV-I 0 W/m 12,8 C 13,3 C 6,4 km/h (2 Bft) 97,87 %
14.08.2019 04:28 13,3 C 21,7 C 13,9 C 97 % 1017,6 hPa 0,2 l/m 4,4 km/h (1 Bft) W-SW 250 0 min 0,000 mm 0,0 UV-I 0 W/m 12,8 C 13,3 C 6,4 km/h (2 Bft) 98,00 %
14.08.2019 04:30 13,3 C 21,7 C 13,9 C 96 % 1017,6 hPa 0,0 l/m 4,2 km/h (1 Bft) W 263 0 min 0,000 mm 0,0 UV-I 0 W/m 12,7 C 13,3 C 6,4 km/h (2 Bft) 97,92 %
14.08.2019 04:32 13,3 C 21,7 C 13,9 C 97 % 1017,6 hPa 0,2 l/m 3,5 km/h (1 Bft) W-SW 243 0 min 0,000 mm 0,0 UV-I 0 W/m 12,8 C 13,3 C 4,8 km/h (1 Bft) 97,87 %
14.08.2019 04:34 13,3 C 21,7 C 13,9 C 97 % 1017,6 hPa 0,2 l/m 2,6 km/h (1 Bft) W-SW 242 0 min 0,000 mm 0,0 UV-I 0 W/m 12,8 C 13,3 C 3,2 km/h (1 Bft) 97,87 %
14.08.2019 04:36 13,3 C 21,7 C 13,9 C 97 % 1017,6 hPa 0,2 l/m 2,6 km/h (1 Bft) W-SW 242 0 min 0,000 mm 0,0 UV-I 0 W/m 12,8 C 13,3 C 4,8 km/h (1 Bft) 97,87 %
14.08.2019 04:38 13,2 C 21,7 C 13,9 C 97 % 1017,5 hPa 0,2 l/m 3,5 km/h (1 Bft) W-SW 242 0 min 0,000 mm 0,0 UV-I 0 W/m 12,7 C 13,2 C 6,4 km/h (2 Bft) 94,00 %
14.08.2019 04:40 13,3 C 21,7 C 13,9 C 97 % 1017,6 hPa 0,0 l/m 3,8 km/h (1 Bft) W-SW 242 0 min 0,000 mm 0,0 UV-I 0 W/m 12,8 C 13,3 C 6,4 km/h (2 Bft) 93,62 %
14.08.2019 04:42 13,3 C 21,7 C 13,9 C 97 % 1017,6 hPa 0,2 l/m 4,1 km/h (1 Bft) W-SW 244 0 min 0,000 mm 0,0 UV-I 0 W/m 12,8 C 13,3 C 6,4 km/h (2 Bft) 97,87 %
14.08.2019 04:44 13,3 C 21,7 C 13,9 C 97 % 1017,6 hPa 0,0 l/m 4,9 km/h (1 Bft) W-SW 240 0 min 0,000 mm 0,0 UV-I 0 W/m 12,8 C 13,3 C 8,0 km/h (2 Bft) 100,00 %
14.08.2019 04:46 13,3 C 21,7 C 13,9 C 97 % 1017,6 hPa 0,0 l/m 4,7 km/h (1 Bft) W-SW 254 0 min 0,000 mm 0,0 UV-I 0 W/m 12,8 C 13,3 C 8,0 km/h (2 Bft) 100,00 %
14.08.2019 04:48 13,3 C 21,7 C 13,9 C 97 % 1017,6 hPa 0,0 l/m 4,1 km/h (1 Bft) W-SW 240 0 min 0,000 mm 0,0 UV-I 0 W/m 12,8 C 13,3 C 4,8 km/h (1 Bft) 97,87 %
14.08.2019 04:50 13,3 C 21,7 C 13,9 C 97 % 1017,5 hPa 0,0 l/m 4,4 km/h (1 Bft) W-SW 240 0 min 0,000 mm 0,0 UV-I 0 W/m 12,8 C 13,3 C 6,4 km/h (2 Bft) 97,87 %
14.08.2019 04:52 13,3 C 21,7 C 13,9 C 97 % 1017,5 hPa 0,0 l/m 4,8 km/h (1 Bft) W-SW 246 0 min 0,000 mm 0,0 UV-I 0 W/m 12,8 C 13,3 C 6,4 km/h (2 Bft) 100,00 %
14.08.2019 04:54 13,3 C 21,7 C 13,9 C 97 % 1017,5 hPa 0,0 l/m 4,2 km/h (1 Bft) SW 231 0 min 0,000 mm 0,0 UV-I 0 W/m 12,8 C 13,3 C 8,0 km/h (2 Bft) 97,14 %
14.08.2019 04:56 13,3 C 21,7 C 13,9 C 97 % 1017,4 hPa 0,0 l/m 4,5 km/h (1 Bft) W-SW 242 0 min 0,000 mm 0,0 UV-I 0 W/m 12,8 C 13,3 C 6,4 km/h (2 Bft) 98,00 %
14.08.2019 04:58 13,3 C 21,7 C 13,9 C 97 % 1017,4 hPa 0,0 l/m 4,2 km/h (1 Bft) W-SW 238 0 min 0,000 mm 0,0 UV-I 0 W/m 12,8 C 13,3 C 6,4 km/h (2 Bft) 100,00 %
14.08.2019 05:00 13,3 C 21,7 C 13,9 C 97 % 1017,5 hPa 0,0 l/m 4,3 km/h (1 Bft) W-SW 238 0 min 0,000 mm 0,0 UV-I 0 W/m 12,8 C 13,3 C 6,4 km/h (2 Bft) 100,00 %
14.08.2019 05:02 13,3 C 21,7 C 13,9 C 97 % 1017,5 hPa 0,0 l/m 3,6 km/h (1 Bft) W-SW 238 0 min 0,000 mm 0,0 UV-I 0 W/m 12,8 C 13,3 C 6,4 km/h (2 Bft) 100,00 %
14.08.2019 05:04 13,3 C 21,7 C 13,9 C 97 % 1017,5 hPa 0,0 l/m 4,0 km/h (1 Bft) W-SW 241 0 min 0,000 mm 0,0 UV-I 0 W/m 12,8 C 13,3 C 6,4 km/h (2 Bft) 96,00 %
14.08.2019 05:06 13,3 C 21,7 C 13,9 C 97 % 1017,5 hPa 0,0 l/m 3,4 km/h (1 Bft) W-SW 241 0 min 0,000 mm 0,0 UV-I 0 W/m 12,8 C 13,3 C 6,4 km/h (2 Bft) 95,74 %
14.08.2019 05:08 13,3 C 21,7 C 13,9 C 97 % 1017,5 hPa 0,0 l/m 4,1 km/h (1 Bft) W-SW 241 0 min 0,000 mm 0,0 UV-I 0 W/m 12,8 C 13,3 C 6,4 km/h (2 Bft) 95,83 %
14.08.2019 05:10 13,3 C 21,7 C 13,9 C 97 % 1017,5 hPa 0,0 l/m 3,3 km/h (1 Bft) W-SW 242 0 min 0,000 mm 0,0 UV-I 0 W/m 12,8 C 13,3 C 4,8 km/h (1 Bft) 95,74 %
14.08.2019 05:12 13,3 C 21,7 C 13,9 C 97 % 1017,4 hPa 0,0 l/m 4,6 km/h (1 Bft) W-SW 250 0 min 0,000 mm 0,0 UV-I 0 W/m 12,8 C 13,3 C 6,4 km/h (2 Bft) 94,00 %
14.08.2019 05:14 13,3 C 21,7 C 13,9 C 97 % 1017,4 hPa 0,0 l/m 3,7 km/h (1 Bft) W-SW 250 0 min 0,000 mm 0,0 UV-I 0 W/m 12,8 C 13,3 C 6,4 km/h (2 Bft) 93,62 %
14.08.2019 05:16 13,3 C 21,7 C 13,9 C 97 % 1017,4 hPa 0,0 l/m 3,1 km/h (1 Bft) W-SW 253 0 min 0,000 mm 0,0 UV-I 0 W/m 12,8 C 13,3 C 6,4 km/h (2 Bft) 95,74 %
14.08.2019 05:18 13,3 C 21,7 C 13,9 C 97 % 1017,4 hPa 0,0 l/m 3,0 km/h (1 Bft) W-SW 253 0 min 0,000 mm 0,0 UV-I 0 W/m 12,8 C 13,3 C 4,8 km/h (1 Bft) 95,74 %
14.08.2019 05:20 13,3 C 21,7 C 13,9 C 97 % 1017,5 hPa 0,0 l/m 4,1 km/h (1 Bft) W 261 0 min 0,000 mm 0,0 UV-I 0 W/m 12,8 C 13,3 C 6,4 km/h (2 Bft) 93,62 %
14.08.2019 05:22 13,3 C 21,7 C 13,9 C 97 % 1017,4 hPa 0,0 l/m 3,8 km/h (1 Bft) W 261 0 min 0,000 mm 0,0 UV-I 0 W/m 12,8 C 13,3 C 6,4 km/h (2 Bft) 94,29 %
14.08.2019 05:24 13,3 C 21,7 C 13,9 C 97 % 1017,5 hPa 0,0 l/m 1,7 km/h (1 Bft) W 261 0 min 0,000 mm 0,0 UV-I 0 W/m 12,8 C 13,3 C 3,2 km/h (1 Bft) 93,62 %
14.08.2019 05:26 13,3 C 21,7 C 13,9 C 97 % 1017,4 hPa 0,0 l/m 3,0 km/h (1 Bft) W 261 0 min 0,000 mm 0,0 UV-I 0 W/m 12,8 C 13,3 C 4,8 km/h (1 Bft) 95,74 %
14.08.2019 05:28 13,3 C 21,7 C 13,9 C 97 % 1017,4 hPa 0,0 l/m 2,5 km/h (1 Bft) W 261 0 min 0,000 mm 0,0 UV-I 0 W/m 12,8 C 13,3 C 4,8 km/h (1 Bft) 96,00 %
14.08.2019 05:30 13,3 C 21,7 C 13,9 C 96 % 1017,4 hPa 0,0 l/m 2,6 km/h (1 Bft) W 261 0 min 0,000 mm 0,0 UV-I 0 W/m 12,7 C 13,3 C 4,8 km/h (1 Bft) 95,74 %
14.08.2019 05:32 13,3 C 21,7 C 13,9 C 96 % 1017,4 hPa 0,0 l/m 2,5 km/h (1 Bft) W 261 0 min 0,000 mm 0,0 UV-I 0 W/m 12,7 C 13,3 C 4,8 km/h (1 Bft) 98,00 %
14.08.2019 05:34 13,3 C 21,7 C 13,9 C 97 % 1017,5 hPa 0,0 l/m 2,3 km/h (1 Bft) W 261 0 min 0,000 mm 0,0 UV-I 0 W/m 12,8 C 13,3 C 3,2 km/h (1 Bft) 95,74 %
14.08.2019 05:36 13,3 C 21,7 C 13,9 C 97 % 1017,5 hPa 0,0 l/m 2,2 km/h (1 Bft) W 261 0 min 0,000 mm 0,0 UV-I 0 W/m 12,8 C 13,3 C 3,2 km/h (1 Bft) 97,87 %
14.08.2019 05:38 13,3 C 21,7 C 13,9 C 97 % 1017,5 hPa 0,0 l/m 3,6 km/h (1 Bft) W 260 0 min 0,000 mm 0,0 UV-I 0 W/m 12,8 C 13,3 C 4,8 km/h (1 Bft) 98,00 %
14.08.2019 05:40 13,3 C 21,7 C 13,9 C 97 % 1017,6 hPa 0,0 l/m 4,2 km/h (1 Bft) SW 227 0 min 0,000 mm 0,0 UV-I 0 W/m 12,8 C 13,3 C 6,4 km/h (2 Bft) 95,74 %
14.08.2019 05:42 13,3 C 21,7 C 13,9 C 97 % 1017,6 hPa 0,0 l/m 4,4 km/h (1 Bft) SW 225 0 min 0,000 mm 0,0 UV-I 0 W/m 12,8 C 13,3 C 6,4 km/h (2 Bft) 95,74 %
14.08.2019 05:44 13,3 C 21,7 C 13,9 C 97 % 1017,5 hPa 0,0 l/m 3,2 km/h (1 Bft) SW 226 0 min 0,000 mm 0,0 UV-I 0 W/m 12,8 C 13,3 C 4,8 km/h (1 Bft) 97,87 %
14.08.2019 05:46 13,3 C 21,7 C 13,9 C 97 % 1017,5 hPa 0,0 l/m 4,6 km/h (1 Bft) W-SW 239 0 min 0,000 mm 0,0 UV-I 0 W/m 12,8 C 13,3 C 6,4 km/h (2 Bft) 97,87 %
14.08.2019 05:48 13,3 C 21,7 C 13,9 C 97 % 1017,6 hPa 0,0 l/m 3,8 km/h (1 Bft) W-SW 240 0 min 0,000 mm 0,0 UV-I 0 W/m 12,8 C 13,3 C 6,4 km/h (2 Bft) 100,00 %
14.08.2019 05:50 13,3 C 21,7 C 13,9 C 97 % 1017,6 hPa 0,0 l/m 5,6 km/h (1 Bft) W-SW 257 0 min 0,000 mm 0,0 UV-I 0 W/m 12,8 C 13,3 C 9,7 km/h (2 Bft) 97,87 %
14.08.2019 05:52 13,3 C 21,7 C 13,9 C 97 % 1017,6 hPa 0,0 l/m 4,2 km/h (1 Bft) W-SW 238 0 min 0,000 mm 0,0 UV-I 0 W/m 12,8 C 13,3 C 6,4 km/h (2 Bft) 100,00 %
14.08.2019 05:54 13,3 C 21,7 C 13,9 C 97 % 1017,6 hPa 0,0 l/m 4,8 km/h (1 Bft) W-SW 243 0 min 0,000 mm 0,0 UV-I 0 W/m 12,8 C 13,3 C 9,7 km/h (2 Bft) 100,00 %
14.08.2019 05:56 13,2 C 21,7 C 13,9 C 97 % 1017,7 hPa 0,0 l/m 5,2 km/h (1 Bft) W-SW 257 0 min 0,000 mm 0,0 UV-I 0 W/m 12,7 C 13,2 C 9,7 km/h (2 Bft) 97,87 %
14.08.2019 05:58 13,2 C 21,7 C 13,9 C 97 % 1017,7 hPa 0,0 l/m 5,8 km/h (2 Bft) W 267 0 min 0,000 mm 0,0 UV-I 5 W/m 12,7 C 13,2 C 9,7 km/h (2 Bft) 100,00 %
14.08.2019 06:00 13,2 C 21,7 C 13,9 C 96 % 1017,7 hPa 0,0 l/m 4,4 km/h (1 Bft) W-SW 249 0 min 0,000 mm 0,0 UV-I 5 W/m 12,6 C 13,2 C 6,4 km/h (2 Bft) 100,00 %
14.08.2019 06:02 13,1 C 21,7 C 13,9 C 96 % 1017,7 hPa 0,0 l/m 4,7 km/h (1 Bft) W-SW 244 0 min 0,000 mm 0,0 UV-I 5 W/m 12,5 C 13,1 C 8,0 km/h (2 Bft) 95,74 %
14.08.2019 06:04 13,2 C 21,7 C 13,3 C 96 % 1017,7 hPa 0,0 l/m 5,3 km/h (1 Bft) W-SW 258 0 min 0,000 mm 0,0 UV-I 5 W/m 12,6 C 13,2 C 9,7 km/h (2 Bft) 100,00 %
14.08.2019 06:06 13,2 C 21,7 C 13,3 C 96 % 1017,7 hPa 0,0 l/m 5,6 km/h (1 Bft) W-SW 241 0 min 0,000 mm 0,0 UV-I 6 W/m 12,6 C 13,2 C 11,3 km/h (2 Bft) 100,00 %
14.08.2019 06:08 13,2 C 21,7 C 13,3 C 96 % 1017,7 hPa 0,0 l/m 5,1 km/h (1 Bft) W 265 0 min 0,000 mm 0,0 UV-I 7 W/m 12,6 C 13,2 C 6,4 km/h (2 Bft) 100,00 %
14.08.2019 06:10 13,2 C 21,7 C 13,3 C 96 % 1017,7 hPa 0,0 l/m 4,9 km/h (1 Bft) SW 235 0 min 0,000 mm 0,0 UV-I 7 W/m 12,6 C 13,2 C 6,4 km/h (2 Bft) 97,87 %
14.08.2019 06:12 13,1 C 21,7 C 13,3 C 96 % 1017,6 hPa 0,0 l/m 5,4 km/h (1 Bft) W-SW 257 0 min 0,000 mm 0,0 UV-I 7 W/m 12,5 C 13,1 C 9,7 km/h (2 Bft) 100,00 %
14.08.2019 06:14 13,1 C 21,7 C 13,3 C 96 % 1017,6 hPa 0,0 l/m 6,6 km/h (2 Bft) W 276 0 min 0,000 mm 0,0 UV-I 7 W/m 12,5 C 13,0 C 9,7 km/h (2 Bft) 100,00 %
14.08.2019 06:16 13,1 C 21,7 C 13,3 C 96 % 1017,7 hPa 0,0 l/m 6,8 km/h (2 Bft) W 259 0 min 0,000 mm 0,0 UV-I 7 W/m 12,5 C 12,9 C 12,9 km/h (3 Bft) 100,00 %
14.08.2019 06:18 13,1 C 21,7 C 13,3 C 96 % 1017,8 hPa 0,0 l/m 7,3 km/h (2 Bft) W-SW 246 0 min 0,000 mm 0,0 UV-I 5 W/m 12,5 C 12,5 C 12,9 km/h (3 Bft) 100,00 %
14.08.2019 06:20 13,2 C 21,7 C 13,3 C 96 % 1017,8 hPa 0,0 l/m 6,0 km/h (2 Bft) W 275 0 min 0,000 mm 0,0 UV-I 5 W/m 12,6 C 13,2 C 9,7 km/h (2 Bft) 100,00 %
14.08.2019 06:22 13,2 C 21,7 C 13,9 C 96 % 1017,8 hPa 0,0 l/m 7,4 km/h (2 Bft) W-NW 284 0 min 0,000 mm 0,0 UV-I 5 W/m 12,6 C 12,6 C 11,3 km/h (2 Bft) 98,00 %
14.08.2019 06:24 13,2 C 21,7 C 13,3 C 96 % 1017,8 hPa 0,0 l/m 6,7 km/h (2 Bft) W-SW 250 0 min 0,000 mm 0,0 UV-I 7 W/m 12,6 C 13,0 C 12,9 km/h (3 Bft) 100,00 %
14.08.2019 06:26 13,2 C 21,7 C 13,3 C 96 % 1017,9 hPa 0,0 l/m 6,2 km/h (2 Bft) W 275 0 min 0,000 mm 0,0 UV-I 7 W/m 12,6 C 13,2 C 9,7 km/h (2 Bft) 100,00 %
14.08.2019 06:28 13,2 C 21,7 C 13,9 C 96 % 1017,8 hPa 0,0 l/m 6,7 km/h (2 Bft) W-SW 253 0 min 0,000 mm 0,0 UV-I 7 W/m 12,6 C 13,0 C 11,3 km/h (2 Bft) 97,22 %
14.08.2019 06:30 13,2 C 21,7 C 13,9 C 96 % 1017,8 hPa 0,0 l/m 6,0 km/h (2 Bft) W-NW 298 0 min 0,000 mm 0,0 UV-I 9 W/m 12,6 C 13,2 C 11,3 km/h (2 Bft) 98,04 %
14.08.2019 06:32 13,2 C 21,7 C 13,9 C 96 % 1017,9 hPa 0,0 l/m 6,0 km/h (2 Bft) W-NW 294 0 min 0,000 mm 0,0 UV-I 9 W/m 12,6 C 13,2 C 11,3 km/h (2 Bft) 95,74 %
14.08.2019 06:34 13,2 C 21,7 C 13,9 C 96 % 1017,8 hPa 0,0 l/m 5,9 km/h (2 Bft) W 270 0 min 0,000 mm 0,0 UV-I 11 W/m 12,6 C 13,2 C 11,3 km/h (2 Bft) 97,87 %
14.08.2019 06:36 13,2 C 21,7 C 13,9 C 96 % 1017,8 hPa 0,0 l/m 4,9 km/h (1 Bft) W 261 0 min 0,000 mm 0,0 UV-I 14 W/m 12,6 C 13,2 C 6,4 km/h (2 Bft) 98,00 %
14.08.2019 06:38 13,2 C 21,7 C 13,9 C 96 % 1017,8 hPa 0,0 l/m 4,6 km/h (1 Bft) W 265 0 min 0,000 mm 0,0 UV-I 18 W/m 12,6 C 13,2 C 6,4 km/h (2 Bft) 97,87 %
14.08.2019 06:40 13,2 C 21,7 C 13,9 C 96 % 1017,8 hPa 0,0 l/m 8,1 km/h (2 Bft) W-SW 256 0 min 0,000 mm 0,0 UV-I 21 W/m 12,6 C 12,2 C 12,9 km/h (3 Bft) 95,74 %
14.08.2019 06:42 13,2 C 21,7 C 13,9 C 96 % 1017,8 hPa 0,0 l/m 6,3 km/h (2 Bft) W-SW 250 0 min 0,000 mm 0,0 UV-I 25 W/m 12,6 C 13,2 C 9,7 km/h (2 Bft) 95,74 %
14.08.2019 06:44 13,2 C 21,7 C 13,9 C 96 % 1017,8 hPa 0,0 l/m 8,0 km/h (2 Bft) W-SW 238 0 min 0,000 mm 0,0 UV-I 27 W/m 12,6 C 12,2 C 12,9 km/h (3 Bft) 97,87 %
14.08.2019 06:46 13,2 C 21,7 C 13,9 C 96 % 1018,0 hPa 0,0 l/m 6,2 km/h (2 Bft) W-SW 242 0 min 0,000 mm 0,0 UV-I 28 W/m 12,6 C 13,2 C 9,7 km/h (2 Bft) 97,56 %
14.08.2019 06:48 13,2 C 21,7 C 13,9 C 96 % 1018,0 hPa 0,0 l/m 7,2 km/h (2 Bft) SW 236 0 min 0,000 mm 0,0 UV-I 29 W/m 12,6 C 12,7 C 12,9 km/h (3 Bft) 95,74 %
14.08.2019 06:50 13,2 C 21,7 C 13,9 C 96 % 1018,0 hPa 0,0 l/m 8,3 km/h (2 Bft) W-SW 245 0 min 0,000 mm 0,0 UV-I 34 W/m 12,6 C 12,0 C 12,9 km/h (3 Bft) 98,00 %
14.08.2019 06:52 13,3 C 21,7 C 13,9 C 96 % 1018,0 hPa 0,0 l/m 8,9 km/h (2 Bft) W 266 0 min 0,000 mm 0,0 UV-I 40 W/m 12,7 C 11,8 C 16,1 km/h (3 Bft) 100,00 %
14.08.2019 06:54 13,3 C 21,7 C 13,9 C 96 % 1017,9 hPa 0,0 l/m 7,8 km/h (2 Bft) W 261 0 min 0,000 mm 0,0 UV-I 46 W/m 12,7 C 12,4 C 12,9 km/h (3 Bft) 100,00 %
14.08.2019 06:56 13,3 C 21,7 C 13,9 C 96 % 1017,9 hPa 0,0 l/m 7,0 km/h (2 Bft) W 272 0 min 0,000 mm 0,0 UV-I 49 W/m 12,7 C 12,9 C 12,9 km/h (3 Bft) 100,00 %
14.08.2019 06:58 13,3 C 21,7 C 13,9 C 96 % 1017,9 hPa 0,0 l/m 8,1 km/h (2 Bft) W-SW 238 0 min 0,000 mm 0,0 UV-I 53 W/m 12,7 C 12,3 C 14,5 km/h (3 Bft) 98,00 %
14.08.2019 07:00 13,3 C 21,7 C 13,9 C 96 % 1018,0 hPa 0,0 l/m 8,9 km/h (2 Bft) W-SW 240 0 min 0,000 mm 0,0 UV-I 55 W/m 12,7 C 11,8 C 14,5 km/h (3 Bft) 97,87 %
14.08.2019 07:02 13,4 C 21,7 C 13,9 C 95 % 1018,0 hPa 0,0 l/m 7,3 km/h (2 Bft) SW 232 0 min 0,000 mm 0,0 UV-I 58 W/m 12,6 C 12,8 C 12,9 km/h (3 Bft) 95,74 %
14.08.2019 07:04 13,4 C 21,7 C 13,9 C 95 % 1018,1 hPa 0,0 l/m 9,6 km/h (2 Bft) W 263 0 min 0,000 mm 0,0 UV-I 60 W/m 12,6 C 11,6 C 14,5 km/h (3 Bft) 100,00 %
14.08.2019 07:06 13,4 C 21,7 C 13,9 C 95 % 1018,1 hPa 0,0 l/m 9,0 km/h (2 Bft) SW 235 0 min 0,000 mm 0,0 UV-I 61 W/m 12,6 C 11,9 C 12,9 km/h (3 Bft) 100,00 %
14.08.2019 07:08 13,4 C 21,7 C 13,9 C 95 % 1018,1 hPa 0,0 l/m 7,2 km/h (2 Bft) W 265 0 min 0,000 mm 0,0 UV-I 63 W/m 12,6 C 12,9 C 14,5 km/h (3 Bft) 97,87 %
14.08.2019 07:10 13,4 C 21,7 C 14,4 C 95 % 1018,1 hPa 0,0 l/m 8,8 km/h (2 Bft) SW 228 0 min 0,000 mm 0,0 UV-I 65 W/m 12,6 C 12,0 C 14,5 km/h (3 Bft) 100,00 %
14.08.2019 07:12 13,5 C 21,7 C 14,4 C 95 % 1018,2 hPa 0,0 l/m 8,4 km/h (2 Bft) W 263 0 min 0,000 mm 0,0 UV-I 65 W/m 12,7 C 12,3 C 12,9 km/h (3 Bft) 94,00 %
14.08.2019 07:14 13,6 C 21,7 C 14,4 C 95 % 1018,1 hPa 0,0 l/m 8,3 km/h (2 Bft) W-SW 238 0 min 0,000 mm 0,0 UV-I 66 W/m 12,8 C 12,5 C 14,5 km/h (3 Bft) 98,00 %
14.08.2019 07:16 13,6 C 21,7 C 14,4 C 95 % 1018,0 hPa 0,0 l/m 8,8 km/h (2 Bft) W-SW 250 0 min 0,000 mm 0,0 UV-I 70 W/m 12,8 C 12,2 C 14,5 km/h (3 Bft) 97,87 %
14.08.2019 07:18 13,6 C 21,7 C 14,4 C 95 % 1018,1 hPa 0,0 l/m 8,6 km/h (2 Bft) W-SW 246 0 min 0,000 mm 0,0 UV-I 73 W/m 12,8 C 12,3 C 12,9 km/h (3 Bft) 97,87 %
14.08.2019 07:20 13,6 C 21,7 C 14,4 C 95 % 1018,1 hPa 0,0 l/m 8,1 km/h (2 Bft) W-SW 246 0 min 0,000 mm 0,0 UV-I 71 W/m 12,8 C 12,6 C 12,9 km/h (3 Bft) 95,74 %
14.08.2019 07:22 13,6 C 21,7 C 14,4 C 95 % 1018,1 hPa 0,0 l/m 10,1 km/h (2 Bft) W-SW 252 0 min 0,000 mm 0,0 UV-I 69 W/m 12,8 C 11,5 C 16,1 km/h (3 Bft) 94,00 %
14.08.2019 07:24 13,7 C 21,7 C 14,4 C 95 % 1018,1 hPa 0,0 l/m 7,8 km/h (2 Bft) SW 234 0 min 0,000 mm 0,0 UV-I 68 W/m 12,9 C 12,9 C 14,5 km/h (3 Bft) 95,74 %
14.08.2019 07:26 13,7 C 21,7 C 14,4 C 95 % 1018,1 hPa 0,0 l/m 8,1 km/h (2 Bft) SW 234 0 min 0,000 mm 0,0 UV-I 65 W/m 12,9 C 12,7 C 14,5 km/h (3 Bft) 91,49 %
14.08.2019 07:28 13,7 C 21,7 C 14,4 C 95 % 1018,1 hPa 0,0 l/m 9,9 km/h (2 Bft) SW 229 0 min 0,000 mm 0,0 UV-I 68 W/m 12,9 C 11,7 C 14,5 km/h (3 Bft) 93,62 %
14.08.2019 07:30 13,7 C 21,7 C 14,4 C 95 % 1018,1 hPa 0,0 l/m 10,0 km/h (2 Bft) W-SW 237 0 min 0,000 mm 0,0 UV-I 71 W/m 12,9 C 11,7 C 14,5 km/h (3 Bft) 95,74 %
14.08.2019 07:32 13,7 C 21,7 C 14,4 C 95 % 1018,1 hPa 0,0 l/m 9,7 km/h (2 Bft) SW 233 0 min 0,000 mm 0,0 UV-I 74 W/m 12,9 C 11,8 C 14,5 km/h (3 Bft) 95,74 %
14.08.2019 07:34 13,7 C 21,7 C 14,4 C 95 % 1018,0 hPa 0,0 l/m 8,3 km/h (2 Bft) W-SW 242 0 min 0,000 mm 0,0 UV-I 78 W/m 12,9 C 12,6 C 12,9 km/h (3 Bft) 93,62 %
14.08.2019 07:36 13,7 C 21,7 C 14,4 C 95 % 1018,0 hPa 0,0 l/m 9,1 km/h (2 Bft) W-SW 251 0 min 0,000 mm 0,0 UV-I 81 W/m 12,9 C 12,1 C 14,5 km/h (3 Bft) 94,87 %
14.08.2019 07:38 13,7 C 21,7 C 14,4 C 95 % 1018,0 hPa 0,0 l/m 9,7 km/h (2 Bft) W 261 0 min 0,000 mm 0,0 UV-I 84 W/m 12,9 C 11,8 C 16,1 km/h (3 Bft) 95,65 %
14.08.2019 07:40 13,7 C 21,7 C 14,4 C 95 % 1018,0 hPa 0,0 l/m 9,3 km/h (2 Bft) W-SW 242 0 min 0,000 mm 0,0 UV-I 89 W/m 12,9 C 12,0 C 14,5 km/h (3 Bft) 93,75 %
14.08.2019 07:42 13,7 C 21,7 C 14,4 C 95 % 1018,0 hPa 0,0 l/m 10,0 km/h (2 Bft) W 279 0 min 0,000 mm 0,0 UV-I 93 W/m 12,9 C 11,7 C 14,5 km/h (3 Bft) 93,62 %
14.08.2019 07:44 13,7 C 21,7 C 14,4 C 95 % 1017,9 hPa 0,0 l/m 7,9 km/h (2 Bft) W-SW 238 0 min 0,000 mm 0,0 UV-I 99 W/m 12,9 C 12,8 C 16,1 km/h (3 Bft) 95,74 %
14.08.2019 07:46 13,8 C 21,7 C 14,4 C 95 % 1017,9 hPa 0,0 l/m 8,2 km/h (2 Bft) W-SW 258 0 min 0,000 mm 0,0 UV-I 106 W/m 13,0 C 12,7 C 11,3 km/h (2 Bft) 97,87 %
14.08.2019 07:48 13,8 C 21,7 C 14,4 C 95 % 1018,0 hPa 0,0 l/m 11,7 km/h (2 Bft) W-SW 252 0 min 0,000 mm 0,0 UV-I 116 W/m 13,0 C 11,0 C 16,1 km/h (3 Bft) 95,74 %
14.08.2019 07:50 13,8 C 21,7 C 15,0 C 95 % 1018,1 hPa 0,0 l/m 10,4 km/h (2 Bft) W-SW 254 0 min 0,000 mm 0,0 UV-I 128 W/m 13,0 C 11,6 C 16,1 km/h (3 Bft) 96,00 %
14.08.2019 07:52 13,8 C 21,7 C 15,0 C 95 % 1018,0 hPa 0,0 l/m 7,1 km/h (2 Bft) W-SW 246 0 min 0,000 mm 0,0 UV-I 145 W/m 13,0 C 13,4 C 12,9 km/h (3 Bft) 97,87 %
14.08.2019 07:54 13,8 C 21,7 C 15,6 C 95 % 1018,0 hPa 0,0 l/m 6,7 km/h (2 Bft) W-SW 247 0 min 0,000 mm 0,0 UV-I 158 W/m 13,0 C 13,6 C 14,5 km/h (3 Bft) 96,00 %
14.08.2019 07:56 13,9 C 21,7 C 15,6 C 95 % 1018,1 hPa 0,0 l/m 5,2 km/h (1 Bft) W-SW 237 0 min 0,000 mm 0,0 UV-I 171 W/m 13,1 C 13,9 C 8,0 km/h (2 Bft) 93,62 %
14.08.2019 07:58 14,0 C 21,7 C 16,1 C 95 % 1018,2 hPa 0,0 l/m 6,5 km/h (2 Bft) W 265 2 min 0,000 mm 0,0 UV-I 178 W/m 13,2 C 14,0 C 9,7 km/h (2 Bft) 95,74 %
14.08.2019 08:00 14,1 C 21,7 C 16,1 C 94 % 1018,2 hPa 0,0 l/m 5,3 km/h (1 Bft) SW 227 0 min 0,051 mm 0,0 UV-I 171 W/m 13,1 C 14,1 C 8,0 km/h (2 Bft) 93,62 %
14.08.2019 08:02 14,2 C 21,7 C 16,1 C 95 % 1018,3 hPa 0,0 l/m 9,0 km/h (2 Bft) W-SW 244 0 min 0,000 mm 0,0 UV-I 158 W/m 13,4 C 12,7 C 14,5 km/h (3 Bft) 97,14 %
14.08.2019 08:04 14,2 C 21,7 C 15,6 C 94 % 1018,2 hPa 0,0 l/m 8,7 km/h (2 Bft) W-SW 255 0 min 0,000 mm 0,0 UV-I 153 W/m 13,2 C 12,9 C 12,9 km/h (3 Bft) 93,22 %
14.08.2019 08:06 14,2 C 21,7 C 15,6 C 94 % 1018,2 hPa 0,0 l/m 8,4 km/h (2 Bft) SW 228 0 min 0,000 mm 0,0 UV-I 154 W/m 13,2 C 13,0 C 12,9 km/h (3 Bft) 92,11 %
14.08.2019 08:08 14,2 C 21,7 C 15,6 C 94 % 1018,2 hPa 0,0 l/m 10,6 km/h (2 Bft) W-SW 237 0 min 0,000 mm 0,0 UV-I 154 W/m 13,2 C 12,0 C 17,7 km/h (3 Bft) 93,62 %
14.08.2019 08:10 14,2 C 21,7 C 15,6 C 94 % 1018,3 hPa 0,0 l/m 10,1 km/h (2 Bft) SW 232 0 min 0,000 mm 0,0 UV-I 145 W/m 13,2 C 12,2 C 14,5 km/h (3 Bft) 95,74 %
14.08.2019 08:12 14,2 C 21,7 C 15,0 C 94 % 1018,2 hPa 0,0 l/m 6,8 km/h (2 Bft) W-SW 244 0 min 0,000 mm 0,0 UV-I 135 W/m 13,2 C 14,0 C 9,7 km/h (2 Bft) 93,62 %
14.08.2019 08:14 14,2 C 21,7 C 15,6 C 94 % 1018,3 hPa 0,0 l/m 6,6 km/h (2 Bft) W-NW 283 0 min 0,000 mm 0,0 UV-I 129 W/m 13,2 C 14,1 C 11,3 km/h (2 Bft) 91,49 %
14.08.2019 08:16 14,2 C 21,7 C 15,6 C 93 % 1018,3 hPa 0,0 l/m 6,2 km/h (2 Bft) W-SW 254 0 min 0,000 mm 0,0 UV-I 123 W/m 13,1 C 14,2 C 9,7 km/h (2 Bft) 95,74 %
14.08.2019 08:18 14,2 C 21,7 C 15,6 C 94 % 1018,3 hPa 0,0 l/m 6,3 km/h (2 Bft) NW 304 0 min 0,000 mm 0,0 UV-I 121 W/m 13,2 C 14,2 C 12,9 km/h (3 Bft) 95,74 %
14.08.2019 08:20 14,2 C 21,7 C 15,6 C 93 % 1018,3 hPa 0,0 l/m 5,0 km/h (1 Bft) W 270 0 min 0,000 mm 0,0 UV-I 124 W/m 13,1 C 14,2 C 12,9 km/h (3 Bft) 95,83 %
14.08.2019 08:22 14,2 C 21,7 C 15,6 C 93 % 1018,3 hPa 0,0 l/m 5,2 km/h (1 Bft) W 266 0 min 0,000 mm 0,0 UV-I 126 W/m 13,1 C 14,2 C 9,7 km/h (2 Bft) 97,87 %
14.08.2019 08:24 14,3 C 21,7 C 15,6 C 94 % 1018,3 hPa 0,0 l/m 9,6 km/h (2 Bft) W 278 0 min 0,000 mm 0,0 UV-I 119 W/m 13,3 C 12,5 C 14,5 km/h (3 Bft) 97,87 %
14.08.2019 08:26 14,3 C 21,7 C 15,6 C 93 % 1018,3 hPa 0,0 l/m 5,4 km/h (1 Bft) W-SW 252 0 min 0,000 mm 0,0 UV-I 122 W/m 13,2 C 14,3 C 9,7 km/h (2 Bft) 97,87 %
14.08.2019 08:28 14,3 C 21,7 C 15,6 C 93 % 1018,4 hPa 0,0 l/m 5,4 km/h (1 Bft) W 262 0 min 0,000 mm 0,2 UV-I 126 W/m 13,2 C 14,3 C 11,3 km/h (2 Bft) 100,00 %
14.08.2019 08:30 14,3 C 21,7 C 15,6 C 93 % 1018,4 hPa 0,0 l/m 5,8 km/h (2 Bft) W 279 0 min 0,000 mm 0,5 UV-I 134 W/m 13,2 C 14,3 C 11,3 km/h (2 Bft) 97,87 %
14.08.2019 08:32 14,3 C 21,7 C 15,6 C 93 % 1018,4 hPa 0,0 l/m 7,3 km/h (2 Bft) W 278 0 min 0,000 mm 0,5 UV-I 133 W/m 13,2 C 13,8 C 16,1 km/h (3 Bft) 100,00 %
14.08.2019 08:34 14,3 C 21,7 C 15,6 C 93 % 1018,3 hPa 0,0 l/m 9,4 km/h (2 Bft) W-SW 238 0 min 0,000 mm 0,5 UV-I 145 W/m 13,2 C 12,6 C 14,5 km/h (3 Bft) 100,00 %
14.08.2019 08:36 14,3 C 21,7 C 15,6 C 93 % 1018,3 hPa 0,0 l/m 8,8 km/h (2 Bft) SW 223 0 min 0,000 mm 0,6 UV-I 170 W/m 13,2 C 12,9 C 12,9 km/h (3 Bft) 98,00 %
14.08.2019 08:38 14,3 C 21,7 C 16,1 C 93 % 1018,3 hPa 0,0 l/m 6,5 km/h (2 Bft) SW 232 0 min 0,000 mm 0,6 UV-I 186 W/m 13,2 C 14,3 C 9,7 km/h (2 Bft) 98,00 %
14.08.2019 08:40 14,5 C 21,7 C 16,7 C 93 % 1018,4 hPa 0,0 l/m 5,4 km/h (1 Bft) W-NW 284 0 min 0,000 mm 0,6 UV-I 189 W/m 13,4 C 14,5 C 6,4 km/h (2 Bft) 100,00 %
14.08.2019 08:42 14,5 C 21,7 C 16,1 C 93 % 1018,4 hPa 0,0 l/m 6,5 km/h (2 Bft) W-NW 288 0 min 0,000 mm 0,6 UV-I 194 W/m 13,4 C 14,5 C 9,7 km/h (2 Bft) 97,87 %
14.08.2019 08:44 14,6 C 21,7 C 16,7 C 93 % 1018,4 hPa 0,0 l/m 4,5 km/h (1 Bft) W-SW 252 0 min 0,000 mm 0,6 UV-I 202 W/m 13,5 C 14,6 C 8,0 km/h (2 Bft) 97,87 %
14.08.2019 08:46 14,7 C 21,7 C 16,7 C 93 % 1018,4 hPa 0,0 l/m 5,6 km/h (1 Bft) W 260 0 min 0,000 mm 0,6 UV-I 209 W/m 13,6 C 14,7 C 11,3 km/h (2 Bft) 94,74 %
14.08.2019 08:48 14,7 C 21,7 C 16,7 C 93 % 1018,5 hPa 0,0 l/m 6,0 km/h (2 Bft) W-SW 238 0 min 0,000 mm 0,7 UV-I 214 W/m 13,6 C 14,7 C 12,9 km/h (3 Bft) 100,00 %
14.08.2019 08:50 14,7 C 21,7 C 16,7 C 93 % 1018,4 hPa 0,0 l/m 10,3 km/h (2 Bft) W 276 0 min 0,000 mm 0,7 UV-I 216 W/m 13,6 C 12,6 C 16,1 km/h (3 Bft) 96,15 %
14.08.2019 08:52 14,7 C 21,7 C 16,7 C 92 % 1018,5 hPa 0,0 l/m 6,2 km/h (2 Bft) SW 235 0 min 0,000 mm 0,7 UV-I 211 W/m 13,4 C 14,7 C 9,7 km/h (2 Bft) 100,00 %
14.08.2019 08:54 14,7 C 21,7 C 16,7 C 92 % 1018,5 hPa 0,0 l/m 7,9 km/h (2 Bft) W 260 0 min 0,000 mm 0,7 UV-I 207 W/m 13,4 C 13,8 C 14,5 km/h (3 Bft) 100,00 %
14.08.2019 08:56 14,7 C 21,7 C 16,7 C 92 % 1018,5 hPa 0,0 l/m 4,7 km/h (1 Bft) W-SW 238 0 min 0,000 mm 0,7 UV-I 208 W/m 13,4 C 14,7 C 8,0 km/h (2 Bft) 100,00 %
14.08.2019 08:58 14,8 C 21,7 C 16,7 C 92 % 1018,5 hPa 0,0 l/m 6,9 km/h (2 Bft) W-SW 252 0 min 0,000 mm 0,7 UV-I 212 W/m 13,5 C 14,5 C 12,9 km/h (3 Bft) 98,00 %
14.08.2019 09:00 14,8 C 21,7 C 16,7 C 92 % 1018,5 hPa 0,0 l/m 9,8 km/h (2 Bft) W-SW 241 0 min 0,101 mm 0,8 UV-I 218 W/m 13,5 C 13,0 C 14,5 km/h (3 Bft) 97,87 %
14.08.2019 09:02 14,8 C 21,7 C 16,7 C 91 % 1018,6 hPa 0,0 l/m 9,6 km/h (2 Bft) W 273 0 min 0,000 mm 0,8 UV-I 227 W/m 13,3 C 13,1 C 14,5 km/h (3 Bft) 100,00 %
14.08.2019 09:04 14,8 C 21,7 C 16,7 C 91 % 1018,6 hPa 0,0 l/m 8,6 km/h (2 Bft) W-SW 252 0 min 0,000 mm 0,8 UV-I 233 W/m 13,3 C 13,6 C 14,5 km/h (3 Bft) 100,00 %
14.08.2019 09:06 14,8 C 21,7 C 16,7 C 91 % 1018,5 hPa 0,0 l/m 13,2 km/h (3 Bft) SW 229 0 min 0,000 mm 0,9 UV-I 237 W/m 13,3 C 11,6 C 19,3 km/h (3 Bft) 97,87 %
14.08.2019 09:08 14,8 C 21,7 C 16,7 C 91 % 1018,5 hPa 0,0 l/m 10,1 km/h (2 Bft) W-SW 240 0 min 0,000 mm 0,9 UV-I 241 W/m 13,3 C 12,9 C 17,7 km/h (3 Bft) 100,00 %
14.08.2019 09:10 14,8 C 21,7 C 16,7 C 91 % 1018,5 hPa 0,0 l/m 9,0 km/h (2 Bft) W-SW 238 0 min 0,000 mm 0,9 UV-I 244 W/m 13,3 C 13,4 C 12,9 km/h (3 Bft) 97,87 %
14.08.2019 09:12 14,8 C 21,7 C 16,7 C 91 % 1018,5 hPa 0,0 l/m 9,1 km/h (2 Bft) W-SW 250 0 min 0,000 mm 1,0 UV-I 246 W/m 13,3 C 13,3 C 12,9 km/h (3 Bft) 95,74 %
14.08.2019 09:14 14,9 C 21,7 C 16,7 C 91 % 1018,5 hPa 0,0 l/m 8,4 km/h (2 Bft) W-SW 248 0 min 0,000 mm 0,9 UV-I 239 W/m 13,4 C 13,8 C 11,3 km/h (2 Bft) 97,87 %
14.08.2019 09:16 14,9 C 21,7 C 16,7 C 91 % 1018,5 hPa 0,0 l/m 7,8 km/h (2 Bft) W 260 0 min 0,000 mm 0,9 UV-I 224 W/m 13,4 C 14,1 C 12,9 km/h (3 Bft) 98,00 %
14.08.2019 09:18 15,0 C 21,7 C 16,7 C 91 % 1018,5 hPa 0,0 l/m 8,5 km/h (2 Bft) W-SW 246 0 min 0,000 mm 0,9 UV-I 204 W/m 13,5 C 13,8 C 14,5 km/h (3 Bft) 97,87 %
14.08.2019 09:20 15,0 C 21,7 C 16,7 C 91 % 1018,5 hPa 0,0 l/m 8,0 km/h (2 Bft) W-NW 290 0 min 0,000 mm 1,0 UV-I 211 W/m 13,5 C 14,1 C 11,3 km/h (2 Bft) 97,87 %
14.08.2019 09:22 15,0 C 21,7 C 16,7 C 91 % 1018,5 hPa 0,0 l/m 10,6 km/h (2 Bft) W 266 0 min 0,000 mm 1,1 UV-I 245 W/m 13,5 C 12,9 C 17,7 km/h (3 Bft) 93,62 %
14.08.2019 09:24 15,0 C 21,7 C 16,7 C 90 % 1018,5 hPa 0,0 l/m 8,7 km/h (2 Bft) W 272 0 min 0,000 mm 1,1 UV-I 227 W/m 13,4 C 13,7 C 14,5 km/h (3 Bft) 93,62 %
14.08.2019 09:26 15,0 C 21,7 C 16,7 C 90 % 1018,5 hPa 0,0 l/m 7,3 km/h (2 Bft) W-SW 251 0 min 0,000 mm 1,1 UV-I 208 W/m 13,4 C 14,5 C 11,3 km/h (2 Bft) 88,00 %
14.08.2019 09:28 14,9 C 21,7 C 16,7 C 90 % 1018,5 hPa 0,0 l/m 7,9 km/h (2 Bft) W-SW 254 0 min 0,000 mm 1,1 UV-I 198 W/m 13,3 C 14,1 C 16,1 km/h (3 Bft) 93,62 %
14.08.2019 09:30 14,9 C 21,7 C 16,7 C 90 % 1018,5 hPa 0,0 l/m 9,5 km/h (2 Bft) W 275 0 min 0,000 mm 1,2 UV-I 220 W/m 13,3 C 13,2 C 20,9 km/h (4 Bft) 97,22 %
14.08.2019 09:32 14,9 C 21,7 C 16,7 C 90 % 1018,6 hPa 0,0 l/m 10,6 km/h (2 Bft) SW 219 0 min 0,000 mm 1,3 UV-I 272 W/m 13,3 C 12,7 C 16,1 km/h (3 Bft) 94,00 %
14.08.2019 09:34 14,9 C 21,7 C 17,2 C 90 % 1018,6 hPa 0,0 l/m 9,5 km/h (2 Bft) W 262 2 min 0,000 mm 1,5 UV-I 370 W/m 13,3 C 13,2 C 16,1 km/h (3 Bft) 93,62 %
14.08.2019 09:36 15,1 C 21,7 C 18,3 C 90 % 1018,6 hPa 0,0 l/m 6,7 km/h (2 Bft) W-SW 248 2 min 0,000 mm 1,5 UV-I 524 W/m 13,5 C 14,9 C 16,1 km/h (3 Bft) 96,00 %
14.08.2019 09:38 15,2 C 21,7 C 17,8 C 89 % 1018,6 hPa 0,0 l/m 12,6 km/h (3 Bft) W 260 0 min 0,000 mm 1,3 UV-I 306 W/m 13,4 C 12,3 C 17,7 km/h (3 Bft) 93,62 %
14.08.2019 09:40 15,2 C 21,7 C 17,8 C 89 % 1018,5 hPa 0,0 l/m 7,5 km/h (2 Bft) W-NW 282 0 min 0,000 mm 1,3 UV-I 282 W/m 13,4 C 14,6 C 12,9 km/h (3 Bft) 95,74 %
14.08.2019 09:42 15,3 C 21,7 C 18,3 C 89 % 1018,6 hPa 0,0 l/m 15,6 km/h (3 Bft) W 259 2 min 0,000 mm 1,5 UV-I 369 W/m 13,5 C 11,4 C 20,9 km/h (4 Bft) 97,87 %
14.08.2019 09:44 15,3 C 21,7 C 18,3 C 89 % 1018,6 hPa 0,0 l/m 12,5 km/h (3 Bft) W-SW 252 2 min 0,000 mm 1,4 UV-I 344 W/m 13,5 C 12,4 C 19,3 km/h (3 Bft) 95,74 %
14.08.2019 09:46 15,4 C 21,7 C 18,3 C 88 % 1018,6 hPa 0,0 l/m 8,3 km/h (2 Bft) W-NW 285 2 min 0,000 mm 1,5 UV-I 393 W/m 13,4 C 14,4 C 12,9 km/h (3 Bft) 98,00 %
14.08.2019 09:48 15,4 C 21,7 C 18,3 C 88 % 1018,6 hPa 0,0 l/m 7,4 km/h (2 Bft) W-SW 242 2 min 0,000 mm 1,3 UV-I 340 W/m 13,4 C 14,8 C 12,9 km/h (3 Bft) 97,87 %
14.08.2019 09:50 15,3 C 21,7 C 17,8 C 88 % 1018,5 hPa 0,0 l/m 9,6 km/h (2 Bft) W 272 0 min 0,000 mm 1,3 UV-I 234 W/m 13,3 C 13,6 C 14,5 km/h (3 Bft) 100,00 %
14.08.2019 09:52 15,4 C 21,7 C 18,9 C 88 % 1018,5 hPa 0,0 l/m 6,4 km/h (2 Bft) W 267 0 min 0,000 mm 1,6 UV-I 276 W/m 13,4 C 15,4 C 12,9 km/h (3 Bft) 100,00 %
14.08.2019 09:54 15,4 C 21,7 C 21,1 C 88 % 1018,5 hPa 0,0 l/m 4,5 km/h (1 Bft) W 265 2 min 0,000 mm 1,8 UV-I 506 W/m 13,4 C 15,4 C 11,3 km/h (2 Bft) 100,00 %
14.08.2019 09:56 15,7 C 21,7 C 20,0 C 88 % 1018,6 hPa 0,0 l/m 7,7 km/h (2 Bft) W-SW 241 2 min 0,000 mm 1,4 UV-I 427 W/m 13,7 C 15,0 C 12,9 km/h (3 Bft) 100,00 %
14.08.2019 09:58 15,7 C 21,7 C 18,3 C 87 % 1018,6 hPa 0,0 l/m 10,9 km/h (2 Bft) W-SW 241 0 min 0,000 mm 1,3 UV-I 202 W/m 13,5 C 13,5 C 14,5 km/h (3 Bft) 100,00 %
14.08.2019 10:00 15,7 C 21,7 C 17,8 C 87 % 1018,6 hPa 0,0 l/m 6,1 km/h (2 Bft) W 263 0 min 0,153 mm 1,4 UV-I 175 W/m 13,5 C 15,7 C 14,5 km/h (3 Bft) 100,00 %
14.08.2019 10:02 15,7 C 21,7 C 18,9 C 87 % 1018,5 hPa 0,0 l/m 9,6 km/h (2 Bft) W 260 0 min 0,000 mm 1,9 UV-I 231 W/m 13,5 C 14,1 C 14,5 km/h (3 Bft) 98,00 %
14.08.2019 10:04 15,7 C 21,7 C 20,0 C 86 % 1018,5 hPa 0,0 l/m 8,6 km/h (2 Bft) W 261 0 min 0,000 mm 2,1 UV-I 321 W/m 13,4 C 14,5 C 12,9 km/h (3 Bft) 100,00 %
14.08.2019 10:06 15,9 C 21,7 C 22,8 C 87 % 1018,5 hPa 0,0 l/m 7,2 km/h (2 Bft) W 268 2 min 0,000 mm 2,4 UV-I 687 W/m 13,7 C 15,5 C 12,9 km/h (3 Bft) 95,74 %
14.08.2019 10:08 16,1 C 21,7 C 24,4 C 85 % 1018,5 hPa 0,0 l/m 13,5 km/h (3 Bft) W 275 2 min 0,000 mm 2,5 UV-I 692 W/m 13,6 C 13,0 C 19,3 km/h (3 Bft) 100,00 %
14.08.2019 10:10 16,3 C 21,7 C 26,1 C 85 % 1018,5 hPa 0,0 l/m 7,8 km/h (2 Bft) S-SW 211 2 min 0,000 mm 2,5 UV-I 691 W/m 13,8 C 15,6 C 12,9 km/h (3 Bft) 100,00 %
14.08.2019 10:12 16,4 C 21,7 C 26,1 C 83 % 1018,5 hPa 0,0 l/m 12,5 km/h (3 Bft) W 261 2 min 0,000 mm 2,5 UV-I 730 W/m 13,5 C 13,7 C 17,7 km/h (3 Bft) 97,87 %
14.08.2019 10:14 16,5 C 21,7 C 27,8 C 84 % 1018,5 hPa 0,0 l/m 5,3 km/h (1 Bft) W-SW 250 2 min 0,000 mm 2,6 UV-I 804 W/m 13,8 C 16,5 C 12,9 km/h (3 Bft) 97,87 %
14.08.2019 10:16 16,7 C 21,7 C 25,6 C 83 % 1018,5 hPa 0,0 l/m 12,8 km/h (3 Bft) W-SW 242 2 min 0,000 mm 1,9 UV-I 512 W/m 13,8 C 14,0 C 17,7 km/h (3 Bft) 100,00 %
14.08.2019 10:18 16,7 C 21,7 C 25,0 C 82 % 1018,6 hPa 0,0 l/m 13,6 km/h (3 Bft) W 273 0 min 0,000 mm 2,1 UV-I 306 W/m 13,6 C 13,7 C 20,9 km/h (4 Bft) 98,00 %
14.08.2019 10:20 16,7 C 21,7 C 27,2 C 82 % 1018,5 hPa 0,0 l/m 5,3 km/h (1 Bft) W 266 2 min 0,000 mm 2,7 UV-I 752 W/m 13,6 C 16,7 C 11,3 km/h (2 Bft) 100,00 %
14.08.2019 10:22 16,8 C 21,7 C 27,8 C 81 % 1018,6 hPa 0,0 l/m 11,3 km/h (2 Bft) W-SW 248 2 min 0,000 mm 2,8 UV-I 755 W/m 13,5 C 14,6 C 19,3 km/h (3 Bft) 100,00 %
14.08.2019 10:24 16,9 C 21,7 C 28,3 C 81 % 1018,5 hPa 0,0 l/m 9,4 km/h (2 Bft) W-SW 253 2 min 0,000 mm 2,8 UV-I 647 W/m 13,6 C 15,5 C 19,3 km/h (3 Bft) 100,00 %
14.08.2019 10:26 17,0 C 21,7 C 29,4 C 80 % 1018,5 hPa 0,0 l/m 10,4 km/h (2 Bft) SW 236 2 min 0,000 mm 2,9 UV-I 782 W/m 13,5 C 15,2 C 17,7 km/h (3 Bft) 97,87 %
14.08.2019 10:28 17,1 C 21,7 C 28,3 C 79 % 1018,5 hPa 0,0 l/m 12,1 km/h (2 Bft) W-SW 254 2 min 0,000 mm 2,7 UV-I 810 W/m 13,4 C 14,7 C 17,7 km/h (3 Bft) 100,00 %
14.08.2019 10:30 17,0 C 21,7 C 26,7 C 79 % 1018,4 hPa 0,0 l/m 10,8 km/h (2 Bft) W 259 2 min 0,000 mm 2,3 UV-I 814 W/m 13,3 C 15,0 C 17,7 km/h (3 Bft) 100,00 %
14.08.2019 10:32 17,1 C 21,7 C 27,2 C 79 % 1018,5 hPa 0,0 l/m 7,0 km/h (2 Bft) W 277 2 min 0,000 mm 2,4 UV-I 796 W/m 13,4 C 16,8 C 11,3 km/h (2 Bft) 100,00 %
14.08.2019 10:34 17,2 C 21,7 C 26,7 C 80 % 1018,5 hPa 0,0 l/m 5,4 km/h (1 Bft) W 271 2 min 0,000 mm 2,0 UV-I 548 W/m 13,7 C 17,2 C 9,7 km/h (2 Bft) 100,00 %
14.08.2019 10:36 17,1 C 21,7 C 24,4 C 80 % 1018,5 hPa 0,0 l/m 8,3 km/h (2 Bft) W-NW 288 0 min 0,000 mm 1,6 UV-I 200 W/m 13,6 C 16,2 C 16,1 km/h (3 Bft) 100,00 %
14.08.2019 10:38 16,9 C 21,7 C 22,8 C 79 % 1018,5 hPa 0,0 l/m 7,5 km/h (2 Bft) W 279 0 min 0,000 mm 1,9 UV-I 223 W/m 13,2 C 16,3 C 14,5 km/h (3 Bft) 97,87 %
14.08.2019 10:40 16,8 C 21,7 C 24,4 C 81 % 1018,5 hPa 0,0 l/m 3,3 km/h (1 Bft) NW 312 0 min 0,000 mm 2,9 UV-I 239 W/m 13,5 C 16,8 C 6,4 km/h (2 Bft) 100,00 %
14.08.2019 10:42 16,9 C 21,7 C 25,6 C 82 % 1018,5 hPa 0,0 l/m 4,1 km/h (1 Bft) W 261 2 min 0,000 mm 2,7 UV-I 439 W/m 13,8 C 16,9 C 8,0 km/h (2 Bft) 100,00 %
14.08.2019 10:44 16,9 C 21,7 C 25,6 C 80 % 1018,5 hPa 0,0 l/m 5,3 km/h (1 Bft) W 276 2 min 0,000 mm 2,8 UV-I 456 W/m 13,4 C 16,9 C 9,7 km/h (2 Bft) 100,00 %
14.08.2019 10:46 17,1 C 21,7 C 27,2 C 81 % 1018,6 hPa 0,0 l/m 10,5 km/h (2 Bft) W 261 2 min 0,000 mm 3,3 UV-I 587 W/m 13,8 C 15,2 C 16,1 km/h (3 Bft) 100,00 %
14.08.2019 10:48 17,2 C 21,7 C 27,8 C 77 % 1018,5 hPa 0,0 l/m 11,5 km/h (2 Bft) W-NW 296 2 min 0,000 mm 3,3 UV-I 745 W/m 13,1 C 15,0 C 17,7 km/h (3 Bft) 100,00 %
14.08.2019 10:50 17,3 C 21,7 C 29,4 C 79 % 1018,5 hPa 0,0 l/m 7,4 km/h (2 Bft) SW 234 2 min 0,000 mm 3,4 UV-I 743 W/m 13,6 C 16,8 C 14,5 km/h (3 Bft) 96,23 %
14.08.2019 10:52 17,5 C 21,7 C 30,0 C 75 % 1018,5 hPa 0,0 l/m 5,8 km/h (2 Bft) N 5 2 min 0,000 mm 3,4 UV-I 756 W/m 13,0 C 17,5 C 11,3 km/h (2 Bft) 100,00 %
14.08.2019 10:54 17,5 C 21,7 C 30,6 C 76 % 1018,5 hPa 0,0 l/m 5,3 km/h (1 Bft) NW 305 2 min 0,000 mm 3,5 UV-I 763 W/m 13,2 C 17,5 C 11,3 km/h (2 Bft) 95,74 %
14.08.2019 10:56 17,7 C 21,7 C 30,6 C 77 % 1018,5 hPa 0,0 l/m 4,4 km/h (1 Bft) W 270 2 min 0,000 mm 3,6 UV-I 787 W/m 13,6 C 17,7 C 9,7 km/h (2 Bft) 96,00 %
14.08.2019 10:58 17,7 C 21,7 C 31,7 C 74 % 1018,5 hPa 0,0 l/m 7,1 km/h (2 Bft) W-NW 286 2 min 0,000 mm 3,6 UV-I 804 W/m 13,0 C 17,4 C 12,9 km/h (3 Bft) 95,74 %
14.08.2019 11:00 17,8 C 21,7 C 30,6 C 74 % 1018,5 hPa 0,0 l/m 6,8 km/h (2 Bft) SW 225 2 min 0,000 mm 3,1 UV-I 787 W/m 13,1 C 17,6 C 12,9 km/h (3 Bft) 98,00 %
14.08.2019 11:02 17,7 C 21,7 C 27,8 C 75 % 1018,4 hPa 0,0 l/m 9,2 km/h (2 Bft) W 262 0 min 0,355 mm 2,6 UV-I 269 W/m 13,2 C 16,4 C 17,7 km/h (3 Bft) 100,00 %
14.08.2019 11:04 17,7 C 21,7 C 28,3 C 76 % 1018,5 hPa 0,0 l/m 14,2 km/h (3 Bft) W 278 2 min 0,000 mm 3,5 UV-I 464 W/m 13,4 C 14,7 C 19,3 km/h (3 Bft) 96,43 %
14.08.2019 11:06 17,7 C 21,7 C 28,3 C 74 % 1018,5 hPa 0,0 l/m 15,5 km/h (3 Bft) W 280 2 min 0,000 mm 3,6 UV-I 848 W/m 13,0 C 14,3 C 22,5 km/h (4 Bft) 95,74 %
14.08.2019 11:08 17,8 C 21,7 C 30,0 C 76 % 1018,5 hPa 0,0 l/m 7,8 km/h (2 Bft) W-SW 244 2 min 0,000 mm 3,7 UV-I 836 W/m 13,5 C 17,1 C 16,1 km/h (3 Bft) 91,49 %
14.08.2019 11:10 18,0 C 21,7 C 30,6 C 74 % 1018,5 hPa 0,0 l/m 9,3 km/h (2 Bft) W 278 2 min 0,000 mm 3,8 UV-I 825 W/m 13,3 C 16,7 C 16,1 km/h (3 Bft) 95,74 %
14.08.2019 11:12 18,1 C 21,7 C 31,1 C 73 % 1018,5 hPa 0,0 l/m 7,1 km/h (2 Bft) W-SW 253 2 min 0,000 mm 3,8 UV-I 834 W/m 13,2 C 17,8 C 11,3 km/h (2 Bft) 91,49 %
14.08.2019 11:14 18,2 C 21,7 C 31,1 C 72 % 1018,5 hPa 0,0 l/m 11,8 km/h (2 Bft) W 265 2 min 0,000 mm 3,9 UV-I 856 W/m 13,1 C 16,0 C 16,1 km/h (3 Bft) 95,74 %
14.08.2019 11:16 18,3 C 21,7 C 31,7 C 70 % 1018,5 hPa 0,0 l/m 10,9 km/h (2 Bft) W 262 2 min 0,000 mm 3,9 UV-I 865 W/m 12,7 C 16,4 C 17,7 km/h (3 Bft) 97,87 %
14.08.2019 11:18 18,2 C 21,7 C 30,6 C 71 % 1018,4 hPa 0,0 l/m 4,3 km/h (1 Bft) SW 223 2 min 0,000 mm 3,2 UV-I 842 W/m 12,9 C 18,2 C 11,3 km/h (2 Bft) 98,00 %
14.08.2019 11:20 18,1 C 21,7 C 27,2 C 71 % 1018,4 hPa 0,0 l/m 9,5 km/h (2 Bft) SW 236 2 min 0,000 mm 2,4 UV-I 521 W/m 12,8 C 16,7 C 16,1 km/h (3 Bft) 91,67 %
14.08.2019 11:22 17,9 C 21,7 C 27,8 C 71 % 1018,3 hPa 0,0 l/m 7,8 km/h (2 Bft) W-SW 254 0 min 0,000 mm 2,4 UV-I 302 W/m 12,6 C 17,2 C 11,3 km/h (2 Bft) 93,75 %
14.08.2019 11:24 17,9 C 21,7 C 28,3 C 73 % 1018,3 hPa 0,0 l/m 6,7 km/h (2 Bft) NW 324 0 min 0,000 mm 3,0 UV-I 346 W/m 13,0 C 17,8 C 12,9 km/h (3 Bft) 93,62 %
14.08.2019 11:26 18,1 C 21,7 C 29,4 C 70 % 1018,3 hPa 0,0 l/m 7,1 km/h (2 Bft) W-NW 293 2 min 0,000 mm 3,1 UV-I 924 W/m 12,5 C 17,8 C 12,9 km/h (3 Bft) 93,62 %
14.08.2019 11:28 18,1 C 21,7 C 27,8 C 68 % 1018,3 hPa 0,0 l/m 4,0 km/h (1 Bft) NW 320 2 min 0,000 mm 2,3 UV-I 867 W/m 12,1 C 18,1 C 8,0 km/h (2 Bft) 93,75 %
14.08.2019 11:30 18,0 C 21,7 C 26,1 C 69 % 1018,3 hPa 0,0 l/m 3,5 km/h (1 Bft) W-SW 248 0 min 0,000 mm 2,2 UV-I 292 W/m 12,2 C 18,0 C 6,4 km/h (2 Bft) 93,62 %
14.08.2019 11:32 17,9 C 21,7 C 24,4 C 70 % 1018,3 hPa 0,0 l/m 3,4 km/h (1 Bft) SW 220 0 min 0,000 mm 1,8 UV-I 149 W/m 12,3 C 17,9 C 8,0 km/h (2 Bft) 94,00 %
14.08.2019 11:34 17,8 C 21,7 C 22,8 C 72 % 1018,3 hPa 0,0 l/m 10,6 km/h (2 Bft) W 259 0 min 0,000 mm 2,0 UV-I 138 W/m 12,7 C 16,0 C 16,1 km/h (3 Bft) 98,00 %
14.08.2019 11:36 17,6 C 21,7 C 21,1 C 70 % 1018,3 hPa 0,0 l/m 10,3 km/h (2 Bft) W-NW 296 0 min 0,000 mm 2,3 UV-I 152 W/m 12,1 C 15,9 C 16,1 km/h (3 Bft) 97,87 %
14.08.2019 11:38 17,6 C 21,7 C 23,9 C 71 % 1018,3 hPa 0,0 l/m 6,5 km/h (2 Bft) NW 310 0 min 0,000 mm 3,6 UV-I 291 W/m 12,3 C 17,6 C 11,3 km/h (2 Bft) 97,14 %
14.08.2019 11:40 17,8 C 21,7 C 27,2 C 69 % 1018,3 hPa 0,0 l/m 5,0 km/h (1 Bft) W 268 2 min 0,000 mm 4,2 UV-I 850 W/m 12,0 C 17,8 C 6,4 km/h (2 Bft) 98,04 %
14.08.2019 11:42 18,1 C 21,7 C 30,0 C 69 % 1018,3 hPa 0,0 l/m 4,2 km/h (1 Bft) NW 325 2 min 0,000 mm 4,3 UV-I 856 W/m 12,3 C 18,1 C 6,4 km/h (2 Bft) 95,74 %
14.08.2019 11:44 18,5 C 21,7 C 31,7 C 67 % 1018,3 hPa 0,0 l/m 5,4 km/h (1 Bft) NW 306 2 min 0,000 mm 4,3 UV-I 863 W/m 12,3 C 18,5 C 12,9 km/h (3 Bft) 97,87 %
14.08.2019 11:46 18,7 C 21,7 C 31,1 C 66 % 1018,2 hPa 0,0 l/m 7,7 km/h (2 Bft) W-SW 256 2 min 0,000 mm 3,6 UV-I 863 W/m 12,2 C 18,1 C 19,3 km/h (3 Bft) 97,87 %
14.08.2019 11:48 18,9 C 22,2 C 31,1 C 66 % 1018,3 hPa 0,0 l/m 11,3 km/h (2 Bft) W 259 2 min 0,000 mm 4,4 UV-I 850 W/m 12,4 C 17,0 C 17,7 km/h (3 Bft) 95,74 %
14.08.2019 11:50 19,1 C 22,2 C 32,2 C 65 % 1018,2 hPa 0,0 l/m 7,8 km/h (2 Bft) W-SW 242 2 min 0,000 mm 4,5 UV-I 872 W/m 12,4 C 18,5 C 14,5 km/h (3 Bft) 97,87 %
14.08.2019 11:52 19,2 C 22,2 C 32,8 C 62 % 1018,2 hPa 0,0 l/m 9,5 km/h (2 Bft) W 273 2 min 0,000 mm 4,5 UV-I 881 W/m 11,7 C 17,9 C 17,7 km/h (3 Bft) 98,00 %
14.08.2019 11:54 19,2 C 22,2 C 32,2 C 58 % 1018,3 hPa 0,0 l/m 10,9 km/h (2 Bft) NW 310 2 min 0,000 mm 4,7 UV-I 885 W/m 10,7 C 17,5 C 19,3 km/h (3 Bft) 95,74 %
14.08.2019 11:56 19,2 C 22,2 C 32,2 C 58 % 1018,2 hPa 0,0 l/m 9,1 km/h (2 Bft) W-NW 288 2 min 0,000 mm 4,7 UV-I 874 W/m 10,7 C 18,1 C 14,5 km/h (3 Bft) 97,87 %
14.08.2019 11:58 19,2 C 22,2 C 32,2 C 61 % 1018,3 hPa 0,0 l/m 8,3 km/h (2 Bft) W 280 2 min 0,000 mm 4,7 UV-I 862 W/m 11,5 C 18,4 C 14,5 km/h (3 Bft) 97,87 %
14.08.2019 12:00 19,2 C 22,2 C 32,8 C 58 % 1018,2 hPa 0,0 l/m 12,7 km/h (3 Bft) W 280 2 min 0,000 mm 4,7 UV-I 856 W/m 10,7 C 16,9 C 19,3 km/h (3 Bft) 98,00 %
14.08.2019 12:02 19,2 C 22,2 C 32,8 C 57 % 1018,2 hPa 0,0 l/m 7,8 km/h (2 Bft) W-NW 300 2 min 0,407 mm 4,7 UV-I 876 W/m 10,5 C 18,6 C 16,1 km/h (3 Bft) 94,74 %
14.08.2019 12:04 19,2 C 22,2 C 32,2 C 61 % 1018,2 hPa 0,0 l/m 7,1 km/h (2 Bft) W-NW 286 2 min 0,000 mm 4,1 UV-I 894 W/m 11,5 C 18,9 C 19,3 km/h (3 Bft) 97,92 %
14.08.2019 12:06 19,2 C 21,7 C 28,9 C 59 % 1018,2 hPa 0,0 l/m 9,5 km/h (2 Bft) NW 326 2 min 0,000 mm 2,9 UV-I 539 W/m 11,0 C 17,9 C 16,1 km/h (3 Bft) 97,87 %
14.08.2019 12:08 18,8 C 21,7 C 25,6 C 61 % 1018,2 hPa 0,0 l/m 5,8 km/h (2 Bft) N-NO 32 0 min 0,000 mm 2,7 UV-I 207 W/m 11,1 C 18,8 C 11,3 km/h (2 Bft) 96,00 %
14.08.2019 12:10 18,7 C 22,2 C 23,9 C 60 % 1018,2 hPa 0,0 l/m 5,6 km/h (1 Bft) NW 315 0 min 0,000 mm 2,7 UV-I 246 W/m 10,8 C 18,7 C 9,7 km/h (2 Bft) 97,87 %
14.08.2019 12:12 18,6 C 22,2 C 25,6 C 63 % 1018,2 hPa 0,0 l/m 5,7 km/h (1 Bft) N 5 0 min 0,000 mm 3,7 UV-I 287 W/m 11,4 C 18,6 C 12,9 km/h (3 Bft) 95,74 %
14.08.2019 12:14 18,7 C 22,2 C 25,6 C 64 % 1018,2 hPa 0,0 l/m 5,3 km/h (1 Bft) W-NW 286 0 min 0,000 mm 3,1 UV-I 285 W/m 11,7 C 18,7 C 11,3 km/h (2 Bft) 96,15 %
14.08.2019 12:16 18,7 C 22,2 C 25,6 C 65 % 1018,2 hPa 0,0 l/m 4,2 km/h (1 Bft) W-SW 253 0 min 0,000 mm 3,4 UV-I 266 W/m 12,0 C 18,7 C 11,3 km/h (2 Bft) 95,16 %
14.08.2019 12:18 18,7 C 22,2 C 25,0 C 63 % 1018,2 hPa 0,0 l/m 4,0 km/h (1 Bft) N 9 0 min 0,000 mm 2,8 UV-I 233 W/m 11,5 C 18,7 C 9,7 km/h (2 Bft) 95,74 %
14.08.2019 12:20 18,7 C 22,2 C 25,6 C 65 % 1018,2 hPa 0,0 l/m 3,5 km/h (1 Bft) NW 324 0 min 0,000 mm 4,2 UV-I 232 W/m 12,0 C 18,7 C 8,0 km/h (2 Bft) 96,00 %
14.08.2019 12:22 18,9 C 22,2 C 28,3 C 65 % 1018,2 hPa 0,0 l/m 3,9 km/h (1 Bft) W-NW 292 2 min 0,000 mm 4,4 UV-I 527 W/m 12,2 C 18,9 C 8,0 km/h (2 Bft) 95,74 %
14.08.2019 12:24 19,1 C 22,2 C 29,4 C 62 % 1018,2 hPa 0,0 l/m 7,4 km/h (2 Bft) N 9 2 min 0,000 mm 4,2 UV-I 939 W/m 11,6 C 18,7 C 14,5 km/h (3 Bft) 93,62 %
14.08.2019 12:26 19,3 C 22,2 C 31,7 C 63 % 1018,2 hPa 0,0 l/m 3,7 km/h (1 Bft) W-SW 239 2 min 0,000 mm 4,9 UV-I 947 W/m 12,1 C 19,3 C 8,0 km/h (2 Bft) 93,62 %
14.08.2019 12:29 19,7 C 22,2 C 33,9 C 59 % 1018,2 hPa 0,0 l/m 8,4 km/h (2 Bft) W 266 3 min 0,000 mm 4,9 UV-I 939 W/m 11,5 C 18,9 C 12,9 km/h (3 Bft) 91,89 %
14.08.2019 12:30 19,7 C 22,2 C 33,9 C 59 % 1018,2 hPa 0,0 l/m 8,9 km/h (2 Bft) W-NW 287 1 min 0,000 mm 4,8 UV-I 957 W/m 11,5 C 18,7 C 12,9 km/h (3 Bft) 95,65 %
14.08.2019 12:32 19,7 C 22,2 C 32,8 C 60 % 1018,2 hPa 0,0 l/m 7,4 km/h (2 Bft) W-NW 289 2 min 0,000 mm 4,1 UV-I 972 W/m 11,7 C 19,3 C 12,9 km/h (3 Bft) 95,74 %
14.08.2019 12:34 19,6 C 22,2 C 28,9 C 57 % 1018,2 hPa 0,0 l/m 8,5 km/h (2 Bft) W-SW 252 2 min 0,000 mm 2,9 UV-I 471 W/m 10,8 C 18,7 C 16,1 km/h (3 Bft) 93,62 %
14.08.2019 12:36 19,2 C 22,2 C 26,1 C 55 % 1018,2 hPa 0,0 l/m 6,3 km/h (2 Bft) W-SW 246 0 min 0,000 mm 2,8 UV-I 190 W/m 9,9 C 19,2 C 12,9 km/h (3 Bft) 95,74 %
14.08.2019 12:38 18,9 C 22,2 C 26,1 C 60 % 1018,2 hPa 0,0 l/m 4,3 km/h (1 Bft) N-NW 338 0 min 0,000 mm 3,5 UV-I 198 W/m 11,0 C 18,9 C 9,7 km/h (2 Bft) 93,62 %
14.08.2019 12:40 19,0 C 22,2 C 28,9 C 57 % 1018,2 hPa 0,0 l/m 4,6 km/h (1 Bft) W 260 2 min 0,000 mm 5,0 UV-I 806 W/m 10,3 C 19,0 C 6,4 km/h (2 Bft) 93,62 %
14.08.2019 12:42 19,2 C 22,2 C 31,1 C 59 % 1018,2 hPa 0,0 l/m 4,5 km/h (1 Bft) NW 308 2 min 0,000 mm 5,0 UV-I 866 W/m 11,0 C 19,2 C 11,3 km/h (2 Bft) 95,74 %
14.08.2019 12:44 19,3 C 22,2 C 32,8 C 60 % 1018,2 hPa 0,0 l/m 7,5 km/h (2 Bft) W-NW 294 2 min 0,000 mm 5,0 UV-I 880 W/m 11,3 C 18,8 C 14,5 km/h (3 Bft) 97,87 %
14.08.2019 12:46 19,5 C 22,2 C 33,3 C 56 % 1018,2 hPa 0,0 l/m 8,0 km/h (2 Bft) W 269 2 min 0,000 mm 5,0 UV-I 891 W/m 10,5 C 18,8 C 12,9 km/h (3 Bft) 97,44 %
14.08.2019 12:48 19,6 C 22,2 C 31,7 C 56 % 1018,1 hPa 0,0 l/m 9,0 km/h (2 Bft) W 281 2 min 0,000 mm 3,7 UV-I 749 W/m 10,6 C 18,6 C 17,7 km/h (3 Bft) 98,00 %
14.08.2019 12:50 19,4 C 22,2 C 27,8 C 57 % 1018,2 hPa 0,0 l/m 6,0 km/h (2 Bft) NW 321 0 min 0,000 mm 2,7 UV-I 188 W/m 10,7 C 19,4 C 14,5 km/h (3 Bft) 95,74 %
14.08.2019 12:52 19,1 C 22,2 C 26,7 C 57 % 1018,2 hPa 0,0 l/m 6,7 km/h (2 Bft) NW 321 0 min 0,000 mm 3,5 UV-I 178 W/m 10,4 C 19,0 C 16,1 km/h (3 Bft) 97,87 %
14.08.2019 12:54 19,0 C 22,2 C 26,1 C 59 % 1018,2 hPa 0,0 l/m 5,8 km/h (2 Bft) W 269 0 min 0,000 mm 3,9 UV-I 180 W/m 10,8 C 19,0 C 14,5 km/h (3 Bft) 95,74 %
14.08.2019 12:56 19,1 C 22,2 C 27,2 C 60 % 1018,2 hPa 0,0 l/m 9,0 km/h (2 Bft) W 272 0 min 0,000 mm 4,4 UV-I 431 W/m 11,1 C 18,0 C 17,7 km/h (3 Bft) 93,62 %
14.08.2019 12:58 19,3 C 22,2 C 29,4 C 58 % 1018,2 hPa 0,0 l/m 9,2 km/h (2 Bft) W-SW 252 2 min 0,000 mm 5,1 UV-I 894 W/m 10,8 C 18,2 C 14,5 km/h (3 Bft) 96,00 %
14.08.2019 13:00 19,6 C 22,2 C 31,1 C 56 % 1018,2 hPa 0,0 l/m 4,6 km/h (1 Bft) S-SW 213 2 min 0,381 mm 5,1 UV-I 894 W/m 10,6 C 19,6 C 9,7 km/h (2 Bft) 97,87 %
14.08.2019 13:02 19,8 C 22,2 C 32,2 C 56 % 1018,1 hPa 0,0 l/m 7,8 km/h (2 Bft) W 281 2 min 0,000 mm 4,8 UV-I 928 W/m 10,8 C 19,2 C 17,7 km/h (3 Bft) 97,37 %
14.08.2019 13:04 19,9 C 22,2 C 32,8 C 55 % 1018,1 hPa 0,0 l/m 6,6 km/h (2 Bft) W-SW 257 2 min 0,000 mm 5,0 UV-I 927 W/m 10,6 C 19,8 C 14,5 km/h (3 Bft) 95,74 %
14.08.2019 13:06 19,9 C 22,2 C 32,2 C 56 % 1018,0 hPa 0,0 l/m 4,9 km/h (1 Bft) N 355 2 min 0,000 mm 3,9 UV-I 946 W/m 10,9 C 19,9 C 12,9 km/h (3 Bft) 100,00 %
14.08.2019 13:08 19,9 C 22,2 C 30,0 C 57 % 1018,1 hPa 0,0 l/m 6,9 km/h (2 Bft) W-SW 248 2 min 0,000 mm 3,2 UV-I 946 W/m 11,1 C 19,7 C 12,9 km/h (3 Bft) 97,87 %
14.08.2019 13:10 19,8 C 22,2 C 30,0 C 58 % 1018,1 hPa 0,0 l/m 7,7 km/h (2 Bft) W-NW 294 0 min 0,000 mm 4,3 UV-I 314 W/m 11,3 C 19,3 C 14,5 km/h (3 Bft) 97,87 %
14.08.2019 13:12 19,8 C 22,2 C 30,6 C 56 % 1018,0 hPa 0,0 l/m 12,4 km/h (3 Bft) W-SW 247 2 min 0,000 mm 5,1 UV-I 914 W/m 10,8 C 17,7 C 19,3 km/h (3 Bft) 98,00 %
14.08.2019 13:14 20,0 C 22,2 C 32,2 C 56 % 1018,0 hPa 0,0 l/m 12,1 km/h (2 Bft) SW 231 2 min 0,000 mm 5,1 UV-I 889 W/m 11,0 C 18,0 C 19,3 km/h (3 Bft) 93,62 %
14.08.2019 13:16 20,2 C 22,2 C 32,8 C 53 % 1018,0 hPa 0,0 l/m 10,7 km/h (2 Bft) W 265 2 min 0,000 mm 5,1 UV-I 879 W/m 10,3 C 18,6 C 17,7 km/h (3 Bft) 96,00 %
14.08.2019 13:18 20,2 C 22,2 C 33,3 C 53 % 1017,9 hPa 0,0 l/m 6,5 km/h (2 Bft) W-SW 252 2 min 0,000 mm 5,1 UV-I 878 W/m 10,3 C 20,2 C 14,5 km/h (3 Bft) 97,87 %
14.08.2019 13:20 20,2 C 22,2 C 33,3 C 55 % 1017,9 hPa 0,0 l/m 6,6 km/h (2 Bft) S-SW 211 2 min 0,000 mm 5,1 UV-I 882 W/m 10,9 C 20,1 C 11,3 km/h (2 Bft) 97,92 %
14.08.2019 13:22 20,5 C 22,2 C 34,4 C 56 % 1018,0 hPa 0,0 l/m 3,9 km/h (1 Bft) W-SW 256 2 min 0,000 mm 5,2 UV-I 906 W/m 11,4 C 20,5 C 9,7 km/h (2 Bft) 97,87 %
14.08.2019 13:24 20,6 C 22,2 C 34,4 C 54 % 1018,0 hPa 0,0 l/m 7,7 km/h (2 Bft) W 271 2 min 0,000 mm 5,1 UV-I 929 W/m 11,0 C 20,1 C 17,7 km/h (3 Bft) 100,00 %
14.08.2019 13:26 20,6 C 22,2 C 33,3 C 53 % 1017,9 hPa 0,0 l/m 5,0 km/h (1 Bft) N 350 2 min 0,000 mm 4,3 UV-I 935 W/m 10,7 C 20,6 C 11,3 km/h (2 Bft) 100,00 %
14.08.2019 13:28 20,6 C 22,2 C 33,3 C 54 % 1018,0 hPa 0,0 l/m 7,5 km/h (2 Bft) W-NW 282 2 min 0,000 mm 5,0 UV-I 928 W/m 11,0 C 20,2 C 17,7 km/h (3 Bft) 100,00 %
14.08.2019 13:30 20,6 C 22,2 C 32,8 C 53 % 1018,0 hPa 0,0 l/m 8,4 km/h (2 Bft) W-NW 292 2 min 0,000 mm 3,8 UV-I 488 W/m 10,7 C 19,8 C 14,5 km/h (3 Bft) 97,87 %
14.08.2019 13:32 20,4 C 22,2 C 32,8 C 48 % 1018,0 hPa 0,0 l/m 6,3 km/h (2 Bft) W-NW 302 2 min 0,000 mm 5,1 UV-I 809 W/m 9,0 C 20,4 C 11,3 km/h (2 Bft) 100,00 %
14.08.2019 13:34 20,6 C 22,2 C 33,3 C 50 % 1017,9 hPa 0,0 l/m 6,5 km/h (2 Bft) W 259 2 min 0,000 mm 5,1 UV-I 892 W/m 9,8 C 20,6 C 19,3 km/h (3 Bft) 100,00 %
14.08.2019 13:36 20,7 C 22,2 C 33,3 C 51 % 1017,9 hPa 0,0 l/m 10,4 km/h (2 Bft) NW 308 2 min 0,000 mm 4,7 UV-I 894 W/m 10,2 C 19,3 C 19,3 km/h (3 Bft) 100,00 %
14.08.2019 13:38 20,7 C 22,2 C 31,1 C 50 % 1017,9 hPa 0,0 l/m 8,2 km/h (2 Bft) W 279 2 min 0,000 mm 3,5 UV-I 895 W/m 9,9 C 20,0 C 19,3 km/h (3 Bft) 97,87 %
14.08.2019 13:40 20,4 C 22,2 C 31,7 C 51 % 1017,9 hPa 0,0 l/m 6,6 km/h (2 Bft) W-NW 283 2 min 0,000 mm 4,7 UV-I 891 W/m 9,9 C 20,3 C 12,9 km/h (3 Bft) 100,00 %
14.08.2019 13:42 20,4 C 22,2 C 32,2 C 52 % 1017,9 hPa 0,0 l/m 6,0 km/h (2 Bft) N-NO 22 2 min 0,000 mm 4,9 UV-I 860 W/m 10,2 C 20,4 C 14,5 km/h (3 Bft) 100,00 %
14.08.2019 13:44 20,5 C 22,2 C 32,8 C 55 % 1017,8 hPa 0,0 l/m 5,7 km/h (1 Bft) W-NW 294 2 min 0,000 mm 4,9 UV-I 843 W/m 11,1 C 20,5 C 8,0 km/h (2 Bft) 100,00 %
14.08.2019 13:46 20,6 C 22,2 C 33,9 C 53 % 1017,9 hPa 0,0 l/m 4,3 km/h (1 Bft) W 273 2 min 0,000 mm 4,9 UV-I 839 W/m 10,7 C 20,6 C 9,7 km/h (2 Bft) 100,00 %
14.08.2019 13:48 20,8 C 22,2 C 34,4 C 52 % 1017,8 hPa 0,0 l/m 4,5 km/h (1 Bft) NW 309 2 min 0,000 mm 5,0 UV-I 845 W/m 10,6 C 20,8 C 11,3 km/h (2 Bft) 100,00 %
14.08.2019 13:50 20,8 C 22,2 C 34,4 C 49 % 1017,8 hPa 0,0 l/m 7,5 km/h (2 Bft) W-SW 257 2 min 0,000 mm 5,0 UV-I 849 W/m 9,7 C 20,4 C 16,1 km/h (3 Bft) 97,87 %
14.08.2019 13:52 20,9 C 22,2 C 35,6 C 52 % 1017,8 hPa 0,0 l/m 5,0 km/h (1 Bft) N-NW 328 2 min 0,000 mm 4,9 UV-I 847 W/m 10,7 C 20,9 C 11,3 km/h (2 Bft) 97,87 %
14.08.2019 13:54 20,9 C 22,2 C 35,6 C 51 % 1017,8 hPa 0,0 l/m 6,1 km/h (2 Bft) SW 227 2 min 0,000 mm 4,9 UV-I 853 W/m 10,4 C 20,9 C 12,9 km/h (3 Bft) 98,00 %
14.08.2019 13:56 20,9 C 22,2 C 36,1 C 48 % 1017,8 hPa 0,0 l/m 5,0 km/h (1 Bft) W 265 2 min 0,000 mm 4,9 UV-I 901 W/m 9,5 C 20,9 C 11,3 km/h (2 Bft) 97,87 %
14.08.2019 13:58 20,8 C 22,2 C 36,7 C 50 % 1017,8 hPa 0,0 l/m 6,2 km/h (2 Bft) W 265 2 min 0,000 mm 4,8 UV-I 921 W/m 10,0 C 20,8 C 12,9 km/h (3 Bft) 95,74 %
14.08.2019 14:00 20,9 C 22,2 C 36,1 C 48 % 1017,8 hPa 0,0 l/m 7,9 km/h (2 Bft) N-NW 347 2 min 0,000 mm 4,9 UV-I 925 W/m 9,5 C 20,3 C 12,9 km/h (3 Bft) 95,83 %
14.08.2019 14:02 20,9 C 22,2 C 36,1 C 53 % 1017,8 hPa 0,0 l/m 3,7 km/h (1 Bft) NO 53 2 min 0,508 mm 4,9 UV-I 924 W/m 11,0 C 20,9 C 8,0 km/h (2 Bft) 91,49 %
14.08.2019 14:04 21,1 C 22,2 C 36,1 C 48 % 1017,7 hPa 0,0 l/m 7,7 km/h (2 Bft) N-NW 342 2 min 0,000 mm 4,9 UV-I 914 W/m 9,7 C 20,6 C 19,3 km/h (3 Bft) 97,87 %
14.08.2019 14:06 21,1 C 22,2 C 35,0 C 49 % 1017,8 hPa 0,0 l/m 8,2 km/h (2 Bft) N-NO 24 2 min 0,000 mm 4,9 UV-I 921 W/m 10,0 C 20,4 C 19,3 km/h (3 Bft) 95,74 %
14.08.2019 14:08 20,9 C 22,2 C 33,3 C 49 % 1017,8 hPa 0,0 l/m 7,5 km/h (2 Bft) N-NW 339 2 min 0,000 mm 4,7 UV-I 926 W/m 9,8 C 20,5 C 14,5 km/h (3 Bft) 95,74 %
14.08.2019 14:10 20,7 C 22,8 C 31,1 C 46 % 1017,8 hPa 0,0 l/m 5,6 km/h (1 Bft) N-NW 334 2 min 0,000 mm 3,5 UV-I 498 W/m 8,7 C 20,7 C 11,3 km/h (2 Bft) 100,00 %
14.08.2019 14:12 20,4 C 22,8 C 29,4 C 50 % 1017,8 hPa 0,0 l/m 4,0 km/h (1 Bft) N-NW 341 0 min 0,000 mm 3,1 UV-I 212 W/m 9,6 C 20,4 C 6,4 km/h (2 Bft) 100,00 %
14.08.2019 14:14 20,3 C 22,2 C 27,2 C 50 % 1017,8 hPa 0,0 l/m 7,4 km/h (2 Bft) SW 234 0 min 0,000 mm 2,6 UV-I 189 W/m 9,5 C 19,9 C 14,5 km/h (3 Bft) 95,74 %
14.08.2019 14:16 20,1 C 22,2 C 26,1 C 51 % 1017,8 hPa 0,0 l/m 5,7 km/h (1 Bft) W-SW 252 0 min 0,000 mm 2,5 UV-I 190 W/m 9,6 C 20,1 C 9,7 km/h (2 Bft) 100,00 %
14.08.2019 14:18 19,9 C 22,2 C 24,4 C 52 % 1017,8 hPa 0,0 l/m 6,1 km/h (2 Bft) W 273 0 min 0,000 mm 2,4 UV-I 205 W/m 9,7 C 19,9 C 11,3 km/h (2 Bft) 100,00 %
14.08.2019 14:20 19,8 C 22,2 C 23,9 C 52 % 1017,8 hPa 0,0 l/m 4,0 km/h (1 Bft) SW 235 0 min 0,000 mm 2,3 UV-I 218 W/m 9,7 C 19,8 C 9,7 km/h (2 Bft) 100,00 %
14.08.2019 14:22 19,6 C 22,2 C 23,3 C 51 % 1017,8 hPa 0,0 l/m 6,5 km/h (2 Bft) W 261 0 min 0,000 mm 2,1 UV-I 197 W/m 9,2 C 19,6 C 11,3 km/h (2 Bft) 97,37 %
14.08.2019 14:24 19,5 C 22,2 C 22,8 C 51 % 1017,9 hPa 0,0 l/m 6,9 km/h (2 Bft) W-NW 283 0 min 0,000 mm 2,0 UV-I 204 W/m 9,1 C 19,3 C 11,3 km/h (2 Bft) 97,87 %
14.08.2019 14:26 19,4 C 22,2 C 22,8 C 53 % 1017,8 hPa 0,0 l/m 4,4 km/h (1 Bft) W-NW 283 0 min 0,000 mm 2,0 UV-I 219 W/m 9,6 C 19,4 C 6,4 km/h (2 Bft) 97,87 %
14.08.2019 14:28 19,4 C 22,2 C 22,8 C 53 % 1017,8 hPa 0,0 l/m 4,2 km/h (1 Bft) W-NW 286 0 min 0,000 mm 2,1 UV-I 243 W/m 9,6 C 19,4 C 6,4 km/h (2 Bft) 98,00 %
14.08.2019 14:30 19,4 C 22,2 C 22,8 C 55 % 1017,9 hPa 0,0 l/m 6,0 km/h (2 Bft) W 279 0 min 0,000 mm 2,3 UV-I 287 W/m 10,1 C 19,4 C 12,9 km/h (3 Bft) 97,87 %
14.08.2019 14:32 19,4 C 22,2 C 23,9 C 53 % 1017,8 hPa 0,0 l/m 5,1 km/h (1 Bft) W-NW 286 0 min 0,000 mm 2,5 UV-I 338 W/m 9,6 C 19,4 C 9,7 km/h (2 Bft) 100,00 %
14.08.2019 14:34 19,6 C 22,8 C 25,0 C 54 % 1017,8 hPa 0,0 l/m 6,9 km/h (2 Bft) W-NW 293 0 min 0,000 mm 2,9 UV-I 356 W/m 10,0 C 19,4 C 12,9 km/h (3 Bft) 97,87 %
14.08.2019 14:36 19,8 C 22,8 C 25,0 C 53 % 1017,8 hPa 0,0 l/m 6,5 km/h (2 Bft) W-NW 296 0 min 0,000 mm 2,6 UV-I 372 W/m 9,9 C 19,8 C 11,3 km/h (2 Bft) 100,00 %
14.08.2019 14:38 19,8 C 22,8 C 25,0 C 54 % 1017,8 hPa 0,0 l/m 10,9 km/h (2 Bft) W-SW 257 0 min 0,000 mm 2,6 UV-I 351 W/m 10,2 C 18,1 C 16,1 km/h (3 Bft) 100,00 %
14.08.2019 14:40 19,8 C 22,8 C 24,4 C 52 % 1017,8 hPa 0,0 l/m 5,9 km/h (2 Bft) W-NW 293 0 min 0,000 mm 2,4 UV-I 322 W/m 9,7 C 19,8 C 12,9 km/h (3 Bft) 97,87 %
14.08.2019 14:42 19,9 C 22,8 C 25,0 C 55 % 1017,8 hPa 0,0 l/m 6,5 km/h (2 Bft) W-NW 288 0 min 0,000 mm 2,4 UV-I 320 W/m 10,6 C 19,9 C 12,9 km/h (3 Bft) 100,00 %
14.08.2019 14:44 19,9 C 22,8 C 25,0 C 54 % 1017,8 hPa 0,0 l/m 6,5 km/h (2 Bft) W 268 0 min 0,000 mm 2,3 UV-I 323 W/m 10,3 C 19,9 C 11,3 km/h (2 Bft) 97,87 %
14.08.2019 14:46 19,9 C 22,8 C 25,0 C 54 % 1017,8 hPa 0,0 l/m 10,8 km/h (2 Bft) W-SW 258 0 min 0,000 mm 2,4 UV-I 336 W/m 10,3 C 18,3 C 16,1 km/h (3 Bft) 97,87 %
14.08.2019 14:48 20,1 C 22,8 C 26,7 C 55 % 1017,8 hPa 0,0 l/m 12,5 km/h (3 Bft) W 267 0 min 0,000 mm 3,1 UV-I 383 W/m 10,8 C 18,0 C 17,7 km/h (3 Bft) 95,74 %
14.08.2019 14:50 20,2 C 22,8 C 28,3 C 53 % 1017,8 hPa 0,0 l/m 8,4 km/h (2 Bft) SW 229 2 min 0,000 mm 3,5 UV-I 453 W/m 10,3 C 19,4 C 19,3 km/h (3 Bft) 93,62 %
14.08.2019 14:52 20,4 C 22,8 C 28,9 C 52 % 1017,8 hPa 0,0 l/m 15,3 km/h (3 Bft) W-SW 250 2 min 0,000 mm 3,7 UV-I 944 W/m 10,2 C 17,7 C 19,3 km/h (3 Bft) 93,62 %
14.08.2019 14:54 20,6 C 22,8 C 31,1 C 52 % 1017,8 hPa 0,0 l/m 11,1 km/h (2 Bft) W-NW 292 2 min 0,000 mm 4,1 UV-I 943 W/m 10,4 C 19,0 C 22,5 km/h (4 Bft) 97,87 %
14.08.2019 14:56 20,9 C 22,8 C 33,3 C 53 % 1017,7 hPa 0,0 l/m 7,2 km/h (2 Bft) W-SW 240 2 min 0,000 mm 4,0 UV-I 927 W/m 11,0 C 20,6 C 17,7 km/h (3 Bft) 93,62 %
14.08.2019 14:58 21,2 C 22,8 C 33,9 C 53 % 1017,7 hPa 0,0 l/m 10,9 km/h (2 Bft) W-NW 287 2 min 0,000 mm 4,1 UV-I 918 W/m 11,2 C 19,7 C 19,3 km/h (3 Bft) 100,00 %
14.08.2019 15:00 21,4 C 22,8 C 35,0 C 56 % 1017,7 hPa 0,0 l/m 17,5 km/h (3 Bft) SW 220 2 min 0,000 mm 4,1 UV-I 915 W/m 12,3 C 18,5 C 25,7 km/h (4 Bft) 93,62 %
14.08.2019 15:02 21,3 C 22,8 C 35,0 C 55 % 1017,7 hPa 0,0 l/m 15,0 km/h (3 Bft) S-SW 202 2 min 0,330 mm 4,0 UV-I 903 W/m 11,9 C 18,8 C 22,5 km/h (4 Bft) 98,00 %
14.08.2019 15:04 21,1 C 22,8 C 35,6 C 61 % 1017,7 hPa 0,0 l/m 13,2 km/h (3 Bft) W 273 2 min 0,000 mm 3,9 UV-I 903 W/m 13,3 C 19,0 C 20,9 km/h (4 Bft) 95,74 %
14.08.2019 15:06 21,2 C 22,8 C 35,6 C 59 % 1017,7 hPa 0,0 l/m 13,3 km/h (3 Bft) W 265 2 min 0,000 mm 3,9 UV-I 927 W/m 12,9 C 19,1 C 19,3 km/h (3 Bft) 97,87 %
14.08.2019 15:08 21,1 C 22,8 C 33,9 C 57 % 1017,7 hPa 0,0 l/m 14,6 km/h (3 Bft) SW 229 2 min 0,000 mm 3,7 UV-I 917 W/m 12,2 C 18,7 C 27,4 km/h (4 Bft) 97,92 %
14.08.2019 15:10 20,9 C 22,8 C 31,1 C 58 % 1017,6 hPa 0,0 l/m 15,5 km/h (3 Bft) SW 225 2 min 0,000 mm 2,5 UV-I 722 W/m 12,3 C 18,2 C 27,4 km/h (4 Bft) 97,87 %
14.08.2019 15:12 20,6 C 22,8 C 31,1 C 59 % 1017,6 hPa 0,0 l/m 12,0 km/h (2 Bft) S 175 0 min 0,000 mm 2,9 UV-I 334 W/m 12,3 C 18,7 C 24,1 km/h (4 Bft) 93,62 %
14.08.2019 15:14 20,5 C 22,8 C 30,6 C 59 % 1017,6 hPa 0,0 l/m 12,2 km/h (2 Bft) S-SW 208 2 min 0,000 mm 2,6 UV-I 417 W/m 12,2 C 18,6 C 19,3 km/h (3 Bft) 95,74 %
14.08.2019 15:16 20,6 C 22,8 C 32,2 C 60 % 1017,6 hPa 0,0 l/m 11,9 km/h (2 Bft) S-SW 213 2 min 0,000 mm 2,9 UV-I 837 W/m 12,6 C 18,7 C 20,9 km/h (4 Bft) 95,74 %
14.08.2019 15:18 20,6 C 22,8 C 32,2 C 58 % 1017,6 hPa 0,0 l/m 12,8 km/h (3 Bft) S-SW 200 2 min 0,000 mm 2,9 UV-I 821 W/m 12,0 C 18,5 C 20,9 km/h (4 Bft) 97,87 %
14.08.2019 15:20 20,5 C 22,8 C 30,6 C 58 % 1017,6 hPa 0,0 l/m 15,0 km/h (3 Bft) S-SO 150 2 min 0,000 mm 2,4 UV-I 831 W/m 11,9 C 17,9 C 20,9 km/h (4 Bft) 98,00 %
14.08.2019 15:22 20,2 C 22,8 C 27,8 C 60 % 1017,5 hPa 0,0 l/m 7,0 km/h (2 Bft) S 187 0 min 0,000 mm 1,7 UV-I 387 W/m 12,2 C 20,0 C 14,5 km/h (3 Bft) 97,87 %
14.08.2019 15:24 19,9 C 22,8 C 26,1 C 59 % 1017,5 hPa 0,0 l/m 10,7 km/h (2 Bft) SW 227 0 min 0,000 mm 1,6 UV-I 221 W/m 11,6 C 18,3 C 19,3 km/h (3 Bft) 95,74 %
14.08.2019 15:26 19,8 C 22,8 C 25,0 C 61 % 1017,5 hPa 0,0 l/m 11,9 km/h (2 Bft) SW 236 0 min 0,000 mm 1,8 UV-I 244 W/m 12,1 C 17,8 C 20,9 km/h (4 Bft) 93,62 %
14.08.2019 15:28 19,8 C 22,8 C 25,0 C 60 % 1017,4 hPa 0,0 l/m 11,0 km/h (2 Bft) S-SW 211 0 min 0,000 mm 2,3 UV-I 277 W/m 11,8 C 18,1 C 16,1 km/h (3 Bft) 100,00 %
14.08.2019 15:30 19,8 C 22,8 C 27,2 C 59 % 1017,4 hPa 0,0 l/m 13,1 km/h (3 Bft) S-SW 207 0 min 0,000 mm 3,2 UV-I 295 W/m 11,6 C 17,5 C 22,5 km/h (4 Bft) 96,23 %
14.08.2019 15:32 19,8 C 22,8 C 26,7 C 58 % 1017,5 hPa 0,0 l/m 11,6 km/h (2 Bft) S 184 2 min 0,000 mm 2,9 UV-I 391 W/m 11,3 C 17,9 C 17,7 km/h (3 Bft) 97,87 %
14.08.2019 15:34 19,8 C 22,8 C 27,8 C 59 % 1017,4 hPa 0,0 l/m 11,0 km/h (2 Bft) S-SO 167 0 min 0,000 mm 3,0 UV-I 380 W/m 11,6 C 18,1 C 20,9 km/h (4 Bft) 97,87 %
14.08.2019 15:36 20,1 C 22,8 C 29,4 C 60 % 1017,4 hPa 0,0 l/m 9,1 km/h (2 Bft) S-SW 205 2 min 0,000 mm 3,2 UV-I 663 W/m 12,1 C 19,1 C 16,1 km/h (3 Bft) 95,74 %
14.08.2019 15:38 20,2 C 22,8 C 30,0 C 56 % 1017,4 hPa 0,0 l/m 13,4 km/h (3 Bft) SW 225 2 min 0,000 mm 3,2 UV-I 684 W/m 11,1 C 17,9 C 19,3 km/h (3 Bft) 97,87 %
14.08.2019 15:40 20,3 C 22,8 C 30,0 C 55 % 1017,4 hPa 0,0 l/m 13,8 km/h (3 Bft) W-SW 242 2 min 0,000 mm 3,0 UV-I 671 W/m 11,0 C 17,9 C 19,3 km/h (3 Bft) 97,87 %
14.08.2019 15:42 20,3 C 22,8 C 27,8 C 55 % 1017,4 hPa 0,0 l/m 11,4 km/h (2 Bft) SW 220 2 min 0,000 mm 2,3 UV-I 618 W/m 11,0 C 18,5 C 14,5 km/h (3 Bft) 100,00 %
14.08.2019 15:44 20,1 C 22,8 C 27,8 C 56 % 1017,3 hPa 0,0 l/m 8,5 km/h (2 Bft) S-SW 210 0 min 0,000 mm 2,6 UV-I 247 W/m 11,0 C 19,3 C 12,9 km/h (3 Bft) 93,62 %
14.08.2019 15:46 20,2 C 22,8 C 29,4 C 59 % 1017,3 hPa 0,0 l/m 11,9 km/h (2 Bft) S-SO 163 2 min 0,000 mm 2,9 UV-I 526 W/m 11,9 C 18,3 C 17,7 km/h (3 Bft) 100,00 %
14.08.2019 15:48 20,3 C 22,8 C 30,6 C 56 % 1017,3 hPa 0,0 l/m 11,5 km/h (2 Bft) S 174 2 min 0,000 mm 3,0 UV-I 688 W/m 11,2 C 18,5 C 19,3 km/h (3 Bft) 100,00 %
14.08.2019 15:50 20,4 C 22,8 C 31,1 C 56 % 1017,3 hPa 0,0 l/m 11,5 km/h (2 Bft) SW 233 2 min 0,000 mm 2,9 UV-I 679 W/m 11,3 C 18,6 C 16,1 km/h (3 Bft) 97,87 %
14.08.2019 15:52 20,5 C 22,8 C 31,1 C 55 % 1017,3 hPa 0,0 l/m 9,8 km/h (2 Bft) S 179 2 min 0,000 mm 2,6 UV-I 685 W/m 11,1 C 19,3 C 14,5 km/h (3 Bft) 100,00 %
14.08.2019 15:54 20,4 C 22,8 C 29,4 C 55 % 1017,2 hPa 0,0 l/m 7,9 km/h (2 Bft) S-SW 209 0 min 0,000 mm 2,2 UV-I 258 W/m 11,1 C 19,8 C 14,5 km/h (3 Bft) 100,00 %
14.08.2019 15:56 20,3 C 22,8 C 30,6 C 56 % 1017,2 hPa 0,0 l/m 10,9 km/h (2 Bft) S-SW 202 2 min 0,000 mm 2,8 UV-I 529 W/m 11,2 C 18,7 C 16,1 km/h (3 Bft) 100,00 %
14.08.2019 15:58 20,4 C 22,8 C 31,1 C 56 % 1017,2 hPa 0,0 l/m 10,1 km/h (2 Bft) S-SW 212 2 min 0,000 mm 2,6 UV-I 647 W/m 11,3 C 19,1 C 16,1 km/h (3 Bft) 100,00 %
14.08.2019 16:00 20,4 C 22,8 C 28,3 C 55 % 1017,2 hPa 0,0 l/m 6,3 km/h (2 Bft) S 177 2 min 0,406 mm 1,9 UV-I 364 W/m 11,1 C 20,4 C 9,7 km/h (2 Bft) 97,87 %
14.08.2019 16:02 20,2 C 22,8 C 26,1 C 55 % 1017,2 hPa 0,0 l/m 13,4 km/h (3 Bft) S-SW 198 0 min 0,000 mm 1,7 UV-I 141 W/m 10,9 C 17,9 C 22,5 km/h (4 Bft) 100,00 %
14.08.2019 16:04 19,9 C 22,8 C 23,9 C 56 % 1017,2 hPa 0,0 l/m 9,0 km/h (2 Bft) SW 228 0 min 0,000 mm 1,7 UV-I 143 W/m 10,9 C 18,9 C 16,1 km/h (3 Bft) 100,00 %
14.08.2019 16:06 19,8 C 22,8 C 25,6 C 58 % 1017,1 hPa 0,0 l/m 6,5 km/h (2 Bft) S-SW 208 0 min 0,000 mm 2,2 UV-I 190 W/m 11,3 C 19,8 C 11,3 km/h (2 Bft) 93,62 %
14.08.2019 16:08 20,1 C 22,8 C 28,9 C 58 % 1017,1 hPa 0,0 l/m 6,9 km/h (2 Bft) S-SW 209 2 min 0,000 mm 2,6 UV-I 658 W/m 11,6 C 19,9 C 12,9 km/h (3 Bft) 98,00 %
14.08.2019 16:10 20,6 C 22,8 C 31,1 C 57 % 1017,1 hPa 0,0 l/m 7,4 km/h (2 Bft) S-SW 204 2 min 0,000 mm 2,6 UV-I 659 W/m 11,8 C 20,2 C 11,3 km/h (2 Bft) 97,87 %
14.08.2019 16:12 20,8 C 22,8 C 31,1 C 54 % 1017,1 hPa 0,0 l/m 7,0 km/h (2 Bft) W 269 2 min 0,000 mm 2,5 UV-I 651 W/m 11,1 C 20,6 C 11,3 km/h (2 Bft) 100,00 %
14.08.2019 16:14 20,7 C 22,8 C 31,1 C 53 % 1017,1 hPa 0,0 l/m 6,9 km/h (2 Bft) S 191 2 min 0,000 mm 2,3 UV-I 648 W/m 10,8 C 20,5 C 12,9 km/h (3 Bft) 100,00 %
14.08.2019 16:16 20,6 C 22,8 C 31,7 C 55 % 1017,1 hPa 0,0 l/m 5,0 km/h (1 Bft) S 181 2 min 0,000 mm 2,2 UV-I 638 W/m 11,2 C 20,6 C 8,0 km/h (2 Bft) 97,87 %
14.08.2019 16:18 20,5 C 22,8 C 31,7 C 53 % 1017,1 hPa 0,0 l/m 3,0 km/h (1 Bft) S-SW 196 2 min 0,000 mm 2,2 UV-I 633 W/m 10,6 C 20,5 C 4,8 km/h (1 Bft) 100,00 %
14.08.2019 16:20 20,7 C 22,8 C 32,2 C 56 % 1017,0 hPa 0,0 l/m 7,5 km/h (2 Bft) SW 216 2 min 0,000 mm 2,1 UV-I 641 W/m 11,6 C 20,3 C 14,5 km/h (3 Bft) 100,00 %
14.08.2019 16:22 20,8 C 22,8 C 32,8 C 53 % 1017,1 hPa 0,0 l/m 7,4 km/h (2 Bft) S-SW 205 2 min 0,000 mm 2,2 UV-I 670 W/m 10,9 C 20,4 C 11,3 km/h (2 Bft) 97,87 %
14.08.2019 16:24 20,9 C 22,8 C 32,8 C 53 % 1017,0 hPa 0,0 l/m 9,8 km/h (2 Bft) W 263 2 min 0,000 mm 2,3 UV-I 655 W/m 11,0 C 19,7 C 16,1 km/h (3 Bft) 100,00 %
14.08.2019 16:26 21,0 C 22,8 C 33,9 C 54 % 1017,0 hPa 0,0 l/m 5,2 km/h (1 Bft) W-SW 239 2 min 0,000 mm 2,3 UV-I 652 W/m 11,3 C 21,0 C 9,7 km/h (2 Bft) 100,00 %
14.08.2019 16:28 21,1 C 22,8 C 33,9 C 52 % 1017,0 hPa 0,0 l/m 5,9 km/h (2 Bft) S-SW 211 2 min 0,000 mm 2,3 UV-I 636 W/m 10,9 C 21,1 C 12,9 km/h (3 Bft) 100,00 %
14.08.2019 16:30 21,3 C 22,8 C 35,0 C 53 % 1017,0 hPa 0,0 l/m 7,5 km/h (2 Bft) S-SW 205 2 min 0,000 mm 2,2 UV-I 611 W/m 11,3 C 20,9 C 11,3 km/h (2 Bft) 100,00 %
14.08.2019 16:32 21,4 C 22,8 C 35,0 C 52 % 1017,0 hPa 0,0 l/m 7,5 km/h (2 Bft) S-SW 197 2 min 0,000 mm 2,1 UV-I 590 W/m 11,1 C 21,0 C 16,1 km/h (3 Bft) 97,87 %
14.08.2019 16:34 21,3 C 22,8 C 34,4 C 54 % 1017,0 hPa 0,0 l/m 6,5 km/h (2 Bft) S-SW 207 2 min 0,000 mm 2,1 UV-I 587 W/m 11,6 C 21,3 C 14,5 km/h (3 Bft) 95,74 %
14.08.2019 16:36 21,3 C 22,8 C 33,3 C 54 % 1016,9 hPa 0,0 l/m 10,3 km/h (2 Bft) S-SW 208 2 min 0,000 mm 2,0 UV-I 590 W/m 11,6 C 20,0 C 19,3 km/h (3 Bft) 100,00 %
14.08.2019 16:38 21,4 C 22,8 C 33,3 C 54 % 1017,0 hPa 0,0 l/m 11,9 km/h (2 Bft) SW 227 2 min 0,000 mm 2,1 UV-I 584 W/m 11,7 C 19,7 C 19,3 km/h (3 Bft) 97,87 %
14.08.2019 16:40 21,5 C 22,8 C 33,9 C 54 % 1017,0 hPa 0,0 l/m 6,7 km/h (2 Bft) SW 229 2 min 0,000 mm 2,0 UV-I 568 W/m 11,8 C 21,4 C 11,3 km/h (2 Bft) 94,74 %
14.08.2019 16:42 21,5 C 22,8 C 32,8 C 51 % 1017,0 hPa 0,0 l/m 13,0 km/h (3 Bft) W 273 2 min 0,000 mm 2,0 UV-I 556 W/m 10,9 C 19,5 C 20,9 km/h (4 Bft) 95,74 %
14.08.2019 16:44 21,4 C 22,8 C 32,8 C 54 % 1017,0 hPa 0,0 l/m 9,9 km/h (2 Bft) W-SW 244 2 min 0,000 mm 1,9 UV-I 549 W/m 11,7 C 20,2 C 16,1 km/h (3 Bft) 93,62 %
14.08.2019 16:46 21,5 C 22,8 C 32,8 C 52 % 1016,9 hPa 0,0 l/m 8,0 km/h (2 Bft) S-SW 208 2 min 0,000 mm 1,9 UV-I 553 W/m 11,2 C 20,9 C 14,5 km/h (3 Bft) 95,74 %
14.08.2019 16:48 21,4 C 22,8 C 32,2 C 52 % 1017,0 hPa 0,0 l/m 9,5 km/h (2 Bft) S-SW 206 2 min 0,000 mm 1,8 UV-I 556 W/m 11,1 C 20,3 C 14,5 km/h (3 Bft) 95,74 %
14.08.2019 16:50 21,2 C 22,8 C 31,7 C 52 % 1017,0 hPa 0,0 l/m 7,6 km/h (2 Bft) SW 236 2 min 0,000 mm 1,7 UV-I 559 W/m 10,9 C 20,8 C 14,5 km/h (3 Bft) 93,62 %
14.08.2019 16:52 21,1 C 22,8 C 30,0 C 54 % 1016,9 hPa 0,0 l/m 9,0 km/h (2 Bft) SW 225 2 min 0,000 mm 1,4 UV-I 301 W/m 11,4 C 20,2 C 12,9 km/h (3 Bft) 89,36 %
14.08.2019 16:54 20,8 C 22,8 C 27,8 C 54 % 1016,9 hPa 0,0 l/m 9,7 km/h (2 Bft) S-SW 207 0 min 0,000 mm 1,3 UV-I 158 W/m 11,1 C 19,6 C 12,9 km/h (3 Bft) 92,00 %
14.08.2019 16:56 20,5 C 22,8 C 25,6 C 54 % 1016,9 hPa 0,0 l/m 9,2 km/h (2 Bft) SW 221 0 min 0,000 mm 1,3 UV-I 148 W/m 10,9 C 19,5 C 16,1 km/h (3 Bft) 92,00 %
14.08.2019 16:58 20,2 C 22,8 C 24,4 C 55 % 1016,9 hPa 0,0 l/m 7,9 km/h (2 Bft) SW 234 0 min 0,000 mm 1,2 UV-I 143 W/m 10,9 C 19,6 C 12,9 km/h (3 Bft) 91,49 %
14.08.2019 17:00 20,1 C 22,8 C 25,0 C 56 % 1016,9 hPa 0,0 l/m 8,9 km/h (2 Bft) W-SW 252 2 min 0,000 mm 1,4 UV-I 299 W/m 11,0 C 19,1 C 16,1 km/h (3 Bft) 93,62 %
14.08.2019 17:02 20,1 C 22,8 C 27,2 C 56 % 1016,9 hPa 0,0 l/m 4,3 km/h (1 Bft) W-SW 254 2 min 0,356 mm 1,5 UV-I 476 W/m 11,0 C 20,1 C 8,0 km/h (2 Bft) 93,75 %
14.08.2019 17:04 20,2 C 22,8 C 27,8 C 57 % 1016,9 hPa 0,0 l/m 7,3 km/h (2 Bft) SW 221 2 min 0,000 mm 1,4 UV-I 490 W/m 11,4 C 19,8 C 12,9 km/h (3 Bft) 91,43 %
14.08.2019 17:06 20,4 C 22,8 C 28,9 C 57 % 1016,9 hPa 0,0 l/m 5,7 km/h (1 Bft) W-SW 256 2 min 0,000 mm 1,4 UV-I 326 W/m 11,6 C 20,4 C 12,9 km/h (3 Bft) 94,00 %
14.08.2019 17:08 20,6 C 22,8 C 29,4 C 55 % 1016,9 hPa 0,0 l/m 9,9 km/h (2 Bft) SW 221 2 min 0,000 mm 1,4 UV-I 484 W/m 11,2 C 19,3 C 14,5 km/h (3 Bft) 89,36 %
14.08.2019 17:10 20,7 C 22,8 C 29,4 C 55 % 1016,9 hPa 0,0 l/m 7,1 km/h (2 Bft) S-SW 211 2 min 0,000 mm 1,4 UV-I 313 W/m 11,3 C 20,4 C 11,3 km/h (2 Bft) 91,49 %
14.08.2019 17:12 20,8 C 22,8 C 30,6 C 56 % 1016,9 hPa 0,0 l/m 6,7 km/h (2 Bft) SW 224 2 min 0,000 mm 1,4 UV-I 398 W/m 11,7 C 20,7 C 11,3 km/h (2 Bft) 91,49 %
14.08.2019 17:14 20,9 C 22,8 C 31,1 C 55 % 1016,8 hPa 0,0 l/m 10,9 km/h (2 Bft) S-SO 160 2 min 0,000 mm 1,3 UV-I 454 W/m 11,5 C 19,4 C 19,3 km/h (3 Bft) 90,00 %
14.08.2019 17:16 20,9 C 22,8 C 31,1 C 55 % 1016,8 hPa 0,0 l/m 8,2 km/h (2 Bft) SW 219 2 min 0,000 mm 1,3 UV-I 461 W/m 11,5 C 20,2 C 12,9 km/h (3 Bft) 96,00 %
14.08.2019 17:18 20,8 C 22,8 C 31,7 C 56 % 1016,8 hPa 0,0 l/m 11,5 km/h (2 Bft) W 267 2 min 0,000 mm 1,3 UV-I 471 W/m 11,7 C 19,1 C 16,1 km/h (3 Bft) 98,00 %
14.08.2019 17:20 20,9 C 22,8 C 31,1 C 55 % 1016,8 hPa 0,0 l/m 10,8 km/h (2 Bft) SW 223 2 min 0,000 mm 1,3 UV-I 453 W/m 11,5 C 19,4 C 17,7 km/h (3 Bft) 97,37 %
14.08.2019 17:22 20,9 C 22,8 C 31,1 C 55 % 1016,8 hPa 0,0 l/m 8,1 km/h (2 Bft) SW 215 2 min 0,000 mm 1,3 UV-I 439 W/m 11,5 C 20,3 C 11,3 km/h (2 Bft) 96,00 %
14.08.2019 17:24 20,9 C 22,8 C 31,1 C 55 % 1016,8 hPa 0,0 l/m 4,8 km/h (1 Bft) S 186 2 min 0,000 mm 1,2 UV-I 439 W/m 11,5 C 20,9 C 6,4 km/h (2 Bft) 95,74 %
14.08.2019 17:26 20,9 C 22,8 C 32,2 C 55 % 1016,7 hPa 0,0 l/m 5,9 km/h (2 Bft) W-SW 244 2 min 0,000 mm 1,2 UV-I 440 W/m 11,5 C 20,9 C 12,9 km/h (3 Bft) 95,74 %
14.08.2019 17:28 21,1 C 22,8 C 32,8 C 55 % 1016,7 hPa 0,0 l/m 8,0 km/h (2 Bft) W 271 2 min 0,000 mm 1,2 UV-I 426 W/m 11,7 C 20,5 C 12,9 km/h (3 Bft) 96,00 %
14.08.2019 17:30 21,1 C 22,8 C 32,2 C 55 % 1016,7 hPa 0,0 l/m 7,2 km/h (2 Bft) W-SW 244 2 min 0,000 mm 1,2 UV-I 415 W/m 11,7 C 20,8 C 16,1 km/h (3 Bft) 95,74 %
14.08.2019 17:32 21,1 C 22,8 C 31,1 C 55 % 1016,7 hPa 0,0 l/m 11,7 km/h (2 Bft) S-SW 208 2 min 0,000 mm 1,1 UV-I 403 W/m 11,7 C 19,4 C 16,1 km/h (3 Bft) 93,62 %
14.08.2019 17:34 21,1 C 22,8 C 31,1 C 54 % 1016,7 hPa 0,0 l/m 8,8 km/h (2 Bft) SW 225 2 min 0,000 mm 1,1 UV-I 395 W/m 11,4 C 20,2 C 11,3 km/h (2 Bft) 100,00 %
14.08.2019 17:36 21,1 C 22,8 C 31,7 C 55 % 1016,7 hPa 0,0 l/m 9,3 km/h (2 Bft) W-SW 242 2 min 0,000 mm 1,1 UV-I 395 W/m 11,7 C 20,1 C 19,3 km/h (3 Bft) 96,00 %
14.08.2019 17:38 21,1 C 22,8 C 31,1 C 53 % 1016,7 hPa 0,0 l/m 9,1 km/h (2 Bft) W 279 2 min 0,000 mm 1,0 UV-I 397 W/m 11,1 C 20,1 C 14,5 km/h (3 Bft) 95,74 %
14.08.2019 17:40 21,2 C 22,8 C 31,1 C 54 % 1016,6 hPa 0,0 l/m 10,1 km/h (2 Bft) SW 227 2 min 0,000 mm 1,0 UV-I 391 W/m 11,5 C 19,9 C 16,1 km/h (3 Bft) 97,87 %
14.08.2019 17:42 21,3 C 22,8 C 31,1 C 53 % 1016,6 hPa 0,0 l/m 11,9 km/h (2 Bft) W-SW 251 2 min 0,000 mm 1,0 UV-I 375 W/m 11,3 C 19,6 C 17,7 km/h (3 Bft) 98,00 %
14.08.2019 17:44 21,2 C 22,8 C 30,0 C 53 % 1016,6 hPa 0,0 l/m 7,3 km/h (2 Bft) W 270 2 min 0,000 mm 0,9 UV-I 354 W/m 11,2 C 20,9 C 12,9 km/h (3 Bft) 95,74 %
14.08.2019 17:46 21,2 C 22,8 C 30,0 C 53 % 1016,7 hPa 0,0 l/m 7,4 km/h (2 Bft) W-SW 253 2 min 0,000 mm 0,9 UV-I 320 W/m 11,2 C 20,8 C 14,5 km/h (3 Bft) 98,00 %
14.08.2019 17:49 21,1 C 22,8 C 29,4 C 51 % 1016,6 hPa 0,0 l/m 9,0 km/h (2 Bft) W 275 3 min 0,000 mm 0,9 UV-I 341 W/m 10,6 C 20,2 C 14,5 km/h (3 Bft) 97,26 %
14.08.2019 17:50 21,0 C 22,8 C 28,9 C 52 % 1016,6 hPa 0,0 l/m 7,4 km/h (2 Bft) W 271 1 min 0,000 mm 0,8 UV-I 295 W/m 10,8 C 20,6 C 11,3 km/h (2 Bft) 100,00 %
14.08.2019 17:52 20,8 C 22,8 C 26,7 C 53 % 1016,7 hPa 0,0 l/m 8,3 km/h (2 Bft) W-NW 286 0 min 0,000 mm 0,7 UV-I 197 W/m 10,9 C 20,1 C 16,1 km/h (3 Bft) 96,00 %
14.08.2019 17:54 20,8 C 22,8 C 25,6 C 55 % 1016,6 hPa 0,0 l/m 7,7 km/h (2 Bft) SW 220 0 min 0,000 mm 0,7 UV-I 115 W/m 11,4 C 20,3 C 11,3 km/h (2 Bft) 97,87 %
14.08.2019 17:56 20,7 C 22,8 C 26,1 C 56 % 1016,6 hPa 0,0 l/m 6,5 km/h (2 Bft) W-SW 242 0 min 0,000 mm 0,7 UV-I 204 W/m 11,6 C 20,7 C 11,3 km/h (2 Bft) 97,87 %
14.08.2019 17:58 20,8 C 22,8 C 26,7 C 55 % 1016,7 hPa 0,0 l/m 8,0 km/h (2 Bft) W-SW 239 2 min 0,000 mm 0,7 UV-I 343 W/m 11,4 C 20,2 C 12,9 km/h (3 Bft) 93,62 %
14.08.2019 18:00 20,7 C 22,8 C 25,6 C 55 % 1016,6 hPa 0,0 l/m 7,7 km/h (2 Bft) W-SW 238 0 min 0,000 mm 0,6 UV-I 184 W/m 11,3 C 20,2 C 12,9 km/h (3 Bft) 100,00 %
14.08.2019 18:02 20,6 C 22,8 C 23,9 C 55 % 1016,6 hPa 0,0 l/m 6,1 km/h (2 Bft) SW 236 0 min 0,279 mm 0,6 UV-I 124 W/m 11,2 C 20,6 C 14,5 km/h (3 Bft) 95,74 %
14.08.2019 18:04 20,5 C 22,8 C 23,9 C 57 % 1016,6 hPa 0,0 l/m 5,1 km/h (1 Bft) SW 226 0 min 0,000 mm 0,5 UV-I 124 W/m 11,7 C 20,5 C 11,3 km/h (2 Bft) 97,87 %
14.08.2019 18:06 20,4 C 22,8 C 22,8 C 56 % 1016,6 hPa 0,0 l/m 4,9 km/h (1 Bft) S-SW 201 0 min 0,000 mm 0,5 UV-I 117 W/m 11,3 C 20,4 C 8,0 km/h (2 Bft) 100,00 %
14.08.2019 18:08 20,2 C 22,8 C 22,8 C 57 % 1016,6 hPa 0,0 l/m 7,0 km/h (2 Bft) W-SW 237 0 min 0,000 mm 0,5 UV-I 124 W/m 11,4 C 20,0 C 12,9 km/h (3 Bft) 97,87 %
14.08.2019 18:10 20,2 C 22,8 C 22,2 C 58 % 1016,6 hPa 0,0 l/m 6,5 km/h (2 Bft) W-SW 255 0 min 0,000 mm 0,5 UV-I 132 W/m 11,7 C 20,2 C 8,0 km/h (2 Bft) 100,00 %
14.08.2019 18:12 20,2 C 22,8 C 22,8 C 58 % 1016,6 hPa 0,0 l/m 4,2 km/h (1 Bft) W-SW 241 0 min 0,000 mm 0,5 UV-I 145 W/m 11,7 C 20,2 C 6,4 km/h (2 Bft) 97,87 %
14.08.2019 18:14 20,3 C 22,8 C 23,3 C 60 % 1016,6 hPa 0,0 l/m 4,6 km/h (1 Bft) W-SW 239 2 min 0,000 mm 0,5 UV-I 202 W/m 12,3 C 20,3 C 8,0 km/h (2 Bft) 100,00 %
14.08.2019 18:16 20,4 C 22,8 C 23,3 C 55 % 1016,5 hPa 0,0 l/m 5,6 km/h (1 Bft) W-SW 246 0 min 0,000 mm 0,5 UV-I 155 W/m 11,1 C 20,4 C 11,3 km/h (2 Bft) 95,74 %
14.08.2019 18:18 20,4 C 22,8 C 23,3 C 55 % 1016,5 hPa 0,0 l/m 5,7 km/h (1 Bft) SW 235 0 min 0,000 mm 0,5 UV-I 145 W/m 11,1 C 20,4 C 8,0 km/h (2 Bft) 100,00 %
14.08.2019 18:20 20,4 C 22,8 C 23,3 C 56 % 1016,5 hPa 0,0 l/m 5,2 km/h (1 Bft) S 184 2 min 0,000 mm 0,5 UV-I 248 W/m 11,3 C 20,4 C 6,4 km/h (2 Bft) 100,00 %
14.08.2019 18:22 20,3 C 22,8 C 23,3 C 55 % 1016,5 hPa 0,0 l/m 4,1 km/h (1 Bft) S-SW 209 2 min 0,000 mm 0,2 UV-I 209 W/m 11,0 C 20,3 C 6,4 km/h (2 Bft) 97,87 %
14.08.2019 18:24 20,3 C 22,8 C 22,8 C 55 % 1016,5 hPa 0,0 l/m 2,6 km/h (1 Bft) S-SW 209 0 min 0,000 mm 0,0 UV-I 146 W/m 11,0 C 20,3 C 6,4 km/h (2 Bft) 97,87 %
14.08.2019 18:26 20,2 C 22,8 C 22,8 C 56 % 1016,5 hPa 0,0 l/m 3,5 km/h (1 Bft) S-SW 209 0 min 0,000 mm 0,0 UV-I 104 W/m 11,1 C 20,2 C 4,8 km/h (1 Bft) 97,87 %
14.08.2019 18:28 20,1 C 22,8 C 22,2 C 56 % 1016,5 hPa 0,0 l/m 3,1 km/h (1 Bft) S-SW 209 0 min 0,000 mm 0,0 UV-I 94 W/m 11,0 C 20,1 C 4,8 km/h (1 Bft) 97,87 %
14.08.2019 18:30 20,1 C 22,8 C 22,2 C 57 % 1016,5 hPa 0,0 l/m 4,5 km/h (1 Bft) W-SW 240 0 min 0,000 mm 0,0 UV-I 156 W/m 11,3 C 20,1 C 8,0 km/h (2 Bft) 97,37 %
14.08.2019 18:32 20,1 C 22,8 C 21,7 C 56 % 1016,5 hPa 0,0 l/m 3,2 km/h (1 Bft) W-SW 250 0 min 0,000 mm 0,0 UV-I 134 W/m 11,0 C 20,1 C 6,4 km/h (2 Bft) 97,87 %
14.08.2019 18:34 20,1 C 22,8 C 21,7 C 57 % 1016,5 hPa 0,0 l/m 4,4 km/h (1 Bft) W-SW 238 0 min 0,000 mm 0,0 UV-I 118 W/m 11,3 C 20,1 C 6,4 km/h (2 Bft) 98,00 %
14.08.2019 18:36 20,1 C 22,8 C 21,1 C 56 % 1016,5 hPa 0,0 l/m 4,2 km/h (1 Bft) W-NW 290 0 min 0,000 mm 0,0 UV-I 101 W/m 11,0 C 20,1 C 6,4 km/h (2 Bft) 96,00 %
14.08.2019 18:38 20,1 C 22,8 C 21,1 C 57 % 1016,5 hPa 0,0 l/m 2,8 km/h (1 Bft) W-NW 289 0 min 0,000 mm 0,0 UV-I 97 W/m 11,3 C 20,1 C 4,8 km/h (1 Bft) 94,00 %
14.08.2019 18:40 19,9 C 22,8 C 21,1 C 57 % 1016,5 hPa 0,0 l/m 3,0 km/h (1 Bft) W-SW 244 0 min 0,000 mm 0,0 UV-I 91 W/m 11,1 C 19,9 C 4,8 km/h (1 Bft) 93,62 %
14.08.2019 18:42 19,9 C 22,8 C 21,1 C 58 % 1016,5 hPa 0,0 l/m 4,0 km/h (1 Bft) S-SW 213 0 min 0,000 mm 0,0 UV-I 88 W/m 11,4 C 19,9 C 6,4 km/h (2 Bft) 93,62 %
14.08.2019 18:44 19,8 C 22,8 C 20,6 C 57 % 1016,5 hPa 0,0 l/m 5,1 km/h (1 Bft) SW 215 0 min 0,000 mm 0,0 UV-I 87 W/m 11,0 C 19,8 C 6,4 km/h (2 Bft) 94,29 %
14.08.2019 18:46 19,8 C 22,8 C 20,6 C 57 % 1016,5 hPa 0,0 l/m 4,2 km/h (1 Bft) SW 217 0 min 0,000 mm 0,0 UV-I 108 W/m 11,0 C 19,8 C 6,4 km/h (2 Bft) 95,74 %
14.08.2019 18:48 19,8 C 22,8 C 20,6 C 58 % 1016,5 hPa 0,0 l/m 4,2 km/h (1 Bft) SW 219 2 min 0,000 mm 0,0 UV-I 157 W/m 11,3 C 19,8 C 6,4 km/h (2 Bft) 95,74 %
14.08.2019 18:50 20,0 C 22,8 C 20,6 C 59 % 1016,5 hPa 0,0 l/m 3,4 km/h (1 Bft) SW 236 2 min 0,000 mm 0,0 UV-I 150 W/m 11,7 C 20,0 C 4,8 km/h (1 Bft) 93,62 %
14.08.2019 18:52 20,1 C 22,8 C 21,1 C 57 % 1016,5 hPa 0,0 l/m 2,9 km/h (1 Bft) SW 236 2 min 0,000 mm 0,0 UV-I 164 W/m 11,3 C 20,1 C 4,8 km/h (1 Bft) 94,00 %
14.08.2019 18:54 20,2 C 22,8 C 21,1 C 58 % 1016,5 hPa 0,0 l/m 3,2 km/h (1 Bft) W 265 2 min 0,000 mm 0,0 UV-I 162 W/m 11,7 C 20,2 C 4,8 km/h (1 Bft) 95,83 %
14.08.2019 18:56 20,3 C 22,8 C 21,1 C 57 % 1016,5 hPa 0,0 l/m 6,1 km/h (2 Bft) W-SW 240 2 min 0,000 mm 0,0 UV-I 148 W/m 11,5 C 20,3 C 12,9 km/h (3 Bft) 97,87 %
14.08.2019 18:58 20,3 C 22,8 C 21,1 C 57 % 1016,5 hPa 0,0 l/m 7,9 km/h (2 Bft) S-SW 213 0 min 0,000 mm 0,0 UV-I 111 W/m 11,5 C 19,7 C 14,5 km/h (3 Bft) 96,00 %
14.08.2019 19:00 20,2 C 22,8 C 20,6 C 55 % 1016,5 hPa 0,0 l/m 6,4 km/h (2 Bft) W-SW 244 0 min 0,000 mm 0,0 UV-I 70 W/m 10,9 C 20,2 C 9,7 km/h (2 Bft) 95,74 %
14.08.2019 19:02 20,1 C 22,8 C 20,6 C 57 % 1016,5 hPa 0,0 l/m 5,1 km/h (1 Bft) S-SW 212 0 min 0,102 mm 0,0 UV-I 70 W/m 11,3 C 20,1 C 8,0 km/h (2 Bft) 96,00 %
14.08.2019 19:04 20,1 C 22,8 C 20,6 C 59 % 1016,5 hPa 0,0 l/m 3,4 km/h (1 Bft) SW 236 0 min 0,000 mm 0,0 UV-I 77 W/m 11,8 C 20,1 C 6,4 km/h (2 Bft) 95,74 %
14.08.2019 19:06 20,0 C 22,8 C 20,6 C 59 % 1016,5 hPa 0,0 l/m 3,4 km/h (1 Bft) SW 236 0 min 0,000 mm 0,0 UV-I 81 W/m 11,7 C 20,0 C 6,4 km/h (2 Bft) 97,14 %
14.08.2019 19:08 19,9 C 22,8 C 20,0 C 60 % 1016,5 hPa 0,0 l/m 4,5 km/h (1 Bft) W-SW 252 0 min 0,000 mm 0,0 UV-I 78 W/m 11,9 C 19,9 C 6,4 km/h (2 Bft) 100,00 %
14.08.2019 19:10 19,9 C 22,8 C 20,0 C 60 % 1016,5 hPa 0,0 l/m 4,1 km/h (1 Bft) W-SW 252 0 min 0,000 mm 0,0 UV-I 94 W/m 11,9 C 19,9 C 6,4 km/h (2 Bft) 96,00 %
14.08.2019 19:12 19,8 C 22,8 C 20,0 C 60 % 1016,6 hPa 0,0 l/m 3,2 km/h (1 Bft) W-SW 252 2 min 0,000 mm 0,0 UV-I 117 W/m 11,8 C 19,8 C 6,4 km/h (2 Bft) 100,00 %
14.08.2019 19:14 19,8 C 22,8 C 20,0 C 59 % 1016,5 hPa 0,0 l/m 4,9 km/h (1 Bft) W-SW 239 2 min 0,000 mm 0,0 UV-I 119 W/m 11,6 C 19,8 C 9,7 km/h (2 Bft) 100,00 %
14.08.2019 19:16 19,8 C 22,8 C 20,0 C 59 % 1016,6 hPa 0,0 l/m 7,1 km/h (2 Bft) W-SW 244 2 min 0,000 mm 0,0 UV-I 116 W/m 11,6 C 19,5 C 9,7 km/h (2 Bft) 100,00 %
14.08.2019 19:18 19,8 C 22,8 C 20,0 C 58 % 1016,6 hPa 0,0 l/m 5,8 km/h (2 Bft) W-SW 240 2 min 0,000 mm 0,0 UV-I 110 W/m 11,3 C 19,8 C 8,0 km/h (2 Bft) 98,00 %
14.08.2019 19:20 19,8 C 22,8 C 20,0 C 58 % 1016,5 hPa 0,0 l/m 6,8 km/h (2 Bft) W 260 2 min 0,000 mm 0,0 UV-I 105 W/m 11,3 C 19,6 C 9,7 km/h (2 Bft) 100,00 %
14.08.2019 19:22 19,8 C 22,8 C 19,4 C 59 % 1016,6 hPa 0,0 l/m 3,8 km/h (1 Bft) S-SW 213 2 min 0,000 mm 0,0 UV-I 103 W/m 11,6 C 19,8 C 6,4 km/h (2 Bft) 96,00 %
14.08.2019 19:24 19,8 C 22,8 C 19,4 C 59 % 1016,5 hPa 0,0 l/m 4,0 km/h (1 Bft) W-SW 246 2 min 0,000 mm 0,0 UV-I 97 W/m 11,6 C 19,8 C 4,8 km/h (1 Bft) 98,00 %
14.08.2019 19:26 19,8 C 22,8 C 19,4 C 59 % 1016,5 hPa 0,0 l/m 4,1 km/h (1 Bft) SW 227 2 min 0,000 mm 0,0 UV-I 89 W/m 11,6 C 19,8 C 6,4 km/h (2 Bft) 97,87 %
14.08.2019 19:28 19,7 C 22,8 C 18,9 C 59 % 1016,6 hPa 0,0 l/m 5,2 km/h (1 Bft) W-SW 239 2 min 0,000 mm 0,0 UV-I 83 W/m 11,5 C 19,7 C 8,0 km/h (2 Bft) 100,00 %
14.08.2019 19:30 19,7 C 22,8 C 18,9 C 59 % 1016,5 hPa 0,0 l/m 4,2 km/h (1 Bft) W-SW 238 2 min 0,000 mm 0,0 UV-I 80 W/m 11,5 C 19,7 C 6,4 km/h (2 Bft) 100,00 %
14.08.2019 19:32 19,6 C 22,8 C 18,9 C 60 % 1016,6 hPa 0,0 l/m 2,8 km/h (1 Bft) W-SW 240 2 min 0,000 mm 0,0 UV-I 76 W/m 11,6 C 19,6 C 6,4 km/h (2 Bft) 100,00 %
14.08.2019 19:34 19,6 C 22,8 C 18,9 C 60 % 1016,5 hPa 0,0 l/m 4,6 km/h (1 Bft) SW 227 2 min 0,000 mm 0,0 UV-I 72 W/m 11,6 C 19,6 C 6,4 km/h (2 Bft) 97,87 %
14.08.2019 19:36 19,4 C 22,8 C 18,9 C 60 % 1016,5 hPa 0,0 l/m 3,1 km/h (1 Bft) SW 227 2 min 0,000 mm 0,0 UV-I 68 W/m 11,4 C 19,4 C 4,8 km/h (1 Bft) 100,00 %
14.08.2019 19:38 19,4 C 22,8 C 18,3 C 61 % 1016,5 hPa 0,0 l/m 2,9 km/h (1 Bft) SW 227 2 min 0,000 mm 0,0 UV-I 64 W/m 11,7 C 19,4 C 4,8 km/h (1 Bft) 93,62 %
14.08.2019 19:40 19,4 C 22,8 C 18,3 C 61 % 1016,5 hPa 0,0 l/m 1,4 km/h (1 Bft) SW 227 2 min 0,000 mm 0,0 UV-I 61 W/m 11,7 C 19,4 C 3,2 km/h (1 Bft) 97,87 %
14.08.2019 19:42 19,3 C 22,8 C 18,3 C 61 % 1016,5 hPa 0,0 l/m 0,5 km/h (0 Bft) SW 227 2 min 0,000 mm 0,0 UV-I 57 W/m 11,6 C 19,3 C 1,6 km/h (1 Bft) 100,00 %
14.08.2019 19:44 19,2 C 22,8 C 17,8 C 65 % 1016,5 hPa 0,0 l/m 0,2 km/h (0 Bft) SW 227 2 min 0,000 mm 0,0 UV-I 54 W/m 12,5 C 19,2 C 1,6 km/h (1 Bft) 97,87 %
14.08.2019 19:46 18,9 C 22,8 C 17,8 C 65 % 1016,5 hPa 0,0 l/m 0,4 km/h (0 Bft) SW 227 2 min 0,000 mm 0,0 UV-I 52 W/m 12,2 C 18,9 C 3,2 km/h (1 Bft) 95,74 %
14.08.2019 19:48 18,7 C 22,8 C 17,2 C 67 % 1016,5 hPa 0,0 l/m 0,8 km/h (0 Bft) SW 227 2 min 0,000 mm 0,0 UV-I 49 W/m 12,4 C 18,7 C 3,2 km/h (1 Bft) 97,87 %
14.08.2019 19:50 18,5 C 22,8 C 16,7 C 68 % 1016,5 hPa 0,0 l/m 0,7 km/h (0 Bft) SW 227 2 min 0,000 mm 0,0 UV-I 46 W/m 12,5 C 18,5 C 1,6 km/h (1 Bft) 100,00 %
14.08.2019 19:52 18,4 C 22,8 C 16,7 C 68 % 1016,6 hPa 0,0 l/m 1,4 km/h (1 Bft) SW 227 2 min 0,000 mm 0,0 UV-I 44 W/m 12,4 C 18,4 C 3,2 km/h (1 Bft) 97,87 %
14.08.2019 19:54 18,3 C 22,8 C 16,7 C 69 % 1016,6 hPa 0,0 l/m 0,2 km/h (0 Bft) SW 227 2 min 0,000 mm 0,0 UV-I 38 W/m 12,5 C 18,3 C 1,6 km/h (1 Bft) 97,87 %
14.08.2019 19:56 18,2 C 22,8 C 16,1 C 70 % 1016,6 hPa 0,0 l/m 1,4 km/h (1 Bft) SW 227 2 min 0,000 mm 0,0 UV-I 33 W/m 12,6 C 18,2 C 1,6 km/h (1 Bft) 98,00 %
14.08.2019 19:58 18,1 C 22,8 C 16,1 C 73 % 1016,6 hPa 0,0 l/m 1,5 km/h (1 Bft) SW 227 2 min 0,000 mm 0,0 UV-I 29 W/m 13,2 C 18,1 C 1,6 km/h (1 Bft) 97,87 %
14.08.2019 20:00 17,8 C 22,8 C 16,1 C 74 % 1016,6 hPa 0,0 l/m 2,2 km/h (1 Bft) SW 227 2 min 0,000 mm 0,0 UV-I 25 W/m 13,1 C 17,8 C 3,2 km/h (1 Bft) 97,87 %
14.08.2019 20:02 17,6 C 22,8 C 15,6 C 76 % 1016,6 hPa 0,0 l/m 2,6 km/h (1 Bft) SW 227 2 min 0,076 mm 0,0 UV-I 23 W/m 13,3 C 17,6 C 3,2 km/h (1 Bft) 97,37 %
14.08.2019 20:04 17,3 C 22,8 C 15,6 C 76 % 1016,6 hPa 0,0 l/m 2,8 km/h (1 Bft) SW 227 2 min 0,000 mm 0,0 UV-I 21 W/m 13,0 C 17,3 C 3,2 km/h (1 Bft) 97,87 %
14.08.2019 20:06 17,2 C 22,8 C 15,6 C 75 % 1016,6 hPa 0,0 l/m 1,9 km/h (1 Bft) SW 227 2 min 0,000 mm 0,0 UV-I 20 W/m 12,7 C 17,2 C 3,2 km/h (1 Bft) 98,00 %
14.08.2019 20:08 17,2 C 22,8 C 15,6 C 73 % 1016,7 hPa 0,0 l/m 1,9 km/h (1 Bft) SW 226 2 min 0,000 mm 0,0 UV-I 18 W/m 12,3 C 17,2 C 3,2 km/h (1 Bft) 95,74 %
14.08.2019 20:10 17,1 C 22,8 C 15,6 C 74 % 1016,7 hPa 0,0 l/m 1,8 km/h (1 Bft) SW 226 0 min 0,000 mm 0,0 UV-I 16 W/m 12,4 C 17,1 C 3,2 km/h (1 Bft) 97,92 %
14.08.2019 20:12 16,9 C 22,8 C 15,0 C 75 % 1016,7 hPa 0,0 l/m 2,9 km/h (1 Bft) SW 226 0 min 0,000 mm 0,0 UV-I 14 W/m 12,4 C 16,9 C 3,2 km/h (1 Bft) 95,74 %
14.08.2019 20:14 16,7 C 22,8 C 15,0 C 76 % 1016,7 hPa 0,0 l/m 3,6 km/h (1 Bft) SW 226 0 min 0,000 mm 0,0 UV-I 13 W/m 12,4 C 16,7 C 4,8 km/h (1 Bft) 97,87 %
14.08.2019 20:16 16,6 C 22,8 C 15,0 C 78 % 1016,7 hPa 0,0 l/m 3,2 km/h (1 Bft) SW 226 0 min 0,000 mm 0,0 UV-I 12 W/m 12,7 C 16,6 C 4,8 km/h (1 Bft) 97,87 %
14.08.2019 20:18 16,3 C 22,8 C 15,0 C 79 % 1016,7 hPa 0,0 l/m 2,4 km/h (1 Bft) SW 226 0 min 0,000 mm 0,0 UV-I 11 W/m 12,6 C 16,3 C 3,2 km/h (1 Bft) 98,00 %
14.08.2019 20:20 16,2 C 22,8 C 14,4 C 79 % 1016,8 hPa 0,0 l/m 1,6 km/h (1 Bft) SW 226 0 min 0,000 mm 0,0 UV-I 10 W/m 12,6 C 16,2 C 3,2 km/h (1 Bft) 100,00 %
14.08.2019 20:22 16,0 C 22,8 C 14,4 C 79 % 1016,8 hPa 0,0 l/m 2,0 km/h (1 Bft) SW 226 0 min 0,000 mm 0,0 UV-I 9 W/m 12,4 C 16,0 C 3,2 km/h (1 Bft) 97,87 %
14.08.2019 20:24 15,9 C 22,8 C 14,4 C 80 % 1016,7 hPa 0,0 l/m 2,3 km/h (1 Bft) SW 226 0 min 0,000 mm 0,0 UV-I 7 W/m 12,5 C 15,9 C 3,2 km/h (1 Bft) 100,00 %
14.08.2019 20:26 15,8 C 22,8 C 14,4 C 80 % 1016,8 hPa 0,0 l/m 2,3 km/h (1 Bft) SW 226 0 min 0,000 mm 0,0 UV-I 7 W/m 12,4 C 15,8 C 3,2 km/h (1 Bft) 100,00 %
14.08.2019 20:29 15,6 C 22,8 C 13,9 C 81 % 1016,8 hPa 0,0 l/m 2,4 km/h (1 Bft) SW 226 0 min 0,000 mm 0,0 UV-I 6 W/m 12,3 C 15,6 C 3,2 km/h (1 Bft) 98,63 %
14.08.2019 20:30 15,6 C 22,8 C 13,9 C 80 % 1016,8 hPa 0,0 l/m 2,7 km/h (1 Bft) SW 226 0 min 0,000 mm 0,0 UV-I 5 W/m 12,2 C 15,6 C 3,2 km/h (1 Bft) 100,00 %
14.08.2019 20:32 15,5 C 22,8 C 13,9 C 80 % 1016,8 hPa 0,0 l/m 2,3 km/h (1 Bft) SW 226 0 min 0,000 mm 0,0 UV-I 5 W/m 12,1 C 15,5 C 3,2 km/h (1 Bft) 97,87 %
14.08.2019 20:34 15,4 C 22,8 C 13,9 C 79 % 1016,8 hPa 0,0 l/m 2,1 km/h (1 Bft) SW 226 0 min 0,000 mm 0,0 UV-I 5 W/m 11,8 C 15,4 C 3,2 km/h (1 Bft) 95,74 %
14.08.2019 20:36 15,5 C 22,8 C 13,3 C 80 % 1016,9 hPa 0,0 l/m 1,9 km/h (1 Bft) SW 226 0 min 0,000 mm 0,0 UV-I 0 W/m 12,1 C 15,5 C 3,2 km/h (1 Bft) 95,74 %
14.08.2019 20:38 15,4 C 22,8 C 13,3 C 81 % 1016,8 hPa 0,0 l/m 2,1 km/h (1 Bft) SW 226 0 min 0,000 mm 0,0 UV-I 0 W/m 12,2 C 15,4 C 3,2 km/h (1 Bft) 97,87 %
14.08.2019 20:40 15,3 C 22,8 C 13,3 C 81 % 1016,9 hPa 0,0 l/m 1,8 km/h (1 Bft) SW 226 0 min 0,000 mm 0,0 UV-I 0 W/m 12,1 C 15,3 C 3,2 km/h (1 Bft) 98,00 %
14.08.2019 20:42 15,3 C 22,8 C 13,3 C 79 % 1016,8 hPa 0,0 l/m 3,6 km/h (1 Bft) SW 226 0 min 0,000 mm 0,0 UV-I 0 W/m 11,7 C 15,3 C 4,8 km/h (1 Bft) 97,87 %
14.08.2019 20:44 15,3 C 22,8 C 13,3 C 80 % 1016,9 hPa 0,0 l/m 3,4 km/h (1 Bft) SW 226 0 min 0,000 mm 0,0 UV-I 0 W/m 11,9 C 15,3 C 4,8 km/h (1 Bft) 95,74 %
14.08.2019 20:46 15,3 C 22,8 C 12,8 C 79 % 1016,9 hPa 0,0 l/m 2,8 km/h (1 Bft) SW 226 0 min 0,000 mm 0,0 UV-I 0 W/m 11,7 C 15,3 C 3,2 km/h (1 Bft) 97,87 %
14.08.2019 20:48 15,3 C 22,8 C 13,3 C 80 % 1016,9 hPa 0,0 l/m 2,3 km/h (1 Bft) SW 226 0 min 0,000 mm 0,0 UV-I 0 W/m 11,9 C 15,3 C 3,2 km/h (1 Bft) 97,87 %
14.08.2019 20:50 15,2 C 22,8 C 13,3 C 81 % 1016,9 hPa 0,0 l/m 3,3 km/h (1 Bft) SW 226 0 min 0,000 mm 0,0 UV-I 0 W/m 12,0 C 15,2 C 4,8 km/h (1 Bft) 95,74 %
14.08.2019 20:52 15,2 C 22,8 C 13,3 C 81 % 1016,9 hPa 0,0 l/m 3,4 km/h (1 Bft) SW 226 0 min 0,000 mm 0,0 UV-I 0 W/m 12,0 C 15,2 C 4,8 km/h (1 Bft) 95,83 %
14.08.2019 20:54 15,2 C 22,8 C 13,3 C 80 % 1016,9 hPa 0,0 l/m 3,3 km/h (1 Bft) SW 226 0 min 0,000 mm 0,0 UV-I 0 W/m 11,8 C 15,2 C 4,8 km/h (1 Bft) 97,87 %
14.08.2019 20:56 15,1 C 22,8 C 13,3 C 80 % 1017,0 hPa 0,0 l/m 2,9 km/h (1 Bft) SW 226 0 min 0,000 mm 0,0 UV-I 0 W/m 11,7 C 15,1 C 3,2 km/h (1 Bft) 98,00 %
14.08.2019 20:58 15,0 C 22,8 C 12,8 C 80 % 1017,0 hPa 0,0 l/m 2,5 km/h (1 Bft) SW 226 0 min 0,000 mm 0,0 UV-I 0 W/m 11,6 C 15,0 C 3,2 km/h (1 Bft) 94,29 %
14.08.2019 21:00 14,9 C 22,8 C 12,8 C 80 % 1017,0 hPa 0,0 l/m 1,9 km/h (1 Bft) SW 226 0 min 0,000 mm 0,0 UV-I 0 W/m 11,5 C 14,9 C 3,2 km/h (1 Bft) 94,55 %
14.08.2019 21:02 14,9 C 22,8 C 12,8 C 80 % 1017,0 hPa 0,0 l/m 1,3 km/h (1 Bft) SW 226 0 min 0,026 mm 0,0 UV-I 0 W/m 11,5 C 14,9 C 3,2 km/h (1 Bft) 96,00 %
14.08.2019 21:04 14,9 C 22,8 C 12,8 C 80 % 1017,0 hPa 0,0 l/m 1,9 km/h (1 Bft) SW 226 0 min 0,000 mm 0,0 UV-I 0 W/m 11,5 C 14,9 C 3,2 km/h (1 Bft) 94,29 %
14.08.2019 21:06 14,9 C 22,8 C 12,8 C 81 % 1017,1 hPa 0,0 l/m 2,6 km/h (1 Bft) SW 226 0 min 0,000 mm 0,0 UV-I 0 W/m 11,7 C 14,9 C 3,2 km/h (1 Bft) 96,23 %
14.08.2019 21:09 14,7 C 22,8 C 12,8 C 83 % 1017,1 hPa 0,0 l/m 3,2 km/h (1 Bft) SW 226 0 min 0,000 mm 0,0 UV-I 0 W/m 11,8 C 14,7 C 4,8 km/h (1 Bft) 95,77 %
14.08.2019 21:10 14,7 C 22,8 C 12,8 C 83 % 1017,1 hPa 0,0 l/m 3,8 km/h (1 Bft) SW 226 0 min 0,000 mm 0,0 UV-I 0 W/m 11,8 C 14,7 C 4,8 km/h (1 Bft) 91,30 %
14.08.2019 21:12 14,7 C 22,8 C 12,8 C 82 % 1017,1 hPa 0,0 l/m 4,2 km/h (1 Bft) SW 226 0 min 0,000 mm 0,0 UV-I 0 W/m 11,7 C 14,7 C 4,8 km/h (1 Bft) 94,00 %
14.08.2019 21:14 14,7 C 22,8 C 12,8 C 82 % 1017,2 hPa 0,0 l/m 3,9 km/h (1 Bft) SW 226 0 min 0,000 mm 0,0 UV-I 0 W/m 11,7 C 14,7 C 4,8 km/h (1 Bft) 97,87 %
14.08.2019 21:16 14,7 C 22,8 C 12,8 C 82 % 1017,2 hPa 0,0 l/m 4,0 km/h (1 Bft) S 191 0 min 0,000 mm 0,0 UV-I 0 W/m 11,7 C 14,7 C 4,8 km/h (1 Bft) 95,74 %
14.08.2019 21:19 14,8 C 22,8 C 12,8 C 81 % 1017,2 hPa 0,0 l/m 3,2 km/h (1 Bft) S 191 0 min 0,000 mm 0,0 UV-I 0 W/m 11,6 C 14,8 C 4,8 km/h (1 Bft) 97,18 %
14.08.2019 21:20 14,8 C 22,8 C 12,8 C 81 % 1017,2 hPa 0,0 l/m 2,5 km/h (1 Bft) S 191 0 min 0,000 mm 0,0 UV-I 0 W/m 11,6 C 14,8 C 3,2 km/h (1 Bft) 95,65 %
14.08.2019 21:22 14,9 C 22,8 C 12,8 C 81 % 1017,2 hPa 0,0 l/m 2,7 km/h (1 Bft) S 191 0 min 0,000 mm 0,0 UV-I 0 W/m 11,7 C 14,9 C 3,2 km/h (1 Bft) 97,87 %
14.08.2019 21:24 14,9 C 22,8 C 12,8 C 81 % 1017,2 hPa 0,0 l/m 3,1 km/h (1 Bft) S 191 0 min 0,000 mm 0,0 UV-I 0 W/m 11,7 C 14,9 C 4,8 km/h (1 Bft) 93,62 %
14.08.2019 21:26 15,0 C 22,8 C 12,8 C 81 % 1017,2 hPa 0,0 l/m 2,7 km/h (1 Bft) S 191 0 min 0,000 mm 0,0 UV-I 0 W/m 11,8 C 15,0 C 4,8 km/h (1 Bft) 92,31 %
14.08.2019 21:29 14,9 C 22,8 C 12,8 C 81 % 1017,3 hPa 0,0 l/m 2,8 km/h (1 Bft) S 191 0 min 0,000 mm 0,0 UV-I 0 W/m 11,7 C 14,9 C 4,8 km/h (1 Bft) 94,29 %
14.08.2019 21:30 14,9 C 22,8 C 12,2 C 81 % 1017,3 hPa 0,0 l/m 3,1 km/h (1 Bft) S 191 0 min 0,000 mm 0,0 UV-I 0 W/m 11,7 C 14,9 C 3,2 km/h (1 Bft) 95,83 %
14.08.2019 21:32 14,9 C 22,8 C 12,2 C 82 % 1017,3 hPa 0,0 l/m 2,0 km/h (1 Bft) S 191 0 min 0,000 mm 0,0 UV-I 0 W/m 11,9 C 14,9 C 3,2 km/h (1 Bft) 93,62 %
14.08.2019 21:34 14,9 C 22,8 C 12,2 C 82 % 1017,3 hPa 0,0 l/m 3,4 km/h (1 Bft) S 191 0 min 0,000 mm 0,0 UV-I 0 W/m 11,9 C 14,9 C 4,8 km/h (1 Bft) 94,00 %
14.08.2019 21:36 14,8 C 22,8 C 12,8 C 82 % 1017,4 hPa 0,0 l/m 3,4 km/h (1 Bft) S 191 0 min 0,000 mm 0,0 UV-I 0 W/m 11,8 C 14,8 C 4,8 km/h (1 Bft) 95,12 %
14.08.2019 21:38 14,9 C 22,8 C 12,8 C 82 % 1017,4 hPa 0,0 l/m 2,6 km/h (1 Bft) S 191 0 min 0,000 mm 0,0 UV-I 0 W/m 11,9 C 14,9 C 4,8 km/h (1 Bft) 96,00 %
14.08.2019 21:40 14,9 C 22,8 C 12,8 C 82 % 1017,3 hPa 0,0 l/m 2,6 km/h (1 Bft) S 190 0 min 0,000 mm 0,0 UV-I 0 W/m 11,9 C 14,9 C 3,2 km/h (1 Bft) 95,74 %
14.08.2019 21:42 15,0 C 22,8 C 12,8 C 82 % 1017,3 hPa 0,0 l/m 2,6 km/h (1 Bft) S 190 0 min 0,000 mm 0,0 UV-I 0 W/m 12,0 C 15,0 C 3,2 km/h (1 Bft) 94,00 %
14.08.2019 21:44 14,9 C 22,8 C 13,3 C 83 % 1017,3 hPa 0,0 l/m 2,4 km/h (1 Bft) S 190 0 min 0,000 mm 0,0 UV-I 0 W/m 12,0 C 14,9 C 3,2 km/h (1 Bft) 94,00 %
14.08.2019 21:46 14,7 C 22,8 C 13,3 C 83 % 1017,3 hPa 0,0 l/m 3,1 km/h (1 Bft) S 190 0 min 0,000 mm 0,0 UV-I 0 W/m 11,8 C 14,7 C 4,8 km/h (1 Bft) 95,74 %
14.08.2019 21:48 14,7 C 22,2 C 13,3 C 84 % 1017,4 hPa 0,0 l/m 3,4 km/h (1 Bft) S 190 0 min 0,000 mm 0,0 UV-I 0 W/m 12,0 C 14,7 C 4,8 km/h (1 Bft) 95,74 %
14.08.2019 21:50 14,5 C 22,8 C 13,3 C 84 % 1017,3 hPa 0,0 l/m 3,9 km/h (1 Bft) S 189 0 min 0,000 mm 0,0 UV-I 0 W/m 11,8 C 14,5 C 6,4 km/h (2 Bft) 95,74 %
14.08.2019 21:52 14,4 C 22,8 C 13,3 C 84 % 1017,3 hPa 0,0 l/m 4,9 km/h (1 Bft) S 188 0 min 0,000 mm 0,0 UV-I 0 W/m 11,7 C 14,4 C 6,4 km/h (2 Bft) 97,37 %
14.08.2019 21:54 14,5 C 22,2 C 13,3 C 84 % 1017,3 hPa 0,0 l/m 4,1 km/h (1 Bft) S 182 0 min 0,000 mm 0,0 UV-I 0 W/m 11,8 C 14,5 C 6,4 km/h (2 Bft) 96,23 %
14.08.2019 21:56 14,7 C 22,2 C 13,3 C 83 % 1017,3 hPa 0,0 l/m 4,2 km/h (1 Bft) S 177 0 min 0,000 mm 0,0 UV-I 0 W/m 11,8 C 14,7 C 6,4 km/h (2 Bft) 100,00 %
14.08.2019 21:58 14,8 C 22,2 C 13,9 C 82 % 1017,3 hPa 0,0 l/m 5,3 km/h (1 Bft) S 175 0 min 0,000 mm 0,0 UV-I 0 W/m 11,8 C 14,8 C 6,4 km/h (2 Bft) 97,87 %
14.08.2019 22:00 14,9 C 22,2 C 13,9 C 81 % 1017,3 hPa 0,0 l/m 5,6 km/h (1 Bft) S 175 0 min 0,000 mm 0,0 UV-I 0 W/m 11,7 C 14,9 C 9,7 km/h (2 Bft) 97,87 %
14.08.2019 22:02 15,0 C 22,2 C 13,9 C 81 % 1017,3 hPa 0,0 l/m 4,8 km/h (1 Bft) S 182 0 min 0,000 mm 0,0 UV-I 0 W/m 11,8 C 15,0 C 6,4 km/h (2 Bft) 100,00 %
14.08.2019 22:04 15,1 C 22,2 C 13,9 C 80 % 1017,3 hPa 0,0 l/m 4,8 km/h (1 Bft) S 182 0 min 0,000 mm 0,0 UV-I 0 W/m 11,7 C 15,1 C 6,4 km/h (2 Bft) 95,74 %
14.08.2019 22:06 15,1 C 22,2 C 13,9 C 80 % 1017,3 hPa 0,0 l/m 4,4 km/h (1 Bft) S 190 0 min 0,000 mm 0,0 UV-I 0 W/m 11,7 C 15,1 C 6,4 km/h (2 Bft) 100,00 %
14.08.2019 22:09 15,0 C 22,2 C 13,9 C 80 % 1017,3 hPa 0,0 l/m 4,9 km/h (1 Bft) S 180 0 min 0,000 mm 0,0 UV-I 0 W/m 11,6 C 15,0 C 8,0 km/h (2 Bft) 96,92 %
14.08.2019 22:10 15,0 C 22,2 C 13,9 C 80 % 1017,3 hPa 0,0 l/m 3,8 km/h (1 Bft) S-SW 196 0 min 0,000 mm 0,0 UV-I 0 W/m 11,6 C 15,0 C 4,8 km/h (1 Bft) 95,83 %
14.08.2019 22:12 14,9 C 22,2 C 13,9 C 80 % 1017,3 hPa 0,0 l/m 3,4 km/h (1 Bft) S 177 0 min 0,000 mm 0,0 UV-I 0 W/m 11,5 C 14,9 C 4,8 km/h (1 Bft) 97,87 %
14.08.2019 22:14 14,9 C 22,2 C 13,9 C 80 % 1017,3 hPa 0,0 l/m 4,8 km/h (1 Bft) S-SW 192 0 min 0,000 mm 0,0 UV-I 0 W/m 11,5 C 14,9 C 9,7 km/h (2 Bft) 97,87 %
14.08.2019 22:16 14,8 C 22,2 C 13,9 C 81 % 1017,3 hPa 0,0 l/m 4,2 km/h (1 Bft) S-SW 192 0 min 0,000 mm 0,0 UV-I 0 W/m 11,6 C 14,8 C 6,4 km/h (2 Bft) 100,00 %
14.08.2019 22:19 14,8 C 22,2 C 13,9 C 81 % 1017,3 hPa 0,0 l/m 4,3 km/h (1 Bft) S-SW 193 0 min 0,000 mm 0,0 UV-I 0 W/m 11,6 C 14,8 C 6,4 km/h (2 Bft) 97,14 %
14.08.2019 22:20 14,8 C 22,2 C 13,3 C 81 % 1017,3 hPa 0,0 l/m 4,4 km/h (1 Bft) S-SW 194 0 min 0,000 mm 0,0 UV-I 0 W/m 11,6 C 14,8 C 4,8 km/h (1 Bft) 100,00 %
14.08.2019 22:22 14,7 C 22,2 C 13,3 C 81 % 1017,3 hPa 0,0 l/m 3,2 km/h (1 Bft) S-SW 196 0 min 0,000 mm 0,0 UV-I 0 W/m 11,5 C 14,7 C 4,8 km/h (1 Bft) 97,87 %
14.08.2019 22:24 14,7 C 22,2 C 12,8 C 82 % 1017,3 hPa 0,0 l/m 3,0 km/h (1 Bft) S-SW 195 0 min 0,000 mm 0,0 UV-I 0 W/m 11,7 C 14,7 C 4,8 km/h (1 Bft) 97,87 %
14.08.2019 22:26 14,6 C 22,2 C 12,8 C 82 % 1017,3 hPa 0,0 l/m 3,5 km/h (1 Bft) S 180 0 min 0,000 mm 0,0 UV-I 0 W/m 11,6 C 14,6 C 6,4 km/h (2 Bft) 100,00 %
14.08.2019 22:29 14,6 C 22,2 C 12,8 C 82 % 1017,3 hPa 0,0 l/m 3,4 km/h (1 Bft) S 184 0 min 0,000 mm 0,0 UV-I 0 W/m 11,6 C 14,6 C 6,4 km/h (2 Bft) 100,00 %
14.08.2019 22:30 14,6 C 22,2 C 12,2 C 82 % 1017,3 hPa 0,0 l/m 2,9 km/h (1 Bft) S 184 0 min 0,000 mm 0,0 UV-I 0 W/m 11,6 C 14,6 C 4,8 km/h (1 Bft) 100,00 %
14.08.2019 22:32 14,5 C 22,2 C 12,2 C 82 % 1017,3 hPa 0,0 l/m 3,3 km/h (1 Bft) S 188 0 min 0,000 mm 0,0 UV-I 0 W/m 11,5 C 14,5 C 4,8 km/h (1 Bft) 100,00 %
14.08.2019 22:34 14,4 C 22,2 C 12,2 C 81 % 1017,3 hPa 0,0 l/m 3,1 km/h (1 Bft) S-SW 194 0 min 0,000 mm 0,0 UV-I 0 W/m 11,2 C 14,4 C 4,8 km/h (1 Bft) 100,00 %
14.08.2019 22:36 14,4 C 22,2 C 12,8 C 82 % 1017,3 hPa 0,0 l/m 3,7 km/h (1 Bft) S-SW 211 0 min 0,000 mm 0,0 UV-I 0 W/m 11,4 C 14,4 C 4,8 km/h (1 Bft) 95,74 %
14.08.2019 22:39 14,3 C 22,2 C 12,2 C 82 % 1017,3 hPa 0,0 l/m 4,3 km/h (1 Bft) SW 222 0 min 0,000 mm 0,0 UV-I 0 W/m 11,3 C 14,3 C 6,4 km/h (2 Bft) 98,59 %
14.08.2019 22:40 14,3 C 22,2 C 12,2 C 82 % 1017,3 hPa 0,0 l/m 5,0 km/h (1 Bft) S-SW 210 0 min 0,000 mm 0,0 UV-I 0 W/m 11,3 C 14,3 C 6,4 km/h (2 Bft) 100,00 %
14.08.2019 22:42 14,3 C 22,2 C 12,2 C 82 % 1017,3 hPa 0,0 l/m 5,2 km/h (1 Bft) S-SW 196 0 min 0,000 mm 0,0 UV-I 0 W/m 11,3 C 14,3 C 8,0 km/h (2 Bft) 100,00 %
14.08.2019 22:44 14,2 C 22,2 C 12,2 C 82 % 1017,2 hPa 0,0 l/m 6,4 km/h (2 Bft) S-SW 194 0 min 0,000 mm 0,0 UV-I 0 W/m 11,2 C 14,2 C 9,7 km/h (2 Bft) 95,83 %
14.08.2019 22:46 14,2 C 22,2 C 12,2 C 82 % 1017,2 hPa 0,0 l/m 5,6 km/h (1 Bft) S-SW 196 0 min 0,000 mm 0,0 UV-I 0 W/m 11,2 C 14,2 C 6,4 km/h (2 Bft) 97,37 %
14.08.2019 22:49 14,3 C 22,2 C 12,2 C 82 % 1017,3 hPa 0,0 l/m 5,2 km/h (1 Bft) S-SW 207 0 min 0,000 mm 0,0 UV-I 0 W/m 11,3 C 14,3 C 8,0 km/h (2 Bft) 94,52 %
14.08.2019 22:50 14,3 C 22,2 C 12,2 C 82 % 1017,3 hPa 0,0 l/m 5,0 km/h (1 Bft) SW 214 0 min 0,000 mm 0,0 UV-I 0 W/m 11,3 C 14,3 C 6,4 km/h (2 Bft) 95,83 %
14.08.2019 22:52 14,3 C 22,2 C 12,2 C 82 % 1017,3 hPa 0,0 l/m 4,5 km/h (1 Bft) S-SW 211 0 min 0,000 mm 0,0 UV-I 0 W/m 11,3 C 14,3 C 6,4 km/h (2 Bft) 95,74 %
14.08.2019 22:54 14,3 C 22,2 C 12,2 C 82 % 1017,3 hPa 0,0 l/m 4,5 km/h (1 Bft) S-SW 211 0 min 0,000 mm 0,0 UV-I 0 W/m 11,3 C 14,3 C 6,4 km/h (2 Bft) 93,62 %
14.08.2019 22:56 14,2 C 22,2 C 12,2 C 82 % 1017,3 hPa 0,0 l/m 4,5 km/h (1 Bft) S-SW 210 0 min 0,000 mm 0,0 UV-I 0 W/m 11,2 C 14,2 C 6,4 km/h (2 Bft) 93,62 %
14.08.2019 22:58 14,2 C 22,2 C 12,2 C 83 % 1017,3 hPa 0,0 l/m 4,3 km/h (1 Bft) SW 216 0 min 0,000 mm 0,0 UV-I 0 W/m 11,4 C 14,2 C 6,4 km/h (2 Bft) 95,74 %
14.08.2019 23:00 14,1 C 22,2 C 12,2 C 83 % 1017,4 hPa 0,0 l/m 5,1 km/h (1 Bft) SW 215 0 min 0,000 mm 0,0 UV-I 0 W/m 11,3 C 14,1 C 6,4 km/h (2 Bft) 95,74 %
14.08.2019 23:02 14,1 C 22,2 C 12,2 C 83 % 1017,3 hPa 0,0 l/m 4,8 km/h (1 Bft) SW 215 0 min 0,025 mm 0,0 UV-I 0 W/m 11,3 C 14,1 C 6,4 km/h (2 Bft) 90,00 %
14.08.2019 23:04 14,0 C 22,2 C 12,2 C 83 % 1017,3 hPa 0,0 l/m 4,9 km/h (1 Bft) SW 221 0 min 0,000 mm 0,0 UV-I 0 W/m 11,2 C 14,0 C 6,4 km/h (2 Bft) 93,62 %
14.08.2019 23:06 13,9 C 22,2 C 12,2 C 83 % 1017,3 hPa 0,0 l/m 5,3 km/h (1 Bft) SW 225 0 min 0,000 mm 0,0 UV-I 0 W/m 11,1 C 13,9 C 6,4 km/h (2 Bft) 95,74 %
14.08.2019 23:08 13,9 C 22,2 C 12,2 C 83 % 1017,3 hPa 0,0 l/m 5,7 km/h (1 Bft) SW 223 0 min 0,000 mm 0,0 UV-I 0 W/m 11,1 C 13,9 C 8,0 km/h (2 Bft) 97,87 %
14.08.2019 23:10 13,8 C 22,2 C 12,2 C 83 % 1017,3 hPa 0,0 l/m 5,0 km/h (1 Bft) S-SW 212 0 min 0,000 mm 0,0 UV-I 0 W/m 11,0 C 13,8 C 6,4 km/h (2 Bft) 97,87 %
14.08.2019 23:12 13,7 C 22,2 C 12,2 C 83 % 1017,3 hPa 0,0 l/m 4,9 km/h (1 Bft) S-SW 212 0 min 0,000 mm 0,0 UV-I 0 W/m 10,9 C 13,7 C 6,4 km/h (2 Bft) 97,87 %
14.08.2019 23:14 13,7 C 22,2 C 12,2 C 83 % 1017,3 hPa 0,0 l/m 4,9 km/h (1 Bft) S-SW 212 0 min 0,000 mm 0,0 UV-I 0 W/m 10,9 C 13,7 C 6,4 km/h (2 Bft) 95,74 %
14.08.2019 23:16 13,7 C 22,2 C 12,2 C 84 % 1017,3 hPa 0,0 l/m 5,0 km/h (1 Bft) S-SW 204 0 min 0,000 mm 0,0 UV-I 0 W/m 11,0 C 13,7 C 6,4 km/h (2 Bft) 93,62 %
14.08.2019 23:18 13,7 C 22,2 C 12,2 C 84 % 1017,3 hPa 0,0 l/m 4,9 km/h (1 Bft) S-SW 204 0 min 0,000 mm 0,0 UV-I 0 W/m 11,0 C 13,7 C 6,4 km/h (2 Bft) 95,74 %
14.08.2019 23:20 13,7 C 22,2 C 12,2 C 84 % 1017,3 hPa 0,0 l/m 3,9 km/h (1 Bft) S-SW 204 0 min 0,000 mm 0,0 UV-I 0 W/m 11,0 C 13,7 C 4,8 km/h (1 Bft) 97,87 %
14.08.2019 23:22 13,6 C 22,2 C 12,2 C 84 % 1017,2 hPa 0,0 l/m 3,8 km/h (1 Bft) S-SW 204 0 min 0,000 mm 0,0 UV-I 0 W/m 10,9 C 13,6 C 4,8 km/h (1 Bft) 100,00 %
14.08.2019 23:24 13,6 C 22,2 C 11,7 C 84 % 1017,2 hPa 0,0 l/m 3,1 km/h (1 Bft) S-SW 204 0 min 0,000 mm 0,0 UV-I 0 W/m 10,9 C 13,6 C 4,8 km/h (1 Bft) 100,00 %
14.08.2019 23:26 13,6 C 22,2 C 11,7 C 84 % 1017,2 hPa 0,0 l/m 3,1 km/h (1 Bft) S-SW 204 0 min 0,000 mm 0,0 UV-I 0 W/m 10,9 C 13,6 C 4,8 km/h (1 Bft) 97,87 %
14.08.2019 23:28 13,5 C 22,2 C 11,7 C 84 % 1017,2 hPa 0,0 l/m 3,5 km/h (1 Bft) S-SW 204 0 min 0,000 mm 0,0 UV-I 0 W/m 10,8 C 13,5 C 4,8 km/h (1 Bft) 100,00 %
14.08.2019 23:30 13,5 C 22,2 C 11,7 C 84 % 1017,2 hPa 0,0 l/m 3,3 km/h (1 Bft) S-SW 204 0 min 0,000 mm 0,0 UV-I 0 W/m 10,8 C 13,5 C 4,8 km/h (1 Bft) 97,87 %
14.08.2019 23:32 13,5 C 22,2 C 11,7 C 84 % 1017,3 hPa 0,0 l/m 3,8 km/h (1 Bft) S-SW 211 0 min 0,000 mm 0,0 UV-I 0 W/m 10,8 C 13,5 C 6,4 km/h (2 Bft) 97,87 %
14.08.2019 23:34 13,4 C 22,2 C 11,7 C 84 % 1017,2 hPa 0,0 l/m 4,0 km/h (1 Bft) S-SW 211 0 min 0,000 mm 0,0 UV-I 0 W/m 10,8 C 13,4 C 6,4 km/h (2 Bft) 100,00 %
14.08.2019 23:36 13,3 C 22,2 C 11,7 C 85 % 1017,2 hPa 0,0 l/m 3,4 km/h (1 Bft) S-SW 211 0 min 0,000 mm 0,0 UV-I 0 W/m 10,8 C 13,3 C 4,8 km/h (1 Bft) 100,00 %
14.08.2019 23:39 13,3 C 22,2 C 11,7 C 85 % 1017,3 hPa 0,0 l/m 3,6 km/h (1 Bft) S-SW 209 0 min 0,000 mm 0,0 UV-I 0 W/m 10,8 C 13,3 C 6,4 km/h (2 Bft) 98,63 %
14.08.2019 23:40 13,3 C 22,2 C 11,7 C 85 % 1017,3 hPa 0,0 l/m 4,2 km/h (1 Bft) S-SW 202 0 min 0,000 mm 0,0 UV-I 0 W/m 10,8 C 13,3 C 4,8 km/h (1 Bft) 100,00 %
14.08.2019 23:42 13,1 C 22,2 C 11,7 C 85 % 1017,3 hPa 0,0 l/m 3,9 km/h (1 Bft) S-SW 202 0 min 0,000 mm 0,0 UV-I 0 W/m 10,6 C 13,1 C 6,4 km/h (2 Bft) 97,87 %
14.08.2019 23:44 13,1 C 22,2 C 11,7 C 85 % 1017,3 hPa 0,0 l/m 3,3 km/h (1 Bft) S-SW 202 0 min 0,000 mm 0,0 UV-I 0 W/m 10,6 C 13,1 C 4,8 km/h (1 Bft) 100,00 %
14.08.2019 23:46 12,9 C 22,2 C 11,7 C 86 % 1017,3 hPa 0,0 l/m 3,0 km/h (1 Bft) S-SW 202 0 min 0,000 mm 0,0 UV-I 0 W/m 10,6 C 12,9 C 4,8 km/h (1 Bft) 100,00 %
14.08.2019 23:49 13,0 C 22,2 C 11,7 C 86 % 1017,2 hPa 0,0 l/m 3,2 km/h (1 Bft) S-SW 202 0 min 0,000 mm 0,0 UV-I 0 W/m 10,7 C 13,0 C 4,8 km/h (1 Bft) 98,59 %
14.08.2019 23:50 13,0 C 22,2 C 11,7 C 86 % 1017,2 hPa 0,0 l/m 3,8 km/h (1 Bft) S-SW 202 0 min 0,000 mm 0,0 UV-I 0 W/m 10,7 C 13,0 C 4,8 km/h (1 Bft) 95,65 %
14.08.2019 23:52 13,1 C 22,2 C 11,7 C 85 % 1017,2 hPa 0,0 l/m 4,3 km/h (1 Bft) S-SW 202 0 min 0,000 mm 0,0 UV-I 0 W/m 10,6 C 13,1 C 6,4 km/h (2 Bft) 98,00 %
14.08.2019 23:54 13,1 C 22,2 C 11,1 C 85 % 1017,2 hPa 0,0 l/m 3,7 km/h (1 Bft) S-SW 201 0 min 0,000 mm 0,0 UV-I 0 W/m 10,6 C 13,1 C 4,8 km/h (1 Bft) 100,00 %
14.08.2019 23:56 13,1 C 22,2 C 11,1 C 85 % 1017,2 hPa 0,0 l/m 2,9 km/h (1 Bft) S-SW 201 0 min 0,000 mm 0,0 UV-I 0 W/m 10,6 C 13,1 C 4,8 km/h (1 Bft) 100,00 %
14.08.2019 23:58 13,1 C 22,2 C 11,1 C 85 % 1017,2 hPa 0,0 l/m 3,6 km/h (1 Bft) S-SW 201 0 min 0,000 mm 0,0 UV-I 0 W/m 10,6 C 13,1 C 4,8 km/h (1 Bft) 100,00 %
_ Min-Zeit 23:46 03:02 23:54 14:10 18:16 - 19:44 - - - - - - 14:10 07:48 02:28 00:02
Minimum _ 12,9 C 21,7 C 11,1 C 46 % 1016,5 hPa - 0,2 km/h (0 Bft) - - - - - - 8,7 C 11,0 C 1,6 km/h (1 Bft) 5,00 %
_ Max-Zeit 16:42 14:10 13:58 03:12 09:02 00:00 15:00 - - 12:29 14:02 13:22 12:32 10:46 16:40 15:08 01:04
Maximum _ 21,6 C 22,8 C 36,7 C 97 % 1018,6 hPa 0,2 l/m 17,5 km/h
SW (3 Bft)
- - 3 min 0,508 mm 5,2 UV-I 972 W/m 13,8 C 21,4 C 27,4 km/h
W-SW (4 Bft)
100,00 %
Durchschnitt _ 16,3 C 22,2 C 19,7 C 78 % 1017,6 hPa #1,6 l/m 6,0 km/h (2 Bft) W - #7:20 h #3,556 mm 2,6 UV-I 370 W/m 12,1 C 15,9 C 10,1 km/h (2 Bft) 96,95 %